     2              OBSERVATION DATA    G (GPS)             RINEX VERSION / TYPE
ASRINEXO V2.9.7 UX USGS/MENLO_PARK 23-JUL-01 17:13          PGM / RUN BY / DATE
                                                            COMMENT
National Earthquake Hazard Reduction Program                COMMENT
Crustal Strain Project                                      COMMENT
345 Middlefield Road, MS/977                                COMMENT
U.S. Geological Survey, Menlo Park, California 94025        COMMENT
Contact: kwendt@usgs.gov (Ph: 650-329-4866)                 COMMENT
HI's are vertical to base of antenna                        COMMENT
BIT 2 OF LLI (+4) FLAGS DATA COLLECTED UNDER "AS" CONDITION COMMENT
illa ILLA_1989_Ore._Dept._Trans.                            MARKER NAME
JLS                                                         OBSERVER / AGENCY
4600 ASHTECH Z-XII3 CD00                                    REC # / TYPE / VERS
CR14333 ASH700936D_M NONE                                   ANT # / TYPE
 -2628425.0000 -3943909.0000  4254484.0000                  APPROX POSITION XYZ
        1.1781        0.0000        0.0000                  ANTENNA: DELTA H/E/N
     1     1                                                WAVELENGTH FACT L1/2
     5    C1    L1    L2    P1    P2                        # / TYPES OF OBSERV
    30                                                      INTERVAL
  2001     7    19    16     3    0.000000                  TIME OF FIRST OBS
                                                            END OF HEADER
 01  7 19 16  3  0.0000000  0  9 30 18 26 17 15 06 23 22 10
  24529326.622      552028.145 7    402663.74345  24529325.271    24529336.3494
  22234905.957     -109060.095 8    -80253.57747  22234905.835    22234912.6464
  22689595.559        4773.534 8      2973.76746  22689595.989    22689604.0614
  20765183.359      101488.561 9     72569.28847  20765182.723    20765189.8274
  21418678.298        3346.474 9      1945.50347  21418677.328    21418684.9084
  20705616.571      325080.392 9    238707.44848  20705616.240    20705622.9354
  21217554.368       22499.779 9     16041.32947  21217553.423    21217560.7184
  23046594.898      101321.697 8     73843.50046  23046593.495    23046601.6644
  23802178.769      523778.470 8    381739.63945  23802176.816    23802185.2194
 01  7 19 16  3 30.0000000  0  9 30 18 26 17 15 06 23 22 10
  24407592.924      -87681.077 7    -95811.26145  24407594.274    24407603.6374
  22074955.425     -949602.192 8   -735221.40147  22074955.976    22074962.7894
  22536314.616     -800722.674 8   -624685.57146  22536315.064    22536323.0344
  20617344.650     -675409.345 9   -532805.69947  20617343.970    20617351.0784
  21265229.232     -803036.222 9   -626404.62147  21265227.789    21265235.3904
  20569926.168     -387978.863 9   -316923.16448  20569925.597    20569932.2894
  21065300.660     -777597.812 9   -607411.31047  21065299.866    21065307.2154
  22898972.756     -674442.434 8   -530648.02246  22898970.513    22898978.5984
  23678853.676     -124295.833 8   -123253.38745  23678852.231    23678860.7384
 01  7 19 16  4  0.0000000  0  9 30 18 26 17 15 06 23 22 10
  24428561.010       22502.984 7     -9953.75145  24428561.209    24428570.9824
  22057769.917    -1039915.599 8   -805595.44547  22057769.914    22057776.7554
  22525827.760     -855830.935 8   -667627.01346  22525828.064    22525836.3134
  20612258.318     -702137.959 9   -553633.18947  20612257.711    20612264.8254
  21254529.974     -859259.435 9   -670214.89547  21254528.886    21254536.4994
  20577022.014     -350689.667 9   -287866.67348  20577021.524    20577028.2314
  21055835.612     -827336.569 9   -646168.75747  21055834.919    21055842.2764
  22894157.918     -699742.191 8   -550362.12546  22894156.186    22894164.3124
  23698264.307      -22293.226 8    -43770.90445  23698262.864    23698271.3374
 01  7 19 16  4 30.0000000  0  9 30 18 26 17 15 06 23 22 10
  24449526.594      132677.861 7     75896.56845  24449526.584    24449536.7294
  22040646.610    -1129900.624 8   -875713.59947  22040646.328    22040653.2064
  22515434.243     -910450.421 8   -710187.58346  22515434.379    22515442.5414
  20607223.076     -728598.522 9   -574251.80247  20607222.457    20607229.5934
  21243880.106     -915224.568 9   -713824.05947  21243879.069    21243886.6684
  20584203.126     -312952.486 9   -258461.09048  20584202.703    20584209.4084
  21046457.850     -876617.360 9   -684569.35047  21046457.101    21046464.4564
  22889450.704     -724477.960 8   -569636.73846  22889449.114    22889457.2744
  23717708.276       79884.883 8     35848.34845  23717706.783    23717715.2684
 01  7 19 16  5  0.0000000  0  9 30 18 26 17 15 06 23 22 10
  24470489.918      242841.125 7    161737.84045  24470490.222    24470500.2884
  22023585.670    -1219556.792 8   -945575.50747  22023585.319    22023592.1804
  22505133.854     -964579.799 8   -752366.26846  22505133.870    22505141.9924
  20602238.558     -754792.539 9   -594662.72147  20602237.897    20602245.0374
  21233279.131     -970932.850 9   -757233.08947  21233278.147    21233285.7304
  20591469.262     -274768.829 9   -228707.61648  20591468.863    20591475.5704
  21037166.984     -925440.924 9   -722613.66047  21037166.283    21037173.6364
  22884850.538     -748651.081 8   -588472.95446  22884849.209    22884857.2344
  23737184.743      182234.436 8    115601.17145  23737183.321    23737191.7244
 01  7 19 16  5 30.0000000  0  9 30 18 26 17 15 06 23 22 10
  24491450.668      352990.858 7    247568.55945  24491450.951    24491461.3884
  22006588.040    -1308880.008 8  -1015177.96647  22006587.666    22006594.5324
  22494927.577    -1018214.103 8   -794159.15446  22494927.635    22494935.6664
  20597305.210     -780717.694 9   -614864.12747  20597304.523    20597311.6564
  21222727.551    -1026381.748 9   -800440.00147  21222726.592    21222734.1884
  20598820.743     -236136.514 9   -198604.53348  20598820.363    20598827.0944
  21027963.792     -973804.239 9   -760299.34347  21027963.074    21027970.4274
  22880357.893     -772259.098 8   -606868.80946  22880356.729    22880364.8154
  23756693.565      284755.267 8    195487.49245  23756692.444    23756700.9464
 01  7 19 16  6  0.0000000  0  9 30 18 26 17 15 06 23 22 10
  24512408.890      463125.296 7    333387.44245  24512408.903    24512419.0464
  21989654.274    -1397867.914 8  -1084519.15447  21989653.859    21989660.6864
  22484816.204    -1071350.292 8   -835563.91846  22484816.156    22484824.2814
  20592423.111     -806373.517 9   -634855.67247  20592422.412    20592429.5424
  21212225.479    -1081570.325 9   -843444.06447  21212224.553    21212232.1444
  20606257.689     -197055.276 9   -168151.64748  20606257.345    20606264.0774
  21018848.342    -1021706.206 9   -797625.52547  21018847.635    21018854.9934
  22875973.165     -795300.836 8   -624823.42846  22875972.054    22875980.1184
  23776234.682      387445.148 8    275505.49445  23776233.616    23776242.2594
 01  7 19 16  6 30.0000000  0  9 30 18 26 17 15 06 23 22 10
  24533363.306      573241.498 8    419192.02045  24533363.355    24533374.1294
  21972784.575    -1486518.807 9  -1153597.74047  21972784.138    21972790.9724
  22474799.935    -1123985.910 8   -876578.60846  22474799.840    22474808.0084
  20587592.230     -831760.299 9   -654637.56947  20587591.487    20587598.6374
  21201772.989    -1136498.446 9   -886245.17247  21201772.129    21201779.6914
  20613779.956     -157525.531 9   -137349.28848  20613779.647    20613786.3984
  21009820.823    -1069146.128 9   -834591.68147  21009820.124    21009827.4924
  22871696.548     -817775.508 8   -642336.16946  22871695.325    22871703.3554
  23795807.613      490301.276 8    355653.10245  23795806.556    23795815.1774
 01  7 19 16  7  0.0000000  0  9 30 18 26 17 15 06 23 22 10
  24554313.947      683337.464 7    504980.87245  24554314.142    24554324.7834
  21955979.451    -1574830.046 9  -1222411.65347  21955979.082    21955985.9254
  22464879.536    -1176117.738 8   -917200.76246  22464879.437    22464887.6214
  20582812.535     -856877.331 9   -674209.27347  20582811.876    20582819.0414
  21191370.118    -1191165.444 9   -928842.81847  21191369.340    21191376.9124
  20621387.725     -117546.727 9   -106197.00048  20621387.400    20621394.1594
  21000881.508    -1116122.732 9   -871196.81047  21000880.823    21000888.1844
  22867527.837     -839682.010 8   -659406.18446  22867526.671    22867534.5994
  23815411.771      593322.027 8    435928.92945  23815410.755    23815419.4824
 01  7 19 16  7 30.0000000  0  9 30 18 26 17 15 06 23 22 10
  24575260.585      793411.164 8    590752.40645  24575260.611    24575271.1864
  21939239.538    -1662799.146 8  -1290958.96247  21939239.121    21939245.9444
  22455055.771    -1227742.346 8   -957427.66846  22455055.639    22455063.8664
  20578084.428     -881723.915 9   -693570.23847  20578083.779    20578090.9204
  21181017.354    -1245570.168 9   -971236.08847  21181016.507    21181024.0654
  20629081.035      -77118.353 9    -74694.39148  20629080.714    20629087.4634
  20992030.614    -1162634.539 9   -907439.75647  20992029.920    20992037.2824
  22863467.307     -861019.595 8   -676032.88546  22863466.292    22863474.2744
  23835046.833      696505.286 8    516331.42345  23835045.921    23835054.6134
 01  7 19 16  8  0.0000000  0  9 30 18 26 17 15 06 23 22 10
  24596202.538      903460.223 7    676504.73845  24596202.442    24596212.7544
  21922565.101    -1750424.232 8  -1359238.20747  21922564.585    21922571.4384
  22445328.880    -1278856.992 8   -997257.20246  22445328.752    22445337.1104
  20573407.830     -906300.041 9   -712720.46147  20573407.127    20573414.2624
  21170714.398    -1299712.231 9  -1013424.68547  21170713.610    21170721.1704
  20636859.886      -36240.410 9    -42841.47947  20636859.569    20636866.3494
  20983268.304    -1208680.789 9   -943319.93947  20983267.596    20983274.9714
  22859515.213     -881788.086 8   -692216.14246  22859514.207    22859522.2214
  23854712.505      799848.797 8    596858.74545  23854711.597    23854720.4214
 01  7 19 16  8 30.0000000  0  9 30 18 26 17 15 06 23 22 10
  24617139.044     1013481.824 8    762235.63545  24617138.938    24617149.7544
  21905956.526    -1837703.309 8  -1427247.82047  21905955.952    21905962.7804
  22435699.518    -1329459.195 8  -1036687.42246  22435699.458    22435707.8144
  20568782.636     -930605.576 9   -731659.83347  20568781.919    20568789.0724
  21160461.564    -1353591.285 9  -1055408.34347  21160460.758    21160468.3344
  20644724.284        5086.926 9    -10638.38148  20644723.965    20644730.7404
  20974594.679    -1254260.811 9   -978836.81647  20974594.001    20974601.3934
  22855671.670     -901986.368 8   -707955.07046  22855670.658    22855678.6424
  23874408.147      903350.149 8    677509.11845  23874407.361    23874416.1184
 01  7 19 16  9  0.0000000  0  9 30 18 26 17 15 06 23 22 10
  24638069.871     1123473.040 7    847942.85345  24638069.709    24638080.5724
  21889413.967    -1924634.792 8  -1494986.59747  21889413.394    21889420.2524
  22426168.134    -1379546.698 8  -1075716.58846  22426168.107    22426176.3974
  20564208.862     -954640.912 9   -750388.65747  20564208.195    20564215.3334
  21150258.774    -1407207.198 9  -1097186.96147  21150258.001    21150265.5724
  20652674.028       46862.940 9     21914.31947  20652673.711    20652680.4724
  20966009.848    -1299374.427 9  -1013990.26647  20966009.184    20966016.5654
  22851936.697     -921614.230 8   -723249.53346  22851935.614    22851943.5634
  23894133.275     1007006.410 8    758280.15445  23894132.536    23894141.3604
 01  7 19 16  9 30.0000000  0  9 30 18 26 17 15 06 23 22 10
  24658994.318     1233431.127 8    933624.28945  24658994.183    24659004.9684
  21872937.826    -2011217.160 9  -1562453.32647  21872937.320    21872944.1604
  22416735.209    -1429117.060 8  -1114342.78946  22416735.137    22416743.4004
  20559686.465     -978406.233 9   -768907.08647  20559685.826    20559692.9784
  21140106.100    -1460560.036 9  -1138760.58747  21140105.310    21140112.8824
  20660709.086       89087.134 9     54816.25747  20660708.749    20660715.5254
  20957513.909    -1344021.083 9  -1048779.85647  20957513.235    20957520.6034
  22848310.280     -940671.733 8   -738099.54046  22848309.095    22848317.2284
  23913887.666     1110814.823 8    839169.76545  23913886.671    23913895.5324
 01  7 19 16 10  0.0000000  0  9 30 18 26 17 15 06 23 22 10
  24679912.015     1343353.033 8   1019277.56945  24679911.902    24679922.8644
  21856528.439    -2097448.703 9  -1629646.68747  21856527.981    21856534.8604
  22407401.133    -1478168.187 8  -1152564.42446  22407400.989    22407409.2104
  20555215.418    -1001901.693 9   -787215.23047  20555214.811    20555221.9644
  21130003.443    -1513649.781 9  -1180129.20647  21130002.694    21130010.2724
  20668829.403      131759.326 9     88067.29347  20668829.037    20668835.8294
  20949106.869    -1388200.393 9  -1083205.27947  20949106.226    20949113.5744
  22844792.097     -959159.269 8   -752505.43146  22844791.060    22844799.2334
  23933670.561     1214772.719 8    920175.85545  23933669.345    23933678.1894
 01  7 19 16 10 30.0000000  0  9 30 18 26 17 15 06 23 22 10
  24700822.278     1453236.774 7   1104901.07345  24700822.196    24700833.1224
  21840186.312    -2183327.092 9  -1696564.86947  21840185.844    21840192.7234
  22398166.511    -1526696.865 8  -1190378.91346  22398166.372    22398174.5714
  20550795.864    -1025126.712 9   -805312.65047  20550795.240    20550802.3854
  21119951.125    -1566475.244 9  -1221291.89347  21119950.372    21119957.9274
  20677034.998      174879.810 9    121667.63947  20677034.627    20677041.4214
  20940789.025    -1431911.049 9  -1117265.50847  20940788.394    20940795.7304
  22841382.541     -977075.653 8   -766466.27046  22841381.700    22841389.8724
  23953481.380     1318878.286 8   1001297.01945  23953480.100    23953488.8764
 01  7 19 16 11  0.0000000  0  9 30 18 26 17 15 06 23 22 10
  24721724.797     1563080.576 7   1190493.42945  24721724.975    24721735.8554
  21823911.982    -2268849.911 9  -1763205.98247  21823911.381    21823918.2744
  22389031.714    -1574700.003 8  -1227783.92146  22389031.576    22389039.7584
  20546427.894    -1048080.784 9   -823198.93647  20546427.234    20546434.3874
  21109949.170    -1619035.718 9  -1262248.09347  21109948.427    21109955.9684
  20685325.951      218448.959 9    155617.59047  20685325.607    20685332.4044
  20932560.592    -1475151.982 9  -1150959.71947  20932559.920    20932567.2304
  22838082.153     -994419.646 8   -779981.07446  22838081.315    22838089.4984
  23973319.707     1423129.514 8   1082531.66545  23973318.477    23973327.3014
 01  7 19 16 11 30.0000000  0  9 30 18 26 17 15 06 23 22 10
  24742619.312     1672880.710 7   1276051.76945  24742619.590    24742630.5074
  21807705.308    -2354016.345 9  -1829569.39747  21807704.730    21807711.6024
  22379997.266    -1622176.164 8  -1264778.27846  22379997.151    22380005.4734
  20542111.288    -1070764.786 9   -840874.77747  20542110.623    20542117.7824
  21099997.526    -1671331.875 9  -1302998.32647  21099996.806    21100004.3444
  20693702.035      262465.450 9    189916.12247  20693701.698    20693708.5144
  20924421.448    -1517923.600 9  -1184288.23547  20924420.755    20924428.0724
  22834890.680    -1011191.978 8   -793050.44146  22834889.694    22834897.8024
  23993185.048     1527523.066 8   1163877.22845  23993183.944    23993192.8924
 01  7 19 16 12  0.0000000  0  9 30 18 26 17 15 06 23 22 10
  24763504.794     1782632.76615   1361572.46444  24763504.947    24763515.5474
  21791566.800    -2438824.876 8  -1895653.91147  21791566.222    21791573.0364
  22371063.586    -1669123.080 8  -1301360.25046  22371063.485    22371071.6164
  20537846.023    -1093178.935 9   -858340.35048  20537845.366    20537852.5474
  21090096.265    -1723363.738 9  -1343542.62647  21090095.491    21090103.0594
  20702163.148      306928.639 9    224562.71947  20702162.821    20702169.6324
  20916371.674    -1560225.411 9  -1217250.65847  20916371.008    20916378.3294
  22831807.770    -1027392.887 8   -805674.56446  22831806.779    22831814.9664
  24013076.977     1632056.115 8   1245331.48345  24013075.874    24013084.8744
 01  7 19 16 12 30.0000000  0  8 18 26 17 15 06 23 22 10
  21775497.828    -2523268.066 8  -1961453.78246  21775497.237    21775503.9954
  22362232.044    -1715532.836 8  -1337523.65446  22362232.039    22362240.1694
  20533633.221    -1115317.475 9   -875591.15948  20533632.572    20533639.7764
  21080246.361    -1775125.252 9  -1383876.26247  21080245.620    21080253.1724
  20710710.330      351843.923 9    259561.60148  20710709.984    20710716.7754
  20908412.452    -1602051.332 9  -1249842.27647  20908411.788    20908419.1234
  22828834.672    -1043016.846 8   -817849.07446  22828833.737    22828841.9594
  24032995.941     1736731.783 8   1326896.89045  24032994.913    24033004.0064
 01  7 19 16 13  0.0000000  0 10 30 18 26 17 15 06 23 22 21 10
  24805247.766                                    24805239.950    24805404.5344
  21759495.973    -2607358.027 9  -2026978.39147  21759495.445    21759502.1794
  22353500.703    -1761416.756 8  -1373277.36346  22353500.684    22353508.7124
  20529470.185    -1137194.461 9   -892638.15648  20529469.544    20529476.7444
  21070445.342    -1826630.069 9  -1424009.86847  21070444.565    21070452.1204
  20719340.768      397196.892 9    294901.56147  20719340.409    20719347.2044
  20900541.224    -1643414.821 9  -1282073.55147  20900540.607    20900547.9144
  22825968.840    -1058077.123 8   -829584.35046  22825967.931    22825976.1494
  24910308.303    -2880971.849 7  -2130565.12145  24910307.112    24910319.4614
  24052939.277     1841533.798 8   1408560.67945  24052938.187    24052947.3444
 01  7 19 16 13 30.0000000  0  9 18 26 17 15 06 23 22 21 10
  21743563.388    -2691084.167 8  -2092219.47747  21743562.875    21743569.6174
  22344871.379    -1806763.809 8  -1408612.64446  22344871.347    22344879.4484
  20525358.591    -1158801.031 9   -909474.43847  20525357.970    20525365.1544
  21060694.968    -1877868.991 9  -1463936.28847  21060694.145    21060701.6984
  20728056.127      442996.236 9    330589.31947  20728055.786    20728062.5994
  20892759.767    -1684306.789 9  -1313937.40447  20892759.144    20892766.4584
  22823212.027    -1072564.489 8   -840873.23346  22823211.110    22823219.2674
  24891335.134    -2980676.440 7  -2208257.26844  24891334.267    24891345.8404
  24072907.746     1946468.474 8   1490327.91545  24072906.564    24072915.8774
 01  7 19 16 14  0.0000000  0  9 18 26 17 15 06 23 22 21 10
  21727700.736    -2774442.758 9  -2157174.18947  21727700.246    21727707.0004
  22336345.118    -1851569.512 8  -1443526.15446  22336345.090    22336353.1594
  20521298.896    -1180135.028 9   -926098.31347  20521298.281    20521305.4714
  21050995.526    -1928839.637 9  -1503653.66347  21050994.770    21051002.3004
  20736856.753      489243.593 9    366626.18847  20736856.393    20736863.2124
  20885068.484    -1724724.508 9  -1345431.71047  20885067.878    20885075.1764
  22820564.683    -1086476.820 8   -851714.01246  22820563.782    22820571.8514
  24872381.595    -3080278.385 7  -2285869.06544  24872380.869    24872392.0064
  24092901.301     2051535.654 7   1572198.37745  24092900.102    24092909.5454
 01  7 19 16 14 30.0000000  0  9 18 26 17 15 06 23 22 21 10
  21711908.169    -2857433.396 9  -2221842.17847  21711907.659    21711914.3454
  22327922.081    -1895832.844 8  -1478017.05946  22327922.081    22327930.0494
  20517290.777    -1201197.898 9   -942510.95447  20517290.166    20517297.3274
  21041346.991    -1979543.011 9  -1543162.76347  21041346.239    21041353.7644
  20745742.282      535937.155 9    403010.73047  20745741.922    20745748.7514
  20877467.288    -1764668.984 9  -1376557.25647  20877466.721    20877473.9904
  22818026.402    -1099815.984 8   -862108.19346  22818025.390    22818033.4754
  24853447.298    -3179777.904 8  -2363401.05545  24853446.837    24853457.8134
  24112919.415     2156731.365 7   1654169.01845  24112918.443    24112927.7634
 01  7 19 16 15  0.0000000  0  9 18 26 17 15 06 23 22 21 10
  21696185.865    -2940054.816 9  -2286222.46247  21696185.313    21696191.9634
  22319602.632    -1939552.141 8  -1512084.01646  22319602.591    22319610.5884
  20513334.154    -1221990.172 9   -958712.73148  20513333.545    20513340.7034
  21031749.245    -2029979.231 9  -1582463.68847  21031748.553    21031756.0944
  20754712.539      583075.984 9    439742.22248  20754712.192    20754719.0514
  20869956.177    -1804140.266 9  -1407314.05547  20869955.590    20869962.8984
  22815596.945    -1112582.282 8   -872055.96346  22815595.972    22815604.1374
  24834532.820    -3279174.423 8  -2440852.88345  24834532.301    24834543.4224
  24132961.518     2262052.480 7   1736237.41545  24132960.568    24132969.7114
 01  7 19 16 15 30.0000000  0  9 18 26 17 15 06 23 22 21 10
  21680534.270    -3022304.601 9  -2350313.15647  21680533.679    21680540.3444
  22311387.266    -1982724.225 8  -1545724.57646  22311387.258    22311395.2774
  20509429.203    -1242510.998 9   -974702.97147  20509428.568    20509435.7194
  21022202.530    -2080147.419 9  -1621555.77347  21022201.852    21022209.3854
  20763767.594      630660.466 9    476821.02447  20763767.253    20763774.1604
  20862535.370    -1843136.974 9  -1437701.10347  20862534.758    20862542.0624
  22813276.980    -1124774.291 8   -881556.25246  22813275.978    22813283.9944
  24815638.568    -3378465.005 8  -2518222.14345  24815637.932    24815648.9714
  24153026.780     2367497.702 7   1818402.41045  24153026.128    24153035.3174
 01  7 19 16 16  0.0000000  0  9 18 26 17 15 06 23 22 21 10
  21664953.515    -3104181.759 9  -2414113.49247  21664952.925    21664959.6134
  22303276.273    -2025347.633 8  -1578937.60746  22303276.264    22303284.2674
  20505575.755    -1262761.212 9   -990482.35147  20505575.096    20505582.2634
  21012706.703    -2130048.335 9  -1660439.58647  21012706.017    21012713.5754
  20772907.270      678689.539 9    514246.24347  20772906.926    20772913.8384
  20855204.829    -1881659.617 9  -1467718.72947  20855204.163    20855211.4404
  22811066.156    -1136392.776 8   -890609.62246  22811065.088    22811073.1424
  24796764.281    -3477649.010 8  -2595508.32545  24796763.717    24796775.2204
  24173115.315     2473063.602 7   1900661.49545  24173114.631    24173123.7884
 01  7 19 16 16 30.0000000  0  9 18 26 17 15 06 23 22 21 10
  21649443.990    -3185684.684 9  -2477622.22547  21649443.402    21649450.0734
  22295269.974    -2067420.314 8  -1611721.48546  22295270.015    22295278.0604
  20501773.736    -1282740.740 9  -1006050.81247  20501773.118    20501780.2754
  21003261.726    -2179681.646 9  -1699114.87747  21003261.115    21003268.6554
  20782131.434      727162.679 9    552017.48347  20782131.080    20782138.0014
  20847964.468    -1919707.877 9  -1497366.71047  20847963.795    20847971.0624
  22808964.391    -1147438.001 8   -899216.31446  22808963.264    22808971.3434
  24777910.737    -3576724.996 7  -2672710.39645  24777910.350    24777921.4744
  24193226.520     2578748.090 8   1983012.97545  24193225.568    24193234.8794
 01  7 19 16 17  0.0000000  0  9 18 26 17 15 06 23 22 21 10
  21634006.005    -3266811.745 9  -2540838.07547  21634005.400    21634012.0714
  22287369.252    -2108939.704 8  -1644074.23446  22287369.195    22287377.1134
  20498023.276    -1302449.617 9  -1021408.37747  20498022.664    20498029.8094
  20993867.871    -2229047.056 9  -1737581.41447  20993867.178    20993874.7234
  20791439.998      776079.399 9    590134.37247  20791439.666    20791446.5784
  20840814.481    -1957281.333 9  -1526644.71447  20840813.805    20840821.0574
  22806971.586    -1157910.484 8   -907376.71146  22806970.482    22806978.5744
  24759077.922    -3675691.606 7  -2749827.19445  24759077.497    24759088.6094
  24213359.837     2684548.283 7   2065454.61745  24213358.810    24213368.1804
 01  7 19 16 17 30.0000000  0  9 18 26 17 15 06 23 22 21 10
  21618639.769    -3347561.508 9  -2603759.92847  21618639.238    21618645.8874
  22279573.935    -2149904.430 8  -1675994.77446  22279573.862    22279581.8664
  20494324.223    -1321888.246 9  -1036555.35847  20494323.625    20494330.7544
  20984524.934    -2278144.392 9  -1775839.05847  20984524.286    20984531.8494
  20800832.804      825438.780 9    628596.18947  20800832.483    20800839.4024
  20833754.788    -1994380.005 9  -1555552.75147  20833754.152    20833761.4054
  22805087.762    -1167810.140 8   -915090.74046  22805086.607    22805094.7474
  24740266.236    -3774547.330 7  -2826857.56545  24740265.899    24740276.9814
  24233514.467     2790461.766 8   2147984.51045  24233513.517    24233523.0014
 01  7 19 16 18  0.0000000  0  9 18 26 17 15 06 23 22 21 10
  21603345.661    -3427932.292 9  -2666386.46747  21603345.115    21603351.7774
  22271884.517    -2190311.758 8  -1707480.99746  22271884.565    22271892.5824
  20490676.617    -1341056.535 9  -1051491.68547  20490676.030    20490683.1514
  20975233.145    -2326973.065 9  -1813887.35747  20975232.459    20975240.0324
  20810309.774      875240.444 9    667402.64347  20810309.463    20810316.4014
  20826785.543    -2031003.519 9  -1584090.53747  20826784.947    20826792.1714
  22803313.148    -1177136.502 8   -922358.06046  22803311.906    22803320.0094
  24721475.798    -3873290.771 7  -2903800.47345  24721475.489    24721486.5584
  24253690.359     2896486.405 8   2230601.08345  24253689.569    24253698.9164
 01  7 19 16 18 30.0000000  0  9 18 26 17 15 06 23 22 21 10
  21588124.044    -3507922.197 9  -2728716.22447  21588123.563    21588130.1954
  22264301.769    -2230159.462 8  -1738531.13146  22264301.755    22264309.7744
  20487080.524    -1359953.981 9  -1066216.96747  20487079.990    20487087.1054
  20965992.476    -2375532.742 9  -1851726.05347  20965991.866    20965999.4164
  20819870.830      925484.078 9    706553.49347  20819870.534    20819877.4684
  20819906.798    -2067151.312 9  -1612257.63347  20819906.229    20819913.4654
  22801647.463    -1185889.511 8   -929178.60346  22801646.279    22801654.4294
  24702707.264    -3971920.351 7  -2980654.61345  24702706.871    24702718.1444
  24273887.036     3002620.062 7   2313302.55345  24273886.288    24273895.5684
 01  7 19 16 19  0.0000000  0  9 18 26 17 15 06 23 22 21 10
  21572975.313    -3587529.237 9  -2790747.64447  21572974.820    21572981.4424
  22256825.832    -2269445.288 8  -1769143.44646  22256825.890    22256833.8534
  20483536.020    -1378580.573 9  -1080731.19047  20483535.454    20483542.5894
  20956803.239    -2423823.140 9  -1889354.91747  20956802.537    20956810.0934
  20829515.939      976169.316 9    746048.44647  20829515.646    20829522.6154
  20813118.709    -2102822.859 9  -1640053.62747  20813118.158    20813125.4174
  22800090.775    -1194069.619 8   -935552.73246  22800089.687    22800097.8114
  24683960.844    -4070434.025 7  -3057418.48145  24683960.480    24683971.5184
  24294103.855     3108860.311 8   2396087.10145  24294103.232    24294112.3664
 01  7 19 16 19 30.0000000  0  9 18 26 17 15 06 23 22 21 10
  21557899.590    -3666752.581 9  -2852480.07147  21557899.087    21557905.7224
  22249457.335    -2308167.601 8  -1799316.66346  22249457.341    22249465.2594
  20480042.958    -1396936.846 9  -1095034.77947  20480042.382    20480049.5354
  20947665.081    -2471844.308 9  -1926773.98547  20947664.384    20947671.9644
  20839244.901     1027295.279 9    785886.82647  20839244.631    20839251.6524
  20806421.231    -2138018.417 9  -1667478.71547  20806420.695    20806427.9394
  22798642.970    -1201677.576 8   -941481.03246  22798641.968    22798650.1854
  24665236.417    -4168830.800 7  -3134091.18645  24665236.063    24665247.3604
  24314340.461     3215204.216 7   2478952.45045  24314340.002    24314349.0834
 01  7 19 16 20  0.0000000  0  9 18 26 17 15 06 23 22 21 10
  21542897.315    -3745590.202 9  -2913911.93547  21542896.793    21542903.4234
  22242196.507    -2346323.886 8  -1829048.81146  22242196.508    22242204.3374
  20476601.440    -1415022.255 9  -1109127.30647  20476600.864    20476608.0014
  20938578.302    -2519595.299 9  -1963982.53547  20938577.674    20938585.2424
  20849057.754     1078861.914 9    826068.59247  20849057.498    20849064.5224
  20799814.468    -2172737.280 9  -1694532.35447  20799813.888    20799821.1454
  22797304.267    -1208712.477 8   -946962.77346  22797303.275    22797311.5464
  24646534.440    -4267108.540 7  -3210671.19545  24646534.379    24646545.8534
  24334596.437     3321649.800 8   2561896.96545  24334595.890    24334605.1454
 01  7 19 16 20 30.0000000  0  9 18 26 17 15 06 23 22 21 10
  21527968.726    -3824040.395 9  -2975041.91447  21527968.198    21527974.8144
  22235043.594    -2383912.263 8  -1858338.41446  22235043.590    22235051.4884
  20473211.452    -1432836.910 9  -1123008.85347  20473210.871    20473218.0234
  20929543.097    -2567075.944 9  -2000980.42147  20929542.439    20929549.9614
  20858954.316     1130868.359 9    866593.06847  20858954.037    20858961.0744
  20793298.413    -2206979.368 9  -1721214.48147  20793297.819    20793305.0774
  22796074.491    -1215174.518 8   -951998.14346  22796073.627    22796081.9434
  24627855.733    -4365266.626 7  -3287157.91045  24627855.311    24627866.9184
  24354871.650     3428194.796 8   2644918.99245  24354870.964    24354880.0794
 01  7 19 16 21  0.0000000  0  9 18 26 17 15 06 23 22 21 10
  21513114.108    -3902101.766 9  -3035868.91147  21513113.572    21513120.2354
  22227999.270    -2420930.556 8  -1887183.80646  22227999.236    22228007.1704
  20469872.972    -1450380.711 9  -1136679.34647  20469872.412    20469879.5504
  20920559.241    -2614286.218 9  -2037767.62647  20920558.609    20920566.1204
  20868934.432     1183314.158 9    907459.89947  20868934.178    20868941.2284
  20786873.137    -2240744.375 9  -1747524.85747  20786872.558    20786879.8384
  22794953.850    -1221064.129 8   -956587.46846  22794952.922    22794961.1724
  24609200.061    -4463303.047 7  -3363549.87545  24609199.636    24609211.2894
  24375165.174     3534837.152 7   2728016.85445  24375164.205    24375173.5774
 01  7 19 16 21 30.0000000  0  9 18 26 17 15 06 23 22 21 10
  21498333.791    -3979772.115 9  -3096391.21747  21498333.374    21498340.0214
  22221063.870    -2457376.303 8  -1915583.06046  22221063.847    22221071.7554
  20466586.101    -1467653.143 9  -1150138.38347  20466585.588    20466592.7434
  20911627.087    -2661225.355 9  -2074343.55847  20911626.392    20911633.9264
  20878998.167     1236199.269 9    948669.04847  20878997.940    20879004.9484
  20780538.775    -2274031.700 9  -1773463.01947  20780538.213    20780545.4684
  22793942.028    -1226381.507 8   -960730.89046  22793941.133    22793949.3314
  24590567.685    -4561215.838 7  -3439845.46445  24590567.473    24590579.1754
  24395476.794     3641574.853 8   2811189.01345  24395475.813    24395485.0644
 01  7 19 16 22  0.0000000  0  9 18 26 17 15 06 23 22 21 10
  21483628.225    -4057050.651 9  -3156608.22047  21483627.754    21483634.3944
  22214237.617    -2493248.231 8  -1943535.18646  22214237.643    22214245.4474
  20463350.791    -1484654.981 9  -1163386.56747  20463350.267    20463357.4074
  20902746.437    -2707893.421 9  -2110708.26947  20902745.740    20902753.2754
  20889145.261     1289522.468 9    990219.56047  20889145.046    20889152.0994
  20774295.244    -2306841.557 9  -1799029.12447  20774294.695    20774301.9414
  22793038.993    -1231127.236 8   -964428.87546  22793038.028    22793046.2754
  24571959.251    -4659004.271 7  -3516044.20145  24571959.047    24571970.5084
  24415806.138     3748404.723 7   2894432.99645  24415804.840    24415814.2074
 01  7 19 16 22 30.0000000  0  9 18 26 17 15 06 23 22 21 10
  21468997.569    -4133934.996 9  -3216518.05247  21468997.133    21469003.7534
  22207521.228    -2528543.572 8  -1971038.00946  22207521.253    22207528.9954
  20460167.130    -1501385.359 9  -1176423.22447  20460166.591    20460173.7314
  20893917.530    -2754289.578 9  -2146861.10347  20893916.862    20893924.3754
  20899375.753     1343283.845 9   1032111.50847  20899375.523    20899382.5854
  20768142.752    -2339173.109 9  -1824222.52447  20768142.214    20768149.4534
  22792244.726    -1235300.556 8   -967680.82646  22792243.938    22792252.1054
  24553374.607    -4756666.150 7  -3592144.25545  24553374.642    24553386.1584
  24436152.505     3855325.444 8   2977747.74545  24436151.204    24436160.6924
 01  7 19 16 23  0.0000000  0  9 18 26 17 15 06 23 22 21 10
  21454442.196    -4210423.963 9  -3276119.80247  21454441.759    21454448.3854
  22200914.702    -2563260.987 8  -1998090.50546  22200914.697    22200922.4724
  20457034.959    -1517844.870 9  -1189248.81547  20457034.430    20457041.5774
  20885140.345    -2800414.158 9  -2182802.32047  20885139.649    20885147.1524
  20909689.344     1397482.242 9   1074343.98747  20909689.153    20909696.2094
  20762081.182    -2371026.783 9  -1849043.55347  20762080.651    20762087.8894
  22791559.458    -1238902.215 8   -970487.33846  22791558.632    22791566.7634
  24534814.724    -4854200.134 7  -3668144.71845  24534814.582    24534826.0074
  24456515.725     3962334.172 8   3061131.11845  24456514.527    24456523.8474
 01  7 19 16 23 30.0000000  0  9 18 26 17 15 06 23 22 21 10
  21439962.411    -4286515.927 9  -3335412.19547  21439961.933    21439968.5324
  22194418.546    -2597398.382 8  -2024691.04046  22194418.514    22194426.3524
  20453954.475    -1534033.093 9  -1201863.00847  20453953.942    20453961.0834
  20876414.912    -2846266.518 9  -2218531.41247  20876414.249    20876421.7484
  20920086.026     1452116.978 9   1116916.48347  20920085.836    20920092.9344
  20756110.626    -2402402.373 9  -1873492.04547  20756110.064    20756117.3114
  22790982.645    -1241933.015 8   -972849.02246  22790981.861    22790990.0214
  24516278.945    -4951605.006 7  -3744044.54145  24516278.773    24516290.2614
  24476895.107     4069428.754 7   3144581.34545  24476893.909    24476903.3134
 01  7 19 16 24  0.0000000  0  9 18 26 17 15 06 23 22 21 10
  21425558.426    -4362208.944 9  -3394393.72547  21425558.015    21425564.5794
  22188033.143    -2630953.118 8  -2050837.52746  22188033.124    22188041.0994
  20450925.688    -1549949.477 9  -1214265.38547  20450925.159    20450932.2884
  20867741.549    -2891845.784 9  -2254047.71447  20867740.804    20867748.3034
  20930565.790     1507188.168 9   1159829.06647  20930565.581    20930572.6594
  20750231.190    -2433299.046 9  -1897567.35947  20750230.634    20750237.8894
  22790514.624    -1244392.493 8   -974765.51946  22790513.875    22790522.0184
  24497768.325    -5048878.543 7  -3819842.04845  24497768.189    24497779.7494
  24497290.501     4176607.500 7   3228097.17645  24497289.538    24497298.9904
 01  7 19 16 24 30.0000000  0  9 18 26 17 15 06 23 22 21 10
  21411230.602    -4437502.128 9  -3453063.70147  21411230.164    21411236.7214
  22181758.821    -2663924.331 8  -2076529.33546  22181758.868    22181766.9224
  20447948.467    -1565594.957 9  -1226456.66547  20447947.940    20447955.0794
  20859119.838    -2937152.836 9  -2289351.89147  20859119.152    20859126.6564
  20941128.285     1562694.215 9   1203080.49847  20941128.079    20941135.1384
  20744442.746    -2463717.698 9  -1921270.18747  20744442.172    20744449.4214
  22790155.234    -1246281.590 8   -976237.57346  22790154.394    22790162.6114
  24479282.983    -5146020.158 8  -3895536.74345  24479282.715    24479294.2594
  24517701.442     4283867.390 7   3311676.23445  24517700.450    24517709.8634
 01  7 19 16 25  0.0000000  0  9 18 26 17 15 06 23 22 21 10
  21396979.107    -4512394.421 9  -3511421.28947  21396978.630    21396985.1694
  22175596.136    -2696310.226 8  -2101765.05446  22175596.134    22175604.1184
  20445022.769    -1580969.556 9  -1238436.86447  20445022.266    20445029.4054
  20850550.054    -2982187.325 9  -2324443.68447  20850549.365    20850556.8804
  20951773.379     1618634.330 9   1246670.16447  20951773.159    20951780.2234
  20738745.197    -2493658.119 9  -1944600.36747  20738744.666    20738751.9274
  22789904.385    -1247600.533 8   -977265.34546  22789903.418    22789911.6904
  24460822.947    -5243028.279 8  -3971127.41345  24460822.695    24460834.1554
  24538127.320     4391206.213 7   3395316.77345  24538126.398    24538135.7354
 01  7 19 16 25 30.0000000  0  9 18 26 17 15 06 23 22 21 10
  21382804.231    -4586884.035 9  -3569465.10247  21382803.713    21382810.2634
  22169545.052    -2728108.862 8  -2126543.18046  22169545.114    22169552.9904
  20442148.647    -1596073.062 9  -1250205.82647  20442148.155    20442155.2934
  20842032.226    -3026948.817 9  -2359322.75247  20842031.532    20842039.0174
  20962500.939     1675008.003 9   1290597.66747  20962500.723    20962507.8444
  20733138.765    -2523120.186 9  -1967557.80447  20733138.227    20733145.4934
  22789761.596    -1248349.975 8   -977849.34646  22789760.857    22789769.1354
  24442388.781    -5339901.442 8  -4046612.91945  24442388.217    24442399.7274
  24558567.948     4498621.877 7   3479017.21545  24558566.939    24558576.2714
 01  7 19 16 26  0.0000000  0  9 18 26 17 15 06 23 22 21 10
  21368706.253    -4660969.326 9  -3627193.86147  21368705.703    21368712.2664
  22163606.091    -2759318.216 8  -2150862.11746  22163606.185    22163613.9204
  20439326.176    -1610905.411 9  -1261763.49847  20439325.659    20439332.7884
  20833566.423    -3071436.782 9  -2393988.68147  20833565.763    20833573.2664
  20973310.954     1731814.623 9   1334862.52847  20973310.739    20973317.8624
  20727623.344    -2552103.848 9  -1990142.46247  20727622.805    20727630.0594
  22789727.191    -1248530.677 8   -977990.17746  22789726.461    22789734.7094
  24423980.469    -5436638.079 8  -4121992.05845  24423979.990    24423991.2594
  24579022.594     4606111.946 7   3562775.63245  24579021.747    24579031.0044
 01  7 19 16 26 30.0000000  0  9 18 26 17 15 06 23 22 21 10
  21354685.549    -4734648.168 9  -3684605.90147  21354685.069    21354691.6134
  22157779.558    -2789936.001 8  -2174720.08246  22157779.668    22157787.4754
  20436555.465    -1625465.780 9  -1273109.23847  20436554.927    20436562.0684
  20825152.928    -3115650.115 9  -2428440.61747  20825152.247    20825159.7324
  20984203.269     1789054.170 9   1379464.74247  20984203.079    20984210.2084
  20722199.196    -2580608.137 9  -2012353.58047  20722198.630    20722205.8814
  22789801.232    -1248141.971 8   -977687.31146  22789800.480    22789808.6954
  24405598.313    -5533235.893 8  -4197263.00345  24405597.897    24405609.1924
  24599491.327     4713674.922 7   3646590.83245  24599490.207    24599499.6304
 01  7 19 16 27  0.0000000  0  9 18 26 17 15 06 23 22 21 10
  21340742.343    -4807920.040 9  -3741700.82447  21340741.872    21340748.4124
  22152065.955    -2819961.320 8  -2198116.39546  22152066.054    22152073.7444
  20433836.348    -1639754.974 9  -1284243.67947  20433835.820    20433842.9394
  20816791.496    -3159589.566 9  -2462679.13247  20816790.836    20816798.3084
  20995177.719     1846725.067 9   1424403.05747  20995177.531    20995184.6924
  20716866.072    -2608634.013 9  -2034191.91447  20716865.502    20716872.7374
  22789983.374    -1247184.838 8   -976941.50546  22789982.643    22789990.8544
  24387242.927    -5629694.469 8  -4272425.44645  24387242.403    24387253.6614
  24619973.224     4821307.704 7   3730460.40245  24619971.938    24619981.7114
 01  7 19 16 27 30.0000000  0  9 18 26 17 15 06 23 22 21 10
  21326876.924    -4880783.394 9  -3798477.42047  21326876.431    21326882.9694
  22146465.405    -2849392.271 8  -2221049.56046  22146465.481    22146473.2294
  20431168.801    -1653772.897 9  -1295166.73247  20431168.287    20431175.4134
  20808482.366    -3203254.532 9  -2496703.76047  20808481.668    20808489.1404
  21006234.138     1904826.677 9   1469677.01347  21006233.937    21006241.1084
  20711623.970    -2636181.291 9  -2055657.31047  20711623.411    20711630.6394
  22790273.572    -1245659.813 8   -975753.19346  22790272.822    22790281.1354
  24368914.202    -5726012.250 8  -4347478.19445  24368913.752    24368925.0654
  24640468.032     4929008.100 7   3814382.71445  24640466.839    24640476.5644
 01  7 19 16 28  0.0000000  0  9 18 26 17 15 06 23 22 21 10
  21313089.547    -4953236.270 9  -3854934.17147  21313089.065    21313095.5944
  22140978.526    -2878226.604 8  -2243517.84546  22140978.599    22140986.2584
  20428553.026    -1667518.910 9  -1305877.90747  20428552.497    20428559.6334
  20800225.531    -3246644.526 9  -2530514.12447  20800224.814    20800232.2874
  21017372.419     1963358.660 9   1515286.30047  21017372.216    21017379.4064
  20706473.089    -2663249.428 9  -2076749.35247  20706472.527    20706479.7374
  22790671.966    -1243567.275 8   -974122.67646  22790671.137    22790679.3124
  24350612.580    -5822187.573 8  -4422419.92845  24350612.142    24350623.4374
  24660975.538     5036774.765 7   3898356.64245  24660974.143    24660983.7984
 01  7 19 16 28 30.0000000  0  9 18 26 17 15 06 23 22 21 10
  21299380.403    -5025277.874 9  -3911070.44247  21299379.986    21299386.4954
  22135605.172    -2906463.476 8  -2265520.56046  22135605.279    22135613.0154
  20425988.881    -1680993.780 9  -1316377.80347  20425988.343    20425995.4734
  20792020.960    -3289759.714 9  -2564110.34747  20792020.264    20792027.7314
  21028592.328     2022319.456 9   1561229.74147  21028592.139    21028599.3044
  20701413.143    -2689839.372 9  -2097468.77147  20701412.630    20701419.8634
  22791177.975    -1240908.770 8   -972051.13746  22791177.056    22791185.2534
  24332338.368    -5918219.574 7  -4497249.97345  24332337.713    24332349.0424
  24681494.856     5144604.417 7   3982379.64545  24681493.358    24681503.2574
 01  7 19 16 29  0.0000000  0  9 18 26 17 15 06 23 22 21 10
  21285749.987    -5096906.271 9  -3966884.74247  21285749.542    21285756.0454
  22130345.936    -2934100.700 8  -2287056.01346  22130346.001    22130353.7684
  20423476.423    -1694196.775 9  -1326665.84347  20423475.902    20423483.0384
  20783868.942    -3332598.992 9  -2597491.57547  20783868.237    20783875.7024
  21039893.795     2081708.902 9   1607507.18647  21039893.625    21039900.7914
  20696444.340    -2715950.437 9  -2117815.04347  20696443.820    20696451.0694
  22791791.766    -1237683.648 8   -969538.08146  22791790.801    22791798.9744
  24314091.654    -6014105.838 7  -4571966.47745  24314091.215    24314102.3174
  24702026.152     5252495.968 7   4066450.90045  24702024.664    24702034.4714
 01  7 19 16 29 30.0000000  0  9 18 26 17 15 06 23 22 21 10
  21272198.313    -5168120.622 9  -4022376.40747  21272197.864    21272204.3714
  22125200.924    -2961137.104 8  -2308123.32146  22125201.062    22125208.6764
  20421015.619    -1707128.478 9  -1336742.49147  20421015.105    20421022.2214
  20775769.214    -3375162.894 9  -2630658.22847  20775768.585    20775776.0424
  21051276.542     2141525.652 9   1654117.59947  21051276.385    21051283.5924
  20691566.604    -2741583.255 9  -2137788.65347  20691566.087    20691573.3074
  22792512.932    -1233892.996 8   -966584.33446  22792512.102    22792520.3884
  24295872.716    -6109845.740 7  -4646568.91845  24295872.278    24295883.4854
  24722568.645     5360446.576 7   4150568.18945  24722567.022    24722577.3504
 01  7 19 16 30  0.0000000  0  8 18 26 17 15 06 23 22 21
  21258726.055    -5238917.644 9  -4077542.87647  21258725.611    21258732.1324
  22120171.117    -2987569.000 8  -2328719.58146  22120171.204    22120178.8624
  20418606.861    -1719786.677 9  -1346606.01647  20418606.333    20418613.4674
  20767722.415    -3417449.084 9  -2663608.48247  20767721.775    20767729.2204
  21062740.854     2201770.953 9   1701061.94447  21062740.708    21062747.9784
  20686780.250    -2766735.798 9  -2157388.02647  20686779.720    20686786.9324
  22793342.130    -1229535.526 8   -963188.92946  22793341.338    22793349.6324
  24277682.448    -6205435.443 7  -4721054.32645  24277682.181    24277693.3864
 01  7 19 16 30 30.0000000  0  8 18 26 17 15 06 23 22 21
  21245332.993    -5309298.463 9  -4132385.03047  21245332.572    21245339.0954
  22115256.229    -3013397.482 8  -2348845.65546  22115256.276    22115263.8874
  20416249.591    -1732174.032 9  -1356258.49547  20416249.095    20416256.2304
  20759728.046    -3459459.871 9  -2696344.13347  20759727.410    20759734.8444
  21074286.121     2262441.359 9   1748337.54847  21074285.975    21074293.2194
  20682084.738    -2791410.769 9  -2176615.26047  20682084.231    20682091.4154
  22794278.383    -1224614.964 8   -959354.75246  22794277.680    22794286.0024
  24259520.507    -6300876.326 7  -4795423.75345  24259520.273    24259531.4444
 01  7 19 16 31  0.0000000  0  8 18 26 17 15 06 23 22 21
  21232019.824    -5379259.577 9  -4186900.15247  21232019.389    21232025.8964
  22110456.856    -3038618.820 8  -2368498.62946  22110456.909    22110464.4054
  20413944.343    -1744288.161 9  -1365698.07547  20413943.871    20413951.0094
  20751786.543    -3501192.424 9  -2728862.97847  20751785.928    20751793.3704
  21085912.495     2323538.291 9   1795945.50647  21085912.356    21085919.5924
  20677480.521    -2815606.050 9  -2195468.71547  20677480.028    20677487.1964
  22795322.380    -1219129.637 8   -955080.50246  22795321.557    22795329.9044
  24241387.412    -6396165.406 7  -4869674.90145  24241387.207    24241398.5534
 01  7 19 16 31 30.0000000  0  8 18 26 17 15 06 23 22 21
  21218786.302    -5448802.308 9  -4241089.25247  21218785.830    21218792.3394
  22105772.587    -3063234.178 8  -2387679.40446  22105772.642    22105780.2874
  20411690.593    -1756131.813 9  -1374926.89447  20411690.101    20411697.2484
  20743897.566    -3542649.411 9  -2761167.10147  20743896.939    20743904.3704
  21097619.345     2385058.016 9   1843882.91347  21097619.192    21097626.4544
  20672967.036    -2839324.516 9  -2213950.63047  20672966.533    20672973.7044
  22796473.121    -1213082.494 8   -950368.48646  22796472.260    22796480.6054
  24223283.335    -6491303.525 7  -4943808.44245  24223283.071    24223294.3014
 01  7 19 16 32  0.0000000  0  8 18 26 17 15 06 23 22 21
  21205632.950    -5517923.422 9  -4294949.82047  21205632.476    21205638.9924
  22101204.238    -3087240.226 8  -2406385.39146  22101204.325    22101212.1474
  20409488.670    -1767702.917 9  -1383943.33547  20409488.175    20409495.3174
  20736061.418    -3583828.612 9  -2793254.76647  20736060.774    20736068.2194
  21109406.886     2447001.596 9   1892150.60147  21109406.692    21109413.9934
  20668544.659    -2862564.513 9  -2232059.70947  20668544.145    20668551.3064
  22797731.123    -1206472.157 8   -945217.59946  22797730.249    22797738.5874
  24205208.341    -6586287.169 8  -5017821.57745  24205208.163    24205219.4314
 01  7 19 16 32 30.0000000  0  8 18 26 17 15 06 23 22 21
  21192559.946    -5586622.168 9  -4348481.27647  21192559.516    21192566.0214
  22096752.095    -3110635.992 8  -2424615.83746  22096752.197    22096760.0774
  20407338.508    -1779002.069 9  -1392747.87147  20407338.034    20407345.1714
  20728278.053    -3624730.251 9  -2825126.15547  20728277.442    20728284.8864
  21121274.813     2509367.587 9   1940747.43847  21121274.606    21121281.9034
  20664213.163    -2885326.685 9  -2249796.45647  20664212.643    20664219.8094
  22799095.857    -1199300.565 8   -939629.37246  22799094.965    22799103.3304
  24187163.054    -6681116.027 8  -5091714.11945  24187162.746    24187174.0874
 01  7 19 16 33  0.0000000  0  8 18 26 17 15 06 23 22 21
  21179567.585    -5654896.999 9  -4401682.40647  21179567.201    21179573.7084
  22092416.583    -3133419.867 8  -2442369.51046  22092416.688    22092424.3864
  20405240.229    -1790028.857 9  -1401340.17247  20405239.706    20405246.8534
  20720547.660    -3665353.808 9  -2856780.85447  20720547.024    20720554.4604
  21133222.958     2572155.453 9   1989673.01147  21133222.754    21133230.0814
  20659972.625    -2907610.970 9  -2267160.82247  20659972.069    20659979.2414
  22800567.217    -1191568.375 8   -933604.30946  22800566.426    22800574.7494
  24169147.610    -6775787.972 8  -5165484.38545  24169147.208    24169158.6284
 01  7 19 16 33 30.0000000  0  8 18 26 17 15 06 23 22 21
  21166656.322    -5722746.293 9  -4454551.95147  21166655.889    21166662.3834
  22088197.893    -3155589.942 8  -2459644.91346  22088198.008    22088205.4834
  20403193.831    -1800782.785 9  -1409719.86047  20403193.323    20403200.4614
  20712870.281    -3705698.556 9  -2888218.30547  20712869.649    20712877.0884
  21145251.340     2635364.699 9   2038926.92047  21145251.137    21145258.4574
  20655823.048    -2929417.127 9  -2284152.62448  20655822.522    20655829.6764
  22802145.394    -1183275.479 8   -927142.34146  22802144.574    22802152.9014
  24151162.270    -6870301.527 8  -5239131.22145  24151161.789    24151173.2434
 01  7 19 16 34  0.0000000  0  9 18 26 17 15 06 23 22 21 03
  21153825.656    -5790171.929 9  -4507091.36947  21153825.192    21153831.6894
  22084095.589    -3177148.061 8  -2476443.45446  22084095.679    22084103.0804
  20401198.718    -1811267.094 9  -1417889.45147  20401198.234    20401205.3874
  20705245.497    -3745767.268 9  -2919440.66347  20705244.817    20705252.2464
  21157359.082     2698991.200 9   2088505.96747  21157358.885    21157366.1884
  20651763.782    -2950748.546 9  -2300774.50048  20651763.262    20651770.4054
  22803829.540    -1174425.724 8   -920246.45246  22803828.618    22803836.9074
  24133206.591    -6964658.420 8  -5312655.98645  24133206.289    24133217.7234
  24619707.793    -2047509.453 8  -1583335.65145  24619707.910    24619717.6004
 01  7 19 16 34 30.0000000  0  9 18 26 17 15 06 23 22 21 03
  21141076.435    -5857169.456 9  -4559297.19147  21141075.978    21141082.4654
  22080110.487    -3198089.691 8  -2492761.58946  22080110.577    22080118.0844
  20399255.589    -1821478.337 9  -1425846.26147  20399255.089    20399262.2494
  20697673.917    -3785556.272 9  -2950445.06147  20697673.209    20697680.6554
  21169546.665     2763037.267 9   2138411.94747  21169546.518    21169553.8524
  20647795.482    -2971602.090 9  -2317024.00348  20647794.959    20647802.1054
  22805620.212    -1165016.745 8   -912914.80646  22805619.168    22805627.4614
  24115281.883    -7058854.041 8  -5386055.07745  24115281.338    24115292.7904
  24600018.960    -2150976.192 7  -1663959.10945  24600019.061    24600028.4154
 01  7 19 16 35  0.0000000  0  9 18 26 17 15 06 23 22 21 03
  21128409.083    -5923736.895 9  -4611167.88247  21128408.587    21128415.0794
  22076242.961    -3218412.868 8  -2508597.81846  22076243.005    22076250.7794
  20397364.523    -1831415.958 9  -1433589.86047  20397364.039    20397371.1894
  20690155.670    -3825064.797 9  -2981230.91647  20690155.004    20690162.4404
  21181813.977     2827502.477 9   2188644.52347  21181813.855    21181821.2214
  20643918.153    -2991977.488 9  -2332900.92748  20643917.653    20643924.7984
  22807517.004    -1155049.450 8   -905148.10146  22807515.855    22807524.2264
  24097388.077    -7152886.384 8  -5459326.96545  24097387.615    24097398.8944
  24580344.704    -2254363.760 8  -1744520.75345  24580344.891    24580354.1904
 01  7 19 16 35 30.0000000  0  9 18 26 17 15 06 23 22 21 03
  21115823.485    -5989874.192 9  -4662703.39947  21115823.040    21115829.5154
  22072493.254    -3238117.370 8  -2523951.96846  22072493.321    22072501.1644
  20395525.370    -1841080.890 9  -1441120.98347  20395524.882    20395532.0214
  20682690.606    -3864293.768 9  -3011798.93647  20682689.962    20682697.3834
  21194160.659     2892384.655 9   2239201.99947  21194160.548    21194167.9314
  20640131.590    -3011876.098 9  -2348406.33148  20640131.085    20640138.2174
  22809519.680    -1144525.596 8   -896947.73846  22809518.489    22809526.8454
  24079525.419    -7246754.938 8  -5532471.20245  24079524.882    24079536.2504
  24560686.244    -2357671.095 7  -1825019.95045  24560686.392    24560695.5504
 01  7 19 16 36  0.0000000  0  9 18 26 17 15 06 23 22 21 03
  21103320.041    -6055580.329 9  -4713902.94847  21103319.586    21103326.0354
  22068861.527    -3257202.050 8  -2538823.15946  22068861.635    22068869.5154
  20393738.067    -1850473.219 9  -1448439.67947  20393737.559    20393744.6754
  20675278.880    -3903242.771 9  -3042148.79047  20675278.233    20675285.6064
  21206586.583     2957682.598 9   2290083.46247  21206586.416    21206593.7334
  20636435.666    -3031298.451 9  -2363540.62648  20636435.153    20636442.2514
  22811628.165    -1133445.782 8   -888314.14546  22811626.970    22811635.3294
  24061694.385    -7340458.529 8  -5605486.91745  24061693.786    24061704.9444
  24541043.169    -2460896.317 7  -1905455.10445  24541043.269    24541052.3604
 01  7 19 16 36 30.0000000  0  9 18 26 17 15 06 23 22 21 03
  21090898.877    -6120854.139 9  -4764765.61647  21090898.385    21090904.7914
  22065348.070    -3275665.825 8  -2553210.53146  22065348.177    22065355.9054
  20392002.670    -1859592.875 9  -1455545.90147  20392002.161    20392009.2704
  20667920.430    -3941911.567 9  -3072280.30347  20667919.797    20667927.1624
  21219091.328     3023395.326 9   2341288.12647  21219091.179    21219098.5094
  20632830.270    -3050244.771 9  -2378303.97947  20632829.769    20632836.8434
  22813842.315    -1121810.974 8   -879248.08946  22813841.027    22813849.4224
  24043894.515    -7433996.284 8  -5678373.37345  24043894.059    24043905.3124
  24521415.808    -2564037.524 7  -1985824.83645  24521415.887    24521425.0564
 01  7 19 16 37  0.0000000  0  9 18 26 17 15 06 23 22 21 03
  21078560.279    -6185693.599 9  -4815289.82647  21078559.817    21078566.2134
  22061953.180    -3293506.555 8  -2567112.41146  22061953.307    22061960.9434
  20390319.303    -1868439.056 9  -1462439.03247  20390318.806    20390325.9064
  20660615.497    -3980299.165 9  -3102192.70447  20660614.904    20660622.2414
  21231674.949     3089522.642 9   2392815.84647  21231674.817    21231682.1624
  20629315.614    -3068714.462 9  -2392695.93647  20629315.122    20629322.1944
  22816161.962    -1109621.553 8   -869749.88746  22816160.620    22816168.9664
  24026126.859    -7527365.786 8  -5751128.75145  24026126.389    24026137.5624
  24501804.929    -2667091.973 7  -2066126.95245  24501805.133    24501814.4064
 01  7 19 16 37 30.0000000  0  9 18 26 17 15 06 23 22 21 03
  21066304.364    -6250098.607 9  -4865475.50947  21066303.941    21066310.2934
  22058676.809    -3310724.212 8  -2580528.77246  22058676.846    22058684.4674
  20388687.835    -1877012.562 9  -1469119.68447  20388687.335    20388694.4324
  20653363.951    -4018406.197 9  -3131886.48647  20653363.344    20653370.6924
  21244337.127     3156062.558 9   2444665.07247  21244336.971    21244344.3644
  20625891.351    -3086708.995 9  -2406717.64047  20625890.833    20625897.9304
  22818586.683    -1096879.911 8   -859821.36546  22818585.232    22818593.6344
  24008391.175    -7620566.442 8  -5823752.53545  24008390.797    24008402.0164
  24482211.655    -2770058.519 7  -2146360.53545  24482211.378    24482220.5244
 01  7 19 16 38  0.0000000  0  9 18 26 17 15 06 23 22 21 03
  21054131.483    -6314067.068 9  -4915321.02347  21054131.138    21054137.4614
  22055519.175    -3327316.799 8  -2593458.07046  22055519.272    22055527.0034
  20387108.374    -1885312.630 9  -1475587.26947  20387107.879    20387114.9834
  20646166.025    -4056231.542 9  -3161360.77247  20646165.427    20646172.7644
  21257077.785     3223014.784 9   2496835.58347  21257077.611    21257084.9954
  20622557.669    -3104227.831 9  -2420368.67247  20622557.111    20622564.2074
  22821116.465    -1083585.938 8   -849462.45946  22821115.040    22821123.4284
  23990687.953    -7713596.062 8  -5896243.05645  23990687.792    23990698.9594
  24462635.054    -2872934.317 7  -2226523.40845  24462634.690    24462643.7514
 01  7 19 16 38 30.0000000  0  9 18 26 17 15 06 23 22 21 03
  21042041.899    -6377598.163 9  -4964825.73447  21042041.538    21042047.8534
  22052480.727    -3343283.289 8  -2605899.49646  22052480.845    22052488.6664
  20385580.958    -1893339.268 9  -1481841.79047  20385580.436    20385587.5534
  20639021.689    -4093775.004 9  -3190615.40947  20639021.113    20639028.4574
  21269896.695     3290378.256 9   2549326.53947  21269896.537    21269903.8494
  20619314.331    -3121271.473 9  -2433649.42147  20619313.816    20619320.8864
  22823751.346    -1069740.318 8   -838673.70346  22823749.857    22823758.2174
  23973017.726    -7806454.205 8  -5968599.94645  23973017.465    23973028.5394
  24443075.832    -2975717.239 7  -2306613.94645  24443075.712    24443084.6544
 01  7 19 16 39  0.0000000  0  9 18 26 17 15 06 23 22 21 03
  21030035.740    -6440691.055 9  -5013988.99047  21030035.349    21030041.6394
  22049561.667    -3358622.911 8  -2617852.44846  22049561.796    22049569.6884
  20384105.509    -1901092.762 9  -1487883.47547  20384105.018    20384112.1104
  20631930.998    -4131036.723 9  -3219650.50547  20631930.422    20631937.7674
  21282793.539     3358151.563 9   2602136.84347  21282793.369    21282800.7854
  20616161.346    -3137840.502 9  -2446560.34347  20616160.809    20616167.8834
  22826490.664    -1055344.674 8   -827456.36746  22826489.211    22826497.6344
  23955380.330    -7899139.628 8  -6040822.23745  23955379.975    23955390.8974
  24423534.836    -3078405.861 7  -2386630.98445  24423534.709    24423543.6454
 01  7 19 16 39 30.0000000  0  9 18 26 17 15 06 23 22 21 03
  21018112.989    -6503345.147 9  -5062810.32747  21018112.633    21018118.9094
  22046762.160    -3373335.187 8  -2629316.57846  22046762.264    22046770.0444
  20382681.982    -1908573.583 9  -1493712.68547  20382681.463    20382688.5584
  20624893.911    -4168016.930 9  -3248466.24247  20624893.324    20624900.6574
  21295768.143     3426332.891 9   2655265.10147  21295767.917    21295775.2974
  20613098.504    -3153935.914 9  -2459102.21447  20613097.969    20613105.0324
  22829334.472    -1040401.056 8   -815812.03346  22829332.961    22829341.3814
  23937775.857    -7991651.498 8  -6112909.30945  23937775.442    23937786.4044
  24404012.237    -3180998.555 7  -2466573.22845  24404011.725    24404021.0154
 01  7 19 16 40  0.0000000  0  9 18 26 17 15 06 23 22 21 03
  21006274.149    -6565558.741 9  -5111288.42147  21006273.759    21006280.0164
  22044082.288    -3387418.559 8  -2640290.63846  22044082.409    22044090.0424
  20381310.460    -1915781.008 9  -1499328.86247  20381309.943    20381317.0414
  20617910.521    -4204714.753 9  -3277061.93647  20617909.948    20617917.2824
  21308820.152     3494921.815 9   2708710.94947  21308820.021    21308827.3464
  20610125.719    -3169557.678 9  -2471275.00447  20610125.207    20610132.2864
  22832282.346    -1024909.995 8   -803741.12246  22832280.781    22832289.2074
  23920204.715    -8083987.823 8  -6184859.57645  23920204.337    23920215.2864
  24384508.035    -3283492.897 7  -2546438.87445  24384507.596    24384516.9034
 01  7 19 16 40 30.0000000  0  9 18 26 17 15 06 23 22 21 03
  20994519.371    -6627330.368 9  -5159422.12147  20994518.997    20994525.2794
  22041522.304    -3400871.519 8  -2650773.45646  22041522.381    22041530.0624
  20379991.036    -1922714.586 9  -1504731.64747  20379990.526    20379997.6084
  20610980.986    -4241129.570 9  -3305437.10647  20610980.415    20610987.7494
  21321949.568     3563917.524 9   2762473.77547  21321949.441    21321956.8474
  20607243.159    -3184705.737 9  -2483078.67448  20607242.643    20607249.7034
  22835334.353    -1008871.742 8   -791243.82446  22835332.828    22835341.1624
  23902667.296    -8176147.003 8  -6256671.82245  23902667.028    23902677.8704
  24365022.905    -3385886.288 7  -2626225.86345  24365022.667    24365032.2214
 01  7 19 16 41  0.0000000  0  9 18 26 17 15 06 23 22 21 03
  20982848.889    -6688659.079 9  -5207210.69947  20982848.476    20982854.7394
  22039082.374    -3413693.016 8  -2660764.23446  22039082.501    22039090.2274
  20378723.750    -1929374.153 9  -1509920.91747  20378723.263    20378730.3514
  20604105.507    -4277260.657 9  -3333591.19247  20604104.915    20604112.2344
  21335156.371     3633318.970 9   2816552.76847  21335156.189    21335163.5834
  20604450.660    -3199380.433 9  -2494513.48848  20604450.136    20604457.2014
  22838490.149     -992287.209 8   -778320.85546  22838488.703    22838497.1674
  23885163.955    -8268127.626 8  -6328344.92645  23885163.576    23885174.3284
  24345557.868    -3488176.488 7  -2705932.43945  24345557.461    24345566.8744
 01  7 19 16 41 30.0000000  0  9 18 26 17 15 06 23 22 21 03
  20971262.710    -6749544.514 9  -5254653.87047  20971262.347    20971268.5944
  22036762.762    -3425882.932 8  -2670262.87646  22036762.807    22036770.5504
  20377508.500    -1935760.404 9  -1514897.21547  20377507.995    20377515.0874
  20597283.914    -4313108.376 9  -3361524.47147  20597283.318    20597290.6354
  21348439.844     3703124.124 9   2870946.33647  21348439.733    21348447.1264
  20601747.983    -3213583.095 9  -2505580.48748  20601747.457    20601754.5224
  22841749.479     -975158.684 8   -764974.00246  22841748.167    22841756.7204
  23867694.657    -8359929.055 8  -6399878.39745  23867694.210    23867705.0034
  24326112.807    -3590362.268 7  -2785557.66645  24326112.054    24326121.5984
 01  7 19 16 42  0.0000000  0  9 18 26 17 15 06 23 22 21 03
  20959761.330    -6809984.741 9  -5301750.12447  20959760.949    20959767.1784
  22034563.577    -3437439.591 8  -2679268.07346  22034563.679    22034571.4154
  20376345.412    -1941872.394 9  -1519659.80347  20376344.920    20376351.9974
  20590516.373    -4348671.832 9  -3389236.24647  20590515.803    20590523.1194
  21361800.149     3773332.861 9   2925654.36847  21361800.013    21361807.5174
  20599135.143    -3227313.341 9  -2516279.36848  20599134.646    20599141.7034
  22845112.148     -957486.961 8   -751203.87746  22845111.088    22845119.6284
  23850259.697    -8451549.558 8  -6471270.89645  23850259.339    23850270.0594
  24306687.682    -3692440.620 7  -2865099.16745  24306687.220    24306696.6584
 01  7 19 16 42 30.0000000  0  9 18 26 17 15 06 23 22 21 03
  20948344.807    -6869978.827 9  -5348498.73547  20948344.423    20948350.6514
  22032485.172    -3448362.206 8  -2687779.20046  22032485.258    22032492.9874
  20375234.498    -1947710.285 9  -1524208.81247  20375234.019    20375241.0914
  20583802.981    -4383950.834 9  -3416726.37147  20583802.420    20583809.7434
  21375237.068     3843943.768 9   2980675.79847  21375236.872    21375244.4184
  20596612.158    -3240571.839 9  -2526610.65848  20596611.662    20596618.7194
  22848577.991     -939272.928 8   -737011.15946  22848577.119    22848585.7314
  23832859.427    -8542987.589 8  -6542521.19645  23832859.165    23832869.8754
  24287283.506    -3794409.803 7  -2944555.64545  24287283.144    24287292.4244
 01  7 19 16 43  0.0000000  0  9 18 26 17 15 06 23 22 21 03
  20937013.330    -6929526.005 9  -5394899.10747  20937012.948    20937019.1624
  22030527.447    -3458649.978 8  -2695795.63846  22030527.523    22030535.2814
  20374175.806    -1953273.899 9  -1528544.09647  20374175.302    20374182.3704
  20577143.765    -4418945.319 9  -3443994.79447  20577143.180    20577150.5054
  21388750.148     3914955.466 9   3036009.53847  21388750.056    21388757.5304
  20594178.823    -3253359.168 9  -2536574.80248  20594178.277    20594185.3344
  22852147.031     -920517.583 8   -722396.64746  22852146.149    22852154.7874
  23815494.198    -8634242.280 8  -6613628.62745  23815493.836    23815504.4454
  24267900.567    -3896267.532 8  -3023925.22045  24267900.202    24267909.5554
 01  7 19 16 43 30.0000000  0  9 18 26 17 15 06 23 22 21 03
  20925766.958    -6988625.847 9  -5440950.90547  20925766.583    20925772.8044
  22028690.523    -3468302.861 8  -2703317.36146  22028690.605    22028698.3684
  20373169.127    -1958563.969 9  -1532666.23847  20373168.659    20373175.7204
  20570538.616    -4453655.616 9  -3471041.77047  20570538.013    20570545.3504
  21402339.143     3986366.279 9   3091654.25847  21402339.078    21402346.6164
  20591834.878    -3265676.443 9  -2546172.66748  20591834.370    20591841.4264
  22855818.756     -901223.030 8   -707361.98946  22855817.837    22855826.5014
  23798163.997    -8725313.132 8  -6684592.84445  23798163.704    23798174.1794
  24248539.405    -3998012.482 8  -3103206.97045  24248538.716    24248548.0224
 01  7 19 16 44  0.0000000  0  9 18 26 17 15 06 23 22 21 03
  20914606.037    -7047277.010 9  -5486653.08447  20914605.630    20914611.8384
  22026974.695    -3477319.564 8  -2710343.35646  22026974.793    22026982.5704
  20372214.571    -1963579.973 9  -1536574.81647  20372214.140    20372221.1884
  20563987.668    -4488080.944 9  -3497866.68947  20563987.088    20563994.4224
  21416004.094     4058175.323 9   3147609.30147  21416003.899    21416011.4454
  20589580.305    -3277523.907 9  -2555404.44748  20589579.861    20589586.9124
  22859592.714     -881390.619 8   -691908.20146  22859591.894    22859600.4974
  23780868.922    -8816198.796 8  -6755412.73845  23780868.657    23780879.1244
  24229199.872    -4099641.956 8  -3182398.70445  24229199.364    24229208.6044
 01  7 19 16 44 30.0000000  0  9 18 26 17 15 06 23 22 21 03
  20903530.633    -7105478.387 9  -5532004.77947  20903530.257    20903536.4584
  22025380.056    -3485699.058 8  -2716872.82546  22025380.167    22025387.9984
  20371312.322    -1968321.465 9  -1540269.49047  20371311.854    20371318.9344
  20557491.116    -4522220.591 9  -3524469.00447  20557490.545    20557497.8504
  21429744.571     4130381.731 9   3203873.98347  21429744.486    21429751.9834
  20587415.124    -3288901.801 9  -2564270.33447  20587414.699    20587421.7624
  22863468.919     -861021.304 8   -676036.06246  22863468.060    22863476.6564
  23763609.602    -8906897.173 8  -6826086.69445  23763609.226    23763619.7114
  24209882.542    -4201153.741 8  -3261498.75145  24209882.318    24209891.4254
 01  7 19 16 45  0.0000000  0  9 18 26 17 15 06 23 22 21 03
  20892541.004    -7163228.849 9  -5577005.10547  20892540.655    20892546.8694
  22023906.924    -3493440.560 8  -2722905.16646  22023907.066    22023914.7454
  20370462.326    -1972788.248 9  -1543750.10447  20370461.863    20370468.9414
  20551048.983    -4556074.147 9  -3550848.38847  20551048.405    20551055.7144
  21443560.323     4202984.341 9   3260447.37447  21443560.242    21443567.8464
  20585339.248    -3299810.624 9  -2572770.70348  20585338.826    20585345.8924
  22867447.066     -840115.959 8   -659746.21346  22867446.266    22867454.8484
  23746386.043    -8997407.269 8  -6896613.94545  23746385.650    23746396.1694
  24190588.296    -4302545.437 8  -3340505.24845  24190588.035    24190597.1214
 01  7 19 16 45 30.0000000  0  9 18 26 17 15 06 23 22 21 03
  20881637.492    -7220527.481 9  -5621653.36447  20881637.074    20881643.2804
  22022555.281    -3500543.465 8  -2728439.87446  22022555.412    22022563.2064
  20369664.581    -1976980.438 9  -1547016.75347  20369664.145    20369671.2064
  20544661.348    -4589641.516 9  -3577004.77647  20544660.737    20544668.0624
  21457451.411     4275981.774 8   3317328.43847  21457451.226    21457458.8824
  20583352.457    -3310251.077 9  -2580906.11648  20583352.052    20583359.1284
  22871526.922     -818675.864 8   -643039.69046  22871526.232    22871534.7814
  23729198.599    -9087727.549 8  -6966993.28245  23729198.188    23729208.7504
  24171317.129    -4403815.298 8  -3419416.79145  24171316.996    24171326.0404
 01  7 19 16 46  0.0000000  0  9 18 26 17 15 06 23 22 21 03
  20870820.088    -7277373.365 9  -5665948.82747  20870819.672    20870825.8674
  22021325.285    -3507007.116 8  -2733476.48646  22021325.423    22021333.1644
  20368919.112    -1980897.870 9  -1550069.29647  20368918.681    20368925.7514
  20538328.258    -4622922.306 9  -3602937.85247  20538327.622    20538334.9414
  21471417.251     4349372.646 9   3374516.08247  21471417.157    21471424.7034
  20581454.729    -3320223.729 9  -2588677.00748  20581454.326    20581461.3974
  22875708.338     -796702.642 8   -625917.74046  22875707.618    22875716.3024
  23712047.532    -9177856.640 8  -7037223.65745  23712047.191    23712057.6714
  24152069.654    -4504961.054 8  -3498231.61745  24152069.600    24152078.7214
 01  7 19 16 46 30.0000000  0  9 18 26 17 15 06 23 22 21 03
  20860088.889    -7333765.923 9  -5709891.05447  20860088.481    20860094.6834
  22020217.059    -3512830.996 8  -2738014.57846  22020217.221    22020224.9334
  20368225.911    -1984540.685 9  -1552907.86247  20368225.511    20368232.5684
  20532049.665    -4655916.669 9  -3628647.74347  20532049.008    20532056.3104
  21485457.646     4423155.537 9   3432009.16347  21485457.557    21485465.2324
  20579645.851    -3329729.461 9  -2596084.06447  20579645.438    20579652.5134
  22879990.808     -774198.277 8   -608381.92446  22879990.132    22879998.7644
  23694932.755    -9267794.300 8  -7107304.84346  23694932.549    23694943.0874
  24132846.215    -4605980.741 8  -3576948.22845  24132846.228    24132855.2464
 01  7 19 16 47  0.0000000  0  9 18 26 17 15 06 23 22 21 03
  20849444.177    -7389704.060 9  -5753479.18447  20849443.770    20849449.9664
  22019230.737    -3518014.146 8  -2742053.38546  22019230.884    22019238.6364
  20367585.083    -1987908.373 9  -1555532.04147  20367584.655    20367591.6944
  20525825.697    -4688623.731 9  -3654133.76047  20525825.067    20525832.3644
  21499572.639     4497329.490 9   3489806.99947  21499572.436    21499580.0924
  20577925.855    -3338768.291 9  -2603127.30348  20577925.399    20577932.4554
  22884374.181     -751163.637 8   -590432.89946  22884373.508    22884382.1744
  23677854.939    -9357538.237 8  -7177235.09646  23677854.792    23677865.3134
  24113647.279    -4706871.848 8  -3655564.62445  24113647.259    24113656.1174
 01  7 19 16 47 30.0000000  0  9 18 26 17 15 06 23 22 21 03
  20838886.030    -7445187.308 9  -5796712.85047  20838885.630    20838891.8374
  22018366.421    -3522556.495 8  -2745592.87146  22018366.532    22018374.1714
  20366996.510    -1991001.400 9  -1557942.19447  20366996.092    20367003.1254
  20519656.369    -4721043.783 9  -3679396.12847  20519655.738    20519663.0414
  21513761.585     4571892.593 9   3547908.06147  21513761.463    21513769.1014
  20576294.385    -3347341.593 9  -2609807.79548  20576293.938    20576300.9924
  22888858.273     -727600.191 8   -572071.81846  22888857.524    22888866.1654
  23660814.135    -9447088.500 8  -7247014.42346  23660813.909    23660824.4204
  24094473.178    -4807632.677 8  -3734079.52845  24094472.883    24094482.0044
 01  7 19 16 48  0.0000000  0  9 18 26 17 15 06 23 22 21 03
  20828414.702    -7500214.446 9  -5839591.11747  20828414.309    20828420.5194
  22017624.139    -3526457.274 8  -2748632.43346  22017624.286    22017631.8834
  20366460.328    -1993819.184 9  -1560137.87447  20366459.883    20366466.9234
  20513541.772    -4753176.009 9  -3704434.21547  20513541.161    20513548.4684
  21528024.320     4646843.930 9   3606311.62747  21528024.188    21528031.9044
  20574751.453    -3355449.706 9  -2616125.80048  20574751.036    20574758.0724
  22893442.686     -703509.066 8   -553299.57146  22893441.949    22893450.5894
  23643810.308    -9536443.433 8  -7316641.54746  23643810.121    23643820.6234
  24075324.418    -4908260.694 7  -3812490.92745  24075324.051    24075333.1224
 01  7 19 16 48 30.0000000  0  9 18 26 17 15 06 23 22 21 03
  20818030.264    -7554784.810 9  -5882113.44847  20818029.898    20818036.1054
  22017004.164    -3529715.661 8  -2751171.40846  22017004.265    22017011.7904
  20365976.523    -1996361.694 9  -1562119.06047  20365976.068    20365983.1094
  20507482.067    -4785019.904 9  -3729247.63447  20507481.476    20507488.7744
  21542360.882     4722182.344 8   3665016.82347  21542360.714    21542368.4034
  20573296.888    -3363093.277 9  -2622081.82648  20573296.483    20573303.5364
  22898127.194     -678892.145 8   -534117.59846  22898126.437    22898135.0854
  23626844.141    -9625601.306 8  -7386115.10746  23626843.916    23626854.3994
  24056201.125    -5008753.605 7  -3890797.06245  24056200.889    24056209.8404
 01  7 19 16 49  0.0000000  0  9 18 26 17 15 06 23 22 21 03
  20807732.971    -7608897.359 9  -5924279.04547  20807732.586    20807738.7844
  22016506.436    -3532331.487 8  -2753209.71146  22016506.510    22016514.0454
  20365545.099    -1998628.840 9  -1563885.67647  20365544.637    20365551.6834
  20501477.254    -4816575.415 9  -3753836.33547  20501476.653    20501483.9524
  21556770.668     4797906.339 9   3724022.46747  21556770.608    21556778.2254
  20571930.580    -3370273.098 9  -2627676.49048  20571930.219    20571937.2504
  22902911.521     -653751.176 8   -514527.29146  22902910.645    22902919.2664
  23609915.598    -9714561.032 8  -7455434.27246  23609915.316    23609925.7734
  24037104.179    -5109109.384 7  -3968996.29045  24037103.710    24037112.7204
 01  7 19 16 49 30.0000000  0  9 18 26 17 15 06 23 22 21 03
  20797523.080    -7662550.618 9  -5966086.75447  20797522.715    20797528.8914
  22016131.011    -3534303.601 8  -2754746.40546  22016131.139    22016138.7354
  20365166.195    -2000620.127 9  -1565437.34047  20365165.729    20365172.7614
  20495527.445    -4847841.854 9  -3778199.79047  20495526.832    20495534.1104
  21571253.718     4874015.118 9   3783327.92847  21571253.621    21571261.3624
  20570652.526    -3376989.354 9  -2632909.93648  20570652.164    20570659.1984
  22907795.236     -628086.776 8   -494529.11046  22907794.414    22907803.0904
  23593025.042    -9803321.516 8  -7524598.19746  23593024.689    23593035.1444
  24018033.481    -5209325.290 7  -4047086.53345  24018033.261    24018042.3174
 01  7 19 16 50  0.0000000  0  9 18 26 17 15 06 23 22 21 03
  20787400.638    -7715744.208 9  -6007536.27647  20787400.292    20787406.4674
  22015878.274    -3535631.931 8  -2755781.46546  22015878.365    22015885.9474
  20364839.754    -2002335.523 9  -1566774.01947  20364839.325    20364846.3684
  20489632.745    -4878818.931 9  -3802337.76247  20489632.113    20489639.3924
  21585809.827     4950507.114 8   3842932.03347  21585809.655    21585817.2864
  20569462.469    -3383242.885 9  -2637782.81548  20569462.128    20569469.1754
  22912778.260     -601900.326 8   -474124.13246  22912777.595    22912786.3034
  23576172.516    -9891881.390 8  -7593605.79446  23576172.256    23576182.6814
  23998989.827    -5309399.518 7  -4125066.39145  23998989.625    23998998.8234
 01  7 19 16 50 30.0000000  0  9 18 26 17 15 06 23 22 21 03
  20777365.933    -7768477.442 9  -6048627.08147  20777365.499    20777371.6594
  22015748.045    -3536315.973 8  -2756314.48446  22015748.125    22015755.6994
  20364565.809    -2003775.016 9  -1567895.71547  20364565.375    20364572.4214
  20483793.099    -4909506.362 9  -3826250.03947  20483792.476    20483799.7334
  21600438.448     5027380.757 9   3902833.49347  21600438.337    21600446.0224
  20568360.400    -3389034.445 9  -2642295.71748  20568360.061    20568367.0964
  22917860.392     -575193.662 8   -453313.79646  22917859.796    22917868.4994
  23559358.424    -9980239.859 8  -7662456.45546  23559358.156    23559368.5424
  23979973.796    -5409329.845 8  -4202934.12045  23979973.499    23979982.4684
 01  7 19 16 51  0.0000000  0  9 18 26 17 15 06 23 22 21 03
  20767418.665    -7820750.245 9  -6089359.10447  20767418.276    20767424.4334
  22015740.424    -3536355.876 8  -2756345.55446  22015740.540    22015748.1934
  20364344.348    -2004938.896 9  -1568802.64647  20364343.928    20364350.9764
  20478008.519    -4939904.372 9  -3849936.78947  20478007.920    20478015.1814
  21615139.277     5104634.259 9   3963030.95947  21615139.180    21615146.8834
  20567345.958    -3394365.347 9  -2646449.66048  20567345.613    20567352.6734
  22923041.092     -547969.511 8   -432100.22146  22923040.489    22923049.2074
  23542582.813   -10068395.941 8  -7731149.39946  23542582.480    23542592.8584
  23960985.512    -5509114.508 8  -4280688.33445  23960985.095    23960994.0424
 01  7 19 16 51 30.0000000  0  9 18 26 17 15 06 23 22 21 03
  20757559.390    -7872561.087 9  -6129731.16047  20757558.981    20757565.1434
  22015855.528    -3535750.646 8  -2755873.92946  22015855.651    22015863.3454
  20364175.471    -2005826.373 9  -1569494.20147  20364175.035    20364182.0994
  20472279.218    -4970012.002 9  -3873397.27747  20472278.656    20472285.9054
  21629912.339     5182266.775 8   4023523.76047  21629912.194    21629919.9804
  20566419.181    -3399235.646 9  -2650244.69848  20566418.834    20566425.8564
  22928320.056     -520228.394 8   -410483.82846  22928319.434    22928328.1324
  23525846.001   -10156347.858 8  -7799683.28046  23525845.726    23525856.0704
  23942025.328    -5608750.515 8  -4358326.73045  23942024.881    23942033.7354
 01  7 19 16 52  0.0000000  0  9 18 26 17 15 06 23 22 21 03
  20747788.169    -7923909.181 9  -6169742.63947  20747787.745    20747793.9014
  22016093.563    -3534499.922 8  -2754899.31746  22016093.686    22016101.3284
  20364059.237    -2006437.336 9  -1569970.28547  20364058.756    20364065.8444
  20466605.243    -4999828.911 9  -3896631.22347  20466604.664    20466611.9274
  21644757.206     5260276.927 8   4084310.82347  21644757.116    21644764.8624
  20565580.000    -3403645.873 9  -2653681.23748  20565579.605    20565586.6174
  22933697.213     -491971.409 8   -388465.45446  22933696.542    22933705.3484
  23509148.438   -10244094.357 8  -7868057.07246  23509148.005    23509158.3974
  23923093.861    -5708235.612 7  -4435847.53845  23923093.497    23923102.3894
 01  7 19 16 52 30.0000000  0  9 18 26 17 15 06 23 22 21 03
  20738105.119    -7974793.940 9  -6209393.07647  20738104.709    20738110.8454
  22016454.446    -3532603.652 8  -2753421.67546  22016454.576    22016462.1724
  20363995.552    -2006771.906 9  -1570231.00447  20363995.109    20364002.1934
  20460986.650    -5029354.958 9  -3919638.52147  20460986.054    20460993.3254
  21659673.595     5338662.971 8   4145390.77947  21659673.470    21659681.3394
  20564828.093    -3407597.278 9  -2656760.25448  20564827.666    20564834.6844
  22939172.071     -463200.619 8   -366046.71946  22939171.452    22939180.3134
  23492490.022   -10331634.602 8  -7936270.17246  23492489.558    23492499.9824
  23904191.362    -5807567.941 7  -4513249.31045  23904191.223    23904200.0334
 01  7 19 16 53  0.0000000  0  9 18 26 17 15 06 23 22 21 03
  20728510.329    -8025214.764 9  -6248682.00347  20728509.941    20728516.0524
  22016938.209    -3530061.575 8  -2751440.82346  22016938.320    22016945.8914
  20363984.510    -2006829.920 9  -1570276.22247  20363984.097    20363991.1684
  20455423.457    -5058589.690 9  -3942418.82247  20455422.856    20455430.1244
  21674661.368     5417423.643 8   4206762.66747  21674661.194    21674669.0284
  20564163.300    -3411090.609 9  -2659482.32548  20564162.906    20564169.9284
  22944744.429     -433918.044 8   -343229.20346  22944743.815    22944752.6504
  23475870.949   -10418967.381 8  -8004321.58146  23475870.582    23475880.9954
  23885318.264    -5906745.194 8  -4590530.20245  23885318.368    23885327.1804
 01  7 19 16 53 30.0000000  0  9 18 26 17 15 06 23 22 21 03
  20719003.917    -8075171.009 9  -6287608.91947  20719003.562    20719009.6654
  22017544.851    -3526873.363 8  -2748956.48246  22017544.991    22017552.5084
  20364026.130    -2006611.282 9  -1570105.87247  20364025.708    20364032.8064
  20449915.797    -5087532.698 9  -3964971.80347  20449915.188    20449922.4434
  21689719.995     5496557.323 8   4268425.20447  21689719.959    21689727.7894
  20563585.583    -3414126.740 9  -2661848.14348  20563585.166    20563592.1924
  22950413.820     -404125.463 8   -320014.26346  22950413.259    22950422.0214
  23459291.587   -10506091.697 8  -8072210.56246  23459291.341    23459301.7414
  23866475.671    -6005765.019 8  -4667688.46245  23866475.443    23866484.3404
 01  7 19 16 54  0.0000000  0  9 18 26 17 15 06 23 22 21 03
  20709586.130    -8124661.957 9  -6326173.27447  20709585.732    20709591.8184
  22018274.462    -3523039.250 8  -2745968.84446  22018274.616    22018282.1554
  20364120.376    -2006115.955 9  -1569719.91647  20364119.953    20364127.0794
  20444463.628    -5116183.859 9  -3987297.37147  20444463.033    20444470.3064
  21704849.414     5576062.450 8   4330377.17647  21704849.265    21704857.1544
  20563094.608    -3416706.714 9  -2663858.51048  20563094.206    20563101.2344
  22956179.984     -373824.405 8   -296403.12346  22956179.368    22956188.1824
  23442752.091   -10593007.281 8  -8139936.89146  23442751.771    23442762.1264
  23847663.340    -6104625.425 8  -4744722.49545  23847662.887    23847671.7944
 01  7 19 16 54 30.0000000  0  9 18 26 17 15 06 23 22 21 03
  20700256.900    -8173687.247 9  -6364374.77247  20700256.531    20700262.5984
  22019127.086    -3518558.681 8  -2742477.47346  22019127.196    22019134.7654
  20364267.336    -2005343.754 9  -1569118.21247  20364266.911    20364274.0384
  20439067.079    -5144542.850 9  -4009395.27747  20439066.509    20439073.7544
  21720049.298     5655937.866 8   4392617.68847  21720049.143    21720057.0254
  20562690.348    -3418831.074 9  -2665513.85348  20562689.966    20562696.9994
  22962042.538     -343016.177 8   -272396.77146  22962041.938    22962050.8654
  23426252.821   -10679712.207 8  -8207499.08246  23426252.313    23426262.6494
  23828881.590    -6203323.855 8  -4821630.30545  23828881.159    23828890.0644
 01  7 19 16 55  0.0000000  0  9 18 26 17 15 06 23 22 21 03
  20691016.547    -8222245.559 9  -6402212.39547  20691016.178    20691022.2414
  22020102.788    -3513431.191 8  -2738482.00246  22020102.930    22020110.4814
  20364467.092    -2004294.093 9  -1568300.30647  20364466.683    20364473.8014
  20433726.236    -5172609.081 9  -4031265.05947  20433725.656    20433732.9154
  21735319.278     5736182.273 8   4455145.71947  21735319.171    21735327.0314
  20562372.751    -3420500.320 9  -2666814.56448  20562372.306    20562379.3304
  22968001.366     -311702.347 8   -247996.45546  22968000.904    22968009.7424
  23409793.733   -10766204.780 8  -8274895.79246  23409793.218    23409803.4844
  23810131.077    -6301857.745 8  -4898409.91845  23810130.780    23810139.6754
 01  7 19 16 55 30.0000000  0  9 18 26 17 15 06 23 22 21 03
  20681865.151    -8270336.423 9  -6439685.77247  20681864.763    20681870.8324
  22021201.578    -3507656.879 8  -2733982.51646  22021201.739    22021209.3714
  20364719.636    -2002967.063 9  -1567266.27547  20364719.208    20364726.3104
  20428441.172    -5200382.197 9  -4052906.44247  20428440.615    20428447.8624
  21750659.395     5816794.127 8   4517960.07047  21750659.222    21750667.0564
  20562141.506    -3421715.564 9  -2667761.50448  20562141.066    20562148.0854
  22974056.181     -279885.319 8   -223204.04746  22974055.572    22974064.3434
  23393375.070   -10852484.522 8  -8342126.68446  23393374.694    23393384.8794
  23791412.443    -6400224.963 8  -4975059.62345  23791412.048    23791421.0274
 01  7 19 16 56  0.0000000  0  9 18 26 17 15 06 23 22 21 03
  20672802.783    -8317959.470 9  -6476794.61547  20672802.377    20672808.4474
  22022423.556    -3501235.558 8  -2728978.86946  22022423.713    22022431.2404
  20365024.981    -2001362.635 9  -1566016.09047  20365024.547    20365031.6414
  20423211.975    -5227861.943 9  -4074319.22347  20423211.405    20423218.6444
  21766068.902     5897771.851 8   4581059.52047  21766068.784    21766076.6674
  20561996.477    -3422477.690 9  -2668355.36548  20561996.026    20562003.0544
  22980206.282     -247566.731 8   -198020.80346  22980205.575    22980214.5084
  23376997.189   -10938550.523 8  -8409191.00246  23376996.831    23377006.9654
  23772725.840    -6498423.459 8  -5051577.86045  23772725.424    23772734.4324
 01  7 19 16 56 30.0000000  0  9 18 26 17 15 06 23 22 21 03
  20663829.564    -8365113.940 9  -6513538.33447  20663829.169    20663835.2274
  22023768.625    -3494167.345 8  -2723471.14646  22023768.732    22023776.1714
  20365383.187    -1999480.374 9  -1564549.40147  20365382.759    20365389.8824
  20418038.686    -5255047.934 9  -4095503.10447  20418038.076    20418045.3174
  21781547.865     5979114.132 8   4644443.03647  21781547.748    21781555.6854
  20561937.580    -3422787.551 9  -2668596.80948  20561937.087    20561944.1034
  22986451.552     -214747.847 8   -172447.71446  22986450.831    22986459.7424
  23360660.532   -11024401.155 8  -8476087.51046  23360659.972    23360670.0474
  23754071.818    -6596450.980 8  -5127962.87845  23754071.418    23754080.4224
 01  7 19 16 57  0.0000000  0  9 18 26 17 15 06 23 22 21 03
  20654945.573    -8411799.672 9  -6549916.80947  20654945.169    20654951.2114
  22025236.602    -3486452.565 8  -2717459.59346  22025236.746    22025244.1824
  20365794.141    -1997320.861 9  -1562866.67747  20365793.704    20365800.8164
  20412921.226    -5281940.331 9  -4116458.20947  20412920.599    20412927.8324
  21797095.881     6060818.920 8   4708109.03047  21797095.754    21797103.6334
  20561964.449    -3422646.481 9  -2668486.88048  20561963.909    20561970.9354
  22992791.720     -181430.847 8   -146486.49746  22992790.893    22992799.8344
  23344364.787   -11110035.947 8  -8542815.82846  23344364.133    23344374.1824
  23735450.632    -6694305.667 8  -5204213.22145  23735450.260    23735459.1834
 01  7 19 16 57 30.0000000  0  9 18 26 17 15 06 23 22 21 03
  20646151.028    -8458015.471 9  -6585929.09948  20646150.587    20646156.6354
  22026827.958    -3478090.586 8  -2710943.74646  22026828.094    22026835.4304
  20366257.984    -1994883.238 9  -1560967.23847  20366257.573    20366264.6944
  20407859.791    -5308538.171 9  -4137183.79347  20407859.213    20407866.4274
  21812712.649     6142885.196 8   4772056.69447  21812712.493    21812720.3874
  20562077.019    -3422054.951 9  -2668025.94748  20562076.491    20562083.4984
  22999226.256     -147617.431 8   -120138.44746  22999225.507    22999234.3534
  23328110.337   -11195453.331 8  -8609374.74746  23328109.686    23328119.6884
  23716862.966    -6791984.510 8  -5280326.53645  23716862.618    23716871.5014
 01  7 19 16 58  0.0000000  0  9 18 26 17 15 06 23 22 21 03
  20637445.895    -8503760.810 9  -6621574.79548  20637445.514    20637451.5434
  22028542.294    -3469081.649 8  -2703923.76846  22028542.427    22028549.7654
  20366774.815    -1992167.356 9  -1558850.97647  20366774.386    20366781.5174
  20402854.500    -5334841.201 9  -4157679.65147  20402853.908    20402861.1284
  21828397.800     6225311.442 8   4836284.85347  21828397.704    21828405.6284
  20562275.094    -3421013.922 9  -2667214.75148  20562274.574    20562281.5834
  23005754.745     -113309.730 8    -93405.24646  23005754.147    23005762.9604
  23311897.374   -11280652.175 8  -8675763.33946  23311896.791    23311906.8094
  23698309.017    -6889485.159 8  -5356301.01445  23698308.852    23698317.6674
 01  7 19 16 58 30.0000000  0  9 18 26 17 15 06 23 22 21 03
  20628830.420    -8549035.481 9  -6656853.73848  20628830.018    20628836.0504
  22030379.730    -3459425.641 8  -2696399.58146  22030379.835    22030387.2504
  20367344.627    -1989173.096 9  -1556517.79647  20367344.211    20367351.3374
  20397905.360    -5360849.026 9  -4177945.48347  20397904.774    20397911.9924
  21844151.203     6308095.969 8   4900792.19247  21844151.119    21844159.1124
  20562558.564    -3419524.149 9  -2666053.88348  20562558.067    20562565.0954
  23012377.262      -78509.188 8    -66288.00746  23012376.553    23012385.3014
  23295726.237   -11365631.426 8  -8741980.85146  23295725.665    23295735.7034
  23679789.479    -6986805.279 8  -5432134.80645  23679789.353    23679798.2184
 01  7 19 16 59  0.0000000  0  9 18 26 17 15 06 23 22 21 03
  20620304.592    -8593838.821 9  -6691765.40648  20620304.200    20620310.2444
  22032340.153    -3449122.833 8  -2688371.39946  22032340.308    22032347.7854
  20367967.379    -1985900.394 9  -1553967.64847  20367966.980    20367974.1114
  20393012.442    -5386561.450 9  -4197981.13447  20393011.852    20393019.0734
  21859972.489     6391237.240 8   4965577.52547  21859972.426    21859980.4534
  20562927.194    -3417586.742 9  -2664544.21248  20562926.732    20562933.7464
  23019093.249      -43217.476 8    -38788.03546  23019092.404    23019101.1804
  23279597.058   -11450390.170 8  -8808026.53146  23279596.561    23279606.5264
  23661304.767    -7083942.688 8  -5507826.23645  23661304.600    23661313.5484
 01  7 19 16 59 30.0000000  0  9 18 26 17 15 06 23 22 21 03
  20611868.564    -8638170.367 9  -6726309.44648  20611868.171    20611874.2034
  22034423.699    -3438173.235 8  -2679839.22646  22034423.866    22034431.4254
  20368643.185    -1982349.201 9  -1551200.49547  20368642.772    20368649.8914
  20388175.803    -5411978.048 9  -4217786.26847  20388175.220    20388182.4414
  21875861.396     6474733.668 8   5030639.58747  21875861.266    21875869.4314
  20563380.863    -3415202.711 9  -2662686.51848  20563380.408    20563387.4104
  23025902.181       -7436.580 8    -10906.88746  23025901.290    23025910.0954
  23263509.891   -11534927.776 8  -8873899.89046  23263509.517    23263519.5044
  23642855.208    -7180895.150 8  -5583373.57145  23642855.171    23642863.9334
 01  7 19 17  0  0.0000000  0  9 18 26 17 15 06 23 22 21 03
  20603522.427    -8682029.651 9  -6760485.49248  20603522.028    20603528.0674
  22036630.447    -3426577.192 8  -2670803.33446  22036630.558    22036638.0754
  20369372.048    -1978519.120 9  -1548216.02247  20369371.598    20369378.7454
  20383395.577    -5437098.314 9  -4237360.49647  20383395.009    20383402.2014
  21891817.584     6558583.424 8   5095976.98447  21891817.430    21891825.5824
  20563919.358    -3412373.031 9  -2660481.56748  20563918.895    20563925.8774
  23032803.667       28831.077 8     17353.55646  23032802.772    23032811.6944
  23247465.259   -11619242.841 8  -8939599.84646  23247464.825    23247474.7954
  23624441.322    -7277660.371 8  -5658774.98245  23624441.370    23624450.0534
 01  7 19 17  0 30.0000000  0  9 18 26 17 15 06 23 22 21 03
  20595266.155    -8725416.384 9  -6794293.31148  20595265.754    20595271.7954
  22038960.054    -3414334.946 8  -2661263.90246  22038960.116    22038967.7114
  20370153.909    -1974410.496 9  -1545014.50447  20370153.486    20370160.6044
  20378671.799    -5461922.065 9  -4256703.67147  20378671.200    20378678.3924
  21907840.659     6642784.876 8   5161588.41947  21907840.577    21907848.6764
  20564542.420    -3409098.817 9  -2657930.22048  20564541.924    20564548.9284
  23039797.437       65583.329 8     45991.60746  23039796.551    23039805.5154
  23231463.065   -11703334.382 8  -9005125.62646  23231462.663    23231472.6364
  23606063.561    -7374236.168 8  -5734028.79745  23606063.472    23606072.2594
 01  7 19 17  1  0.0000000  0  9 18 26 17 15 06 23 22 21 03
  20587099.996    -8768329.823 9  -6827732.33248  20587099.598    20587105.6504
  22041412.662    -3401446.416 8  -2651220.87846  22041412.767    22041420.2904
  20370988.857    -1970022.668 9  -1541595.43147  20370988.448    20370995.5814
  20374004.457    -5486448.882 9  -4275815.46947  20374003.891    20374011.0924
  21923930.465     6727336.712 8   5227472.88847  21923930.309    21923938.4294
  20565249.912    -3405380.951 9  -2655033.17348  20565249.414    20565256.4144
  23046883.161      102818.990 8     75006.35946  23046882.305    23046891.4164
  23215503.536   -11787201.644 8  -9070476.64846  23215503.222    23215513.1524
  23587722.405    -7470619.851 8  -5809132.90645  23587722.200    23587730.9484
 01  7 19 17  1 30.0000000  0  9 18 26 17 15 06 23 22 21 03
  20579024.001    -8810769.431 9  -6860802.13248  20579023.598    20579029.6424
  22043988.160    -3387911.942 8  -2640674.53046  22043988.265    22043995.7874
  20371877.013    -1965355.586 9  -1537958.75447  20371876.603    20371883.7324
  20369393.767    -5510678.511 9  -4294695.69147  20369393.153    20369400.3604
  21940086.521     6812237.206 8   5293629.03347  21940086.464    21940094.5684
  20566041.634    -3401220.338 9  -2651791.12948  20566041.166    20566048.1844
  23054060.582      140536.314 8    104396.41546  23054059.717    23054068.7624
  23199587.000   -11870843.339 8  -9135651.90746  23199586.660    23199596.5614
  23569418.197    -7566809.106 8  -5884085.53645  23569417.992    23569426.6364
 01  7 19 17  2  0.0000000  0  9 18 26 17 15 06 23 22 21 03
  20571038.174    -8852735.164 9  -6893502.68448  20571037.757    20571043.7844
  22046686.424    -3373731.976 8  -2629625.20346  22046686.567    22046694.1224
  20372818.289    -1960409.234 9  -1534104.46347  20372817.842    20372824.9894
  20364839.620    -5534610.619 9  -4313344.08847  20364839.035    20364846.2214
  21956308.646     6897484.789 8   5360055.63247  21956308.564    21956316.7254
  20566917.365    -3396618.055 9  -2648204.93048  20566916.950    20566923.9394
  23061329.259      178732.747 8    134159.79746  23061328.364    23061337.3624
  23183713.500   -11954258.634 8  -9200650.74146  23183713.159    23183723.0524
  23551151.297    -7662801.776 8  -5958884.98445  23551151.137    23551159.7864
 01  7 19 17  2 30.0000000  0  9 18 26 17 15 06 23 22 21 03
  20563142.729    -8894226.003 9  -6925833.18648  20563142.333    20563148.3404
  22049507.566    -3358906.152 8  -2618072.61246  22049507.773    22049515.3634
  20373812.831    -1955182.842 9  -1530031.95447  20373812.403    20373819.5524
  20360342.268    -5558244.465 9  -4331760.06647  20360341.649    20360348.8474
  21972596.648     6983078.325 8   5426751.81347  21972596.518    21972604.7604
  20567877.124    -3391574.845 9  -2644275.14648  20567876.655    20567883.6284
  23068688.673      217406.410 8    164295.05546  23068687.830    23068696.8034
  23167883.506   -12037445.611 8  -9265471.67046  23167883.099    23167893.0294
  23532922.347    -7758595.019 8  -6033529.01345  23532922.308    23532930.9224
 01  7 19 17  3  0.0000000  0  9 18 26 17 15 06 23 22 21 03
  20555337.665    -8935241.810 9  -6957793.53048  20555337.256    20555343.2614
  22052451.704    -3343435.022 8  -2606017.18946  22052451.875    22052459.4044
  20374860.658    -1949676.421 9  -1525741.24647  20374860.268    20374867.4024
  20355901.697    -5581579.798 9  -4349943.43547  20355901.083    20355908.2894
  21988950.049     7069015.770 8   5493715.97146  21988949.966    21988958.1554
  20568920.585    -3386091.968 9  -2640002.76548  20568920.033    20568926.9934
  23076138.470      256555.332 8    194800.63646  23076137.723    23076146.6894
  23152097.010   -12120404.214 8  -9330114.64146  23152096.528    23152106.4684
  23514731.857    -7854186.780 8  -6108016.05345  23514731.721    23514740.3034
 01  7 19 17  3 30.0000000  0  9 18 26 17 15 06 23 22 21 03
  20547622.998    -8975782.435 9  -6989383.60548  20547622.617    20547628.6024
  22055518.452    -3327319.373 8  -2593459.55346  22055518.652    22055526.1594
  20375961.713    -1943890.324 9  -1521232.61347  20375961.316    20375968.4774
  20351517.932    -5604616.651 9  -4367894.22447  20351517.308    20351524.5114
  22005368.499     7155295.095 8   5560946.52546  22005368.350    22005376.6204
  20570047.384    -3380170.742 9  -2635388.81048  20570046.773    20570053.7254
  23083678.376      296177.671 8    225675.11146  23083677.623    23083686.5904
  23136354.171   -12203133.189 8  -9394578.68346  23136353.655    23136363.5974
  23496579.855    -7949574.922 8  -6182344.42545  23496579.936    23496588.5224
 01  7 19 17  4  0.0000000  0  9 18 26 17 15 06 23 22 21 03
  20539998.834    -9015847.606 9  -7020603.19648  20539998.455    20540004.4464
  22058707.809    -3310559.626 8  -2580400.01246  22058707.964    22058715.4314
  20377116.068    -1937824.239 9  -1516505.80347  20377115.686    20377122.8284
  20347191.087    -5627354.410 9  -4385611.95147  20347190.453    20347197.6754
  22021851.795     7241914.679 8   5628442.22846  22021851.600    22021859.9134
  20571257.312    -3373812.273 9  -2630434.15548  20571256.745    20571263.7034
  23091307.973      336271.192 8    256916.73246  23091307.150    23091316.2264
  23120655.205   -12285631.491 8  -9458862.98446  23120654.694    23120664.6264
  23478467.380    -8044757.125 8  -6256512.34645  23478467.326    23478475.8764
 01  7 19 17  4 30.0000000  0  9 18 26 17 15 06 23 22 21 03
  20532465.159    -9055437.274 9  -7051452.26448  20532464.770    20532470.7614
  22062019.574    -3293156.226 8  -2566838.91746  22062019.702    22062027.2394
  20378323.666    -1931478.237 9  -1511560.87247  20378323.250    20378330.4204
  20342921.174    -5649792.814 9  -4403096.41047  20342920.569    20342927.7694
  22038399.441     7328872.834 8   5696201.74246  22038399.253    22038407.6104
  20572550.229    -3367017.708 9  -2625139.68348  20572549.700    20572556.6734
  23099026.804      376833.298 8    288523.49746  23099025.937    23099034.9934
  23105000.209   -12367898.573 8  -9522967.10246  23104999.672    23105009.5864
  23460394.448    -8139731.100 8  -6330517.96945  23460394.367    23460402.9334
 01  7 19 17  5  0.0000000  0  9 18 26 17 15 06 23 22 21 03
  20525022.095    -9094550.826 9  -7081930.33748  20525021.703    20525027.7054
  22065453.771    -3275109.664 8  -2552776.66346  22065453.924    22065461.3404
  20379584.611    -1924852.022 9  -1506397.59747  20379584.197    20379591.3704
  20338708.270    -5671931.669 9  -4420347.45647  20338707.676    20338714.8694
  22055011.240     7416167.900 8   5764223.79246  22055011.004    22055019.3174
  20573925.964    -3359788.052 9  -2619506.17848  20573925.458    20573932.4514
  23106834.459      417861.744 8    320493.66646  23106833.502    23106842.5984
  23089389.477   -12449933.593 8  -9586890.40046  23089388.919    23089398.7924
  23442361.517    -8234494.255 8  -6404359.34445  23442361.491    23442370.0684
 01  7 19 17  5 30.0000000  0  9 18 26 17 15 06 23 22 21 03
  20517669.756    -9133187.524 9  -7112036.83448  20517669.343    20517675.3484
  22069010.353    -3256419.944 8  -2538213.24246  22069010.462    22069017.8614
  20380899.000    -1917944.974 9  -1501015.49247  20380898.577    20380905.7374
  20334552.492    -5693770.384 9  -4437364.62948  20334551.913    20334559.1004
  22071686.892     7503798.454 8   5832507.25246  22071686.689    22071695.0094
  20575384.443    -3352124.086 9  -2613534.24948  20575383.858    20575390.8214
  23114730.406      459355.494 8    352826.36746  23114729.545    23114738.6624
  23073823.041   -12531735.063 8  -9650631.71946  23073822.555    23073832.3974
  23424369.359    -8329043.769 8  -6478034.23745  23424369.237    23424377.8554
 01  7 19 17  6  0.0000000  0  9 18 26 17 15 06 23 22 21 03
  20510408.147    -9171347.362 9  -7141771.75248  20510407.780    20510413.7644
  22072689.165    -3237087.651 8  -2523149.12446  22072689.285    22072696.6674
  20382266.824    -1910757.110 9  -1495414.56547  20382266.391    20382273.5624
  20330453.859    -5715308.720 9  -4454147.74148  20330453.300    20330460.4874
  22088426.007     7591762.839 8   5901050.84046  22088425.780    22088434.1484
  20576925.286    -3344027.004 9  -2607224.82948  20576924.671    20576931.6354
  23122714.549      501312.458 8    385520.01946  23122713.709    23122722.8394
  23058301.252   -12613302.363 8  -9714190.55946  23058300.721    23058310.5404
  23406418.237    -8423377.675 8  -6551541.12645  23406418.084    23406426.6784
 01  7 19 17  6 30.0000000  0  9 18 26 17 15 06 23 22 21 03
  20503237.322    -9209030.124 9  -7171134.91648  20503236.964    20503242.9374
  22076490.070    -3217113.416 8  -2507584.79746  22076490.224    22076497.6244
  20383688.051    -1903288.371 9  -1489594.77047  20383687.637    20383694.8204
  20326412.513    -5736546.084 9  -4470696.32648  20326411.948    20326419.1294
  22105228.321     7680059.202 8   5969853.13146  22105228.099    22105236.5054
  20578548.200    -3335498.161 9  -2600578.97048  20578547.648    20578554.6304
  23130786.212      543729.954 8    418572.56746  23130785.440    23130794.7474
  23042824.351   -12694634.089 8  -9777565.84146  23042823.735    23042833.5194
  23388508.732    -8517493.734 8  -6624878.26245  23388508.403    23388516.9494
 01  7 19 17  7  0.0000000  0  9 18 26 17 15 06 23 22 21 03
  20496157.429    -9246235.157 9  -7200125.82948  20496157.076    20496163.0464
  22080413.160    -3196497.640 8  -2491520.56946  22080413.268    22080420.7274
  20385162.827    -1895538.358 9  -1483555.80647  20385162.426    20385169.6034
  20322428.533    -5757482.055 9  -4487010.05548  20322427.966    20322435.1474
  22122093.398     7768685.772 8   6038912.69246  22122093.194    22122101.6604
  20580253.088    -3326538.504 9  -2593597.41948  20580252.588    20580259.5494
  23138945.261      586605.716 8    451982.17146  23138944.512    23138953.8074
  23027392.237   -12775729.434 8  -9840756.93446  23027391.749    23027401.5054
  23370640.979    -8611389.221 8  -6698043.52445  23370640.652    23370649.1844
 01  7 19 17  7 30.0000000  0  9 18 26 17 15 06 23 22 21 03
  20489168.470    -9282962.356 9  -7228744.40248  20489168.114    20489174.0654
  22084458.159    -3175240.979 8  -2474956.95346  22084458.248    22084465.7184
  20386691.192    -1887506.776 9  -1477297.43847  20386690.808    20386697.9634
  20318501.995    -5778116.247 9  -4503088.64148  20318501.384    20318508.5804
  22139021.090     7857641.015 8   6108228.38846  22139020.884    22139029.4114
  20582039.843    -3317149.138 9  -2586281.02348  20582039.351    20582046.3054
  23147191.312      629937.851 8    485747.37346  23147190.374    23147199.7184
  23012005.236   -12856587.641 8  -9903763.24446  23012004.851    23012014.5974
  23352815.479    -8705061.870 8  -6771035.15745  23352815.292    23352823.8564
 01  7 19 17  8  0.0000000  0  9 18 26 17 15 06 23 22 21 03
  20482270.488    -9319211.295 9  -7256990.31048  20482270.139    20482276.0934
  22088625.038    -3153343.544 8  -2457894.02346  22088625.143    22088632.6534
  20388273.288    -1879193.235 9  -1470819.36447  20388272.852    20388279.9914
  20314632.970    -5798448.073 9  -4518931.61648  20314632.383    20314639.5564
  22156010.997     7946923.448 8   6177799.03246  22156010.833    22156019.3824
  20583908.202    -3307330.894 9  -2578630.43948  20583907.687    20583914.6594
  23155523.642      673724.948 8    519867.10546  23155522.825    23155532.1424
  22996663.744   -12937207.691 8  -9966583.98846  22996663.302    22996673.0334
  23335033.050    -8798508.941 8  -6843851.00545  23335032.893    23335041.4134
 01  7 19 17  8 30.0000000  0  9 18 26 17 15 06 23 22 21 03
  20475463.503    -9354982.114 9  -7284863.65448  20475463.152    20475469.1204
  22092913.644    -3130806.576 8  -2440332.74846  22092913.714    22092921.2594
  20389908.870    -1870598.060 9  -1464121.82647  20389908.470    20389915.6124
  20310821.511    -5818477.525 9  -4534538.97148  20310820.891    20310828.0754
  22173062.686     8036530.800 8   6247622.86146  22173062.588    22173071.1324
  20585857.848    -3297085.443 9  -2570646.96448  20585857.318    20585864.2944
  23163942.310      717964.301 8    554339.27146  23163941.387    23163950.6564
  22981367.764   -13017588.709 8 -10029218.47046  22981367.310    22981376.9844
  23317294.034    -8891728.520 8  -6916489.58245  23317293.804    23317302.2654
 01  7 19 17  9  0.0000000  0  9 18 26 17 15 06 23 22 21 03
  20468747.530    -9390274.910 9  -7312364.51648  20468747.161    20468753.0984
  22097323.875    -3107630.890 8  -2422273.76546  22097323.971    22097331.4714
  20391598.105    -1861721.126 9  -1457204.73447  20391597.671    20391604.8484
  20307067.616    -5838204.384 9  -4549910.54248  20307067.000    20307074.1824
  22190175.945     8126461.177 8   6317698.37746  22190175.821    22190184.3714
  20587888.490    -3286414.081 9  -2562331.61548  20587888.002    20587894.9844
  23172446.201      762652.971 8    589161.55446  23172445.420    23172454.7874
  22966117.297   -13097729.834 8 -10091666.01746  22966116.888    22966126.5764
  23299598.700    -8984718.114 8  -6988948.94645  23299598.363    23299606.9384
 01  7 19 17  9 30.0000000  0  9 18 26 17 15 06 23 22 21 03
  20462122.504    -9425089.386 9  -7339492.66048  20462122.178    20462128.0934
  22101855.529    -3083817.192 8  -2403717.63846  22101855.634    22101863.0994
  20393341.013    -1852562.109 9  -1450067.83947  20393340.574    20393347.7474
  20303371.393    -5857628.094 9  -4565045.89148  20303370.789    20303377.9574
  22207350.461     8216712.889 8   6388024.29046  22207350.281    22207358.7684
  20589999.982    -3275317.930 9  -2553685.26548  20589999.530    20590006.4974
  23181035.383      807788.772 8    624332.26546  23181034.583    23181043.9474
  22950912.684   -13177630.599 8 -10153926.27146  22950912.244    22950921.8154
  23281947.409    -9077475.259 8  -7061227.18546  23281947.253    23281955.8644
 01  7 19 17 10  0.0000000  0  9 18 26 17 15 06 23 22 21 03
  20455588.639    -9459424.864 9  -7366247.55648  20455588.331    20455594.2564
  22106508.470    -3059365.939 8  -2384664.72146  22106508.583    22106516.0584
  20395137.600    -1843120.921 9  -1442711.06947  20395137.180    20395144.3534
  20299732.909    -5876748.279 9  -4579944.72548  20299732.318    20299739.4784
  22224585.703     8307284.306 8   6458599.32646  22224585.499    22224594.0274
  20592192.196    -3263797.948 9  -2544708.65548  20592191.732    20592198.6874
  23189709.298      853369.959 8    659850.02546  23189708.518    23189717.8064
  22935753.966   -13257289.485 8 -10215998.04446  22935753.588    22935763.2044
  23264340.975    -9169997.513 8  -7133322.38946  23264340.762    23264349.3744
 01  7 19 17 10 30.0000000  0  9 18 26 17 15 06 23 22 21 03
  20449146.005    -9493281.112 9  -7392629.02948  20449145.671    20449151.5814
  22111282.684    -3034277.637 8  -2365115.41146  22111282.798    22111290.1374
  20396988.112    -1833396.703 9  -1435133.75947  20396987.649    20396994.8094
  20296152.395    -5895564.171 9  -4594606.45548  20296151.797    20296158.9584
  22241881.465     8398174.024 8   6529422.37846  22241881.286    22241889.9144
  20594464.874    -3251855.108 9  -2535402.54748  20594464.379    20594471.3384
  23198467.778      899395.074 8    695713.68446  23198466.855    23198476.1194
  22920641.471   -13336705.811 8 -10277880.82746  22920641.121    22920650.6544
  23246779.693    -9262281.974 8  -7205232.28046  23246779.579    23246788.2104
 01  7 19 17 11  0.0000000  0  9 18 26 17 15 06 23 22 21 03
  20442794.471    -9526658.632 9  -7418637.46448  20442794.148    20442800.0634
  22116177.715    -3008553.586 8  -2345070.71546  22116177.918    22116185.2814
  20398892.313    -1823390.008 9  -1427336.33747  20398891.871    20398899.0394
  20292629.699    -5914075.957 9  -4609031.21548  20292629.095    20292636.2494
  22259237.493     8489379.584 8   6600491.55446  22259237.250    22259245.8214
  20596817.638    -3239491.076 9  -2525768.23748  20596817.160    20596824.1234
  23207310.057      945860.824 8    731920.70846  23207309.004    23207318.2884
  22905575.286   -13415878.959 8 -10339574.12146  22905574.971    22905584.4584
  23229264.193    -9354326.977 8  -7276955.59446  23229263.956    23229272.5584
 01  7 19 17 11 30.0000000  0  9 18 26 17 15 06 23 22 21 03
  20436534.139    -9559556.766 9  -7444272.35248  20436533.822    20436539.7324
  22121193.782    -2982194.100 8  -2324530.86546  22121194.006    22121201.2714
  20400850.428    -1813100.207 9  -1419318.31347  20400849.956    20400857.1404
  20289165.045    -5932282.884 9  -4623218.42548  20289164.444    20289171.5984
  22276653.397     8580899.828 8   6671805.94946  22276653.164    22276661.6394
  20599250.444    -3226706.753 9  -2515806.42548  20599249.966    20599256.9144
  23216235.534      992764.985 8    768469.34846  23216234.654    23216244.0084
  22890555.706   -13494807.420 8 -10401076.73846  22890555.288    22890564.7874
  23211794.563    -9446129.651 8  -7348490.07446  23211794.379    23211803.0354
 01  7 19 17 12  0.0000000  0  9 18 26 17 15 06 23 22 21 03
  20430365.039    -9591975.828 9  -7469533.93948  20430364.673    20430370.5664
  22126330.597    -2955200.354 8  -2303496.75346  22126330.770    22126338.0374
  20402862.389    -1802527.379 9  -1411079.73947  20402861.923    20402869.0814
  20285758.375    -5950184.866 9  -4637168.01448  20285757.802    20285764.9554
  22294128.559     8672732.359 8   6743363.66146  22294128.336    22294136.8814
  20601762.892    -3213503.712 9  -2505518.33748  20601762.387    20601769.3434
  23225244.122     1040105.109 8    805357.70646  23225243.159    23225252.5594
  22875582.625   -13573490.698 8 -10462388.30746  22875582.344    22875591.7384
  23194371.643    -9537687.667 8  -7419833.91446  23194371.431    23194380.0424
 01  7 19 17 12 30.0000000  0  9 18 26 17 15 06 23 22 21 03
  20424287.212    -9623914.889 9  -7494421.50048  20424286.890    20424292.7674
  22131588.021    -2927572.599 8  -2281968.62946  22131588.170    22131595.4204
  20404928.333    -1791670.764 9  -1402620.04247  20404927.882    20404935.0384
  20282409.945    -5967780.887 9  -4650879.19048  20282409.360    20282416.5204
  22311663.001     8764876.147 8   6815163.92346  22311662.758    22311671.2874
  20604354.901    -3199882.621 9  -2494904.49848  20604354.412    20604361.3604
  23234335.252     1087880.047 8    842584.88546  23234334.475    23234343.9054
  22860656.542   -13651927.619 8 -10523507.90946  22860656.227    22860665.6194
  23176995.693    -9628998.349 8  -7490985.05246  23176995.571    23177004.1534
 01  7 19 17 13  0.0000000  0  9 18 26 17 15 06 23 22 21 03
  20418300.612    -9655374.628 9  -7518935.56048  20418300.275    20418306.1604
  22136965.741    -2899312.368 8  -2259947.64946  22136965.868    22136973.1484
  20407048.213    -1780530.689 9  -1393939.46147  20407047.755    20407054.9044
  20279119.736    -5985071.202 9  -4664352.15648  20279119.128    20279126.2864
  22329256.201     8857328.647 8   6887204.73746  22329255.928    22329264.5304
  20607026.076    -3185845.319 9  -2483966.33748  20607025.623    20607032.5894
  23243508.789     1136086.779 8    880148.51646  23243507.944    23243517.4444
  22845777.420   -13730117.879 8 -10584435.29446  22845777.038    22845786.4114
  23159667.274    -9720059.641 8  -7561941.85046  23159667.136    23159675.7134
 01  7 19 17 13 30.0000000  0  9 18 26 17 15 06 23 22 21 03
  20412405.189    -9686355.151 9  -7543076.20948  20412404.846    20412410.7174
  22142463.640    -2870420.626 8  -2237434.60646  22142463.742    22142471.0134
  20409221.995    -1769107.105 9  -1385037.96747  20409221.580    20409228.7414
  20275887.635    -6002055.797 9  -4677586.90048  20275887.046    20275894.2254
  22346907.709     8950087.961 8   6959484.62046  22346907.567    22346916.0784
  20609776.228    -3171393.211 9  -2472704.95048  20609775.769    20609782.7224
  23252763.863     1184722.468 8    918046.38846  23252763.037    23252772.4974
  22830945.288   -13808060.569 8 -10645169.77046  22830944.966    22830954.3354
  23142386.860    -9810869.183 8  -7632702.49146  23142386.569    23142395.1394
 01  7 19 17 14  0.0000000  0  9 18 26 17 15 06 23 22 21 03
  20406601.045    -9716856.095 9  -7566843.15548  20406600.694    20406606.5834
  22148081.481    -2840898.298 8  -2214430.19046  22148081.593    22148089.0144
  20411449.839    -1757399.644 9  -1375915.27047  20411449.448    20411456.6104
  20272713.893    -6018733.828 9  -4690582.76648  20272713.323    20272720.4934
  22364617.392     9043152.440 8   7032002.29746  22364617.198    22364625.7154
  20612605.178    -3156527.180 9  -2461121.02448  20612604.671    20612611.6314
  23262100.204     1233784.663 8    956276.61846  23262099.364    23262108.7594
  22816160.477   -13885754.755 8 -10705710.60246  22816160.181    22816169.5284
  23125154.671    -9901424.416 8  -7703264.96846  23125154.438    23125162.9934
 01  7 19 17 14 30.0000000  0  9 18 26 17 15 06 23 22 21 03
  20400888.238    -9746877.129 9  -7590236.14948  20400887.859    20400893.7404
  22153819.271    -2810745.854 8  -2190934.77146  22153819.370    22153826.8204
  20413731.851    -1745407.772 9  -1366570.95147  20413731.408    20413738.5744
  20269598.661    -6035104.642 9  -4703339.23948  20269598.059    20269605.2284
  22382384.710     9136520.575 8   7104756.58246  22382384.578    22382393.1984
  20615512.634    -3141248.320 9  -2449215.41448  20615512.158    20615519.1254
  23271517.291     1283271.880 8    994838.01046  23271516.564    23271526.0264
  22801423.177   -13963199.412 8 -10766056.99946  22801422.884    22801432.2484
  23107971.383    -9991722.637 8  -7773627.16246  23107971.224    23107979.7304
 01  7 19 17 15  0.0000000  0  9 18 26 17 15 06 23 22 21 03
  20395266.722    -9776418.463 9  -7613255.34748  20395266.301    20395272.1774
  22159676.729    -2779964.706 8  -2166949.44746  22159676.825    22159684.2994
  20416067.952    -1733131.454 9  -1357004.99047  20416067.521    20416074.6784
  20266541.898    -6051168.032 9  -4715856.16248  20266541.275    20266548.4634
  22400209.557     9230190.134 8   7177745.74746  22400209.437    22400218.0234
  20618498.404    -3125558.072 9  -2436989.24548  20618497.911    20618504.8534
  23281014.853     1333181.562 8   1033728.60846  23281014.110    23281023.5454
  22786733.461   -14040394.221 8 -10826208.69246  22786733.133    22786742.4974
  23090837.578   -10081761.852 8  -7843787.54546  23090837.326    23090845.8754
 01  7 19 17 15 30.0000000  0  9 18 26 17 15 06 23 22 21 03
  20389736.435    -9805480.237 9  -7635900.87248  20389736.030    20389741.9134
  22165653.641    -2748555.878 8  -2142475.01946  22165653.738    22165661.1954
  20418458.178    -1720570.772 9  -1347217.44547  20418457.736    20418464.9004
  20263543.677    -6066923.786 9  -4728133.37248  20263543.071    20263550.2484
  22418091.396     9324159.237 8   7250968.31646  22418091.228    22418099.8804
  20621562.143    -3109458.036 9  -2424443.75948  20621561.650    20621568.5924
  23290592.330     1383511.149 8   1072946.40046  23290591.488    23290600.9494
  22772091.362   -14117338.530 8 -10886165.20546  22772091.050    22772100.3744
  23073753.450   -10171539.510 8  -7913744.11346  23073753.163    23073761.6374
 01  7 19 17 16  0.0000000  0  9 18 26 17 15 06 23 22 21 03
  20384297.333    -9834062.671 9  -7658172.87648  20384296.955    20384302.8434
  22171749.727    -2716520.596 8  -2117512.46646  22171749.797    22171757.3624
  20420902.554    -1707725.438 9  -1337208.09047  20420902.124    20420909.2924
  20260604.056    -6082371.631 9  -4740170.64648  20260603.436    20260610.6154
  22436029.761     9418426.048 8   7324422.86646  22436029.679    22436038.4254
  20624703.661    -3092949.485 9  -2411579.94348  20624703.105    20624710.0504
  23300249.241     1434257.776 8   1112489.16446  23300248.324    23300257.8104
  22757497.229   -14194031.111 8 -10945925.56046  22757496.893    22757506.2084
  23056719.603   -10261053.060 8  -7983494.87446  23056719.255    23056727.7314
 01  7 19 17 16 30.0000000  0  9 18 26 17 15 06 23 22 21 03
  20378949.567    -9862165.320 9  -7680071.02448  20378949.187    20378955.0444
  22177964.902    -2683859.396 8  -2092062.16546  22177965.024    22177972.5814
  20423401.236    -1694594.986 9  -1326976.57647  20423400.794    20423407.9384
  20257723.150    -6097510.874 9  -4751967.45348  20257722.531    20257729.7024
  22454024.568     9512988.828 8   7398108.04146  22454024.472    22454033.2244
  20627922.602    -3076033.638 9  -2398398.76048  20627922.097    20627929.0534
  23309984.877     1485419.319 8   1152355.23346  23309983.964    23309993.6004
  22742951.081   -14270471.072 8 -11005489.07246  22742950.763    22742960.0674
  23039736.405   -10350299.800 8  -8053037.73246  23039736.133    23039744.5754
 01  7 19 17 17  0.0000000  0  9 18 26 17 15 06 23 22 21 03
  20373693.164    -9889788.017 9  -7701595.18048  20373692.786    20373698.6344
  22184298.991    -2650573.520 8  -2066125.10246  22184299.099    22184306.6304
  20425954.224    -1681179.097 9  -1316522.63847  20425953.747    20425960.8984
  20254901.096    -6112340.882 9  -4763523.29748  20254900.474    20254907.6384
  22472075.435     9607845.680 8   7472022.37346  22472075.246    22472083.8874
  20631218.846    -3058711.686 9  -2384901.13148  20631218.345    20631225.2974
  23319799.009     1536993.907 8   1192543.15846  23319798.260    23319807.9544
  22728453.235   -14346657.235 8 -11064854.80746  22728452.960    22728462.2494
  23022804.616   -10439277.386 8  -8122370.86646  23022804.304    23022812.6264
 01  7 19 17 17 30.0000000  0  9 18 26 17 15 06 23 22 21 03
  20368527.823    -9916931.923 9  -7722746.25348  20368527.432    20368533.2794
  22190751.577    -2616664.949 8  -2039702.82046  22190751.702    22190759.2064
  20428561.354    -1667478.522 9  -1305846.86947  20428560.891    20428568.0414
  20252137.765    -6126862.300 9  -4774838.68448  20252137.167    20252144.3204
  22490181.555     9702993.715 8   7546163.59346  22490181.392    22490190.0934
  20634592.061    -3040985.806 9  -2371088.75148  20634591.490    20634598.4534
  23329691.437     1588978.313 8   1233050.43946  23329690.691    23329700.3594
  22714003.702   -14422590.173 8 -11124023.23246  22714003.323    22714012.5944
  23005924.064   -10527984.129 8  -8191492.94646  23005923.931    23005932.2184
 01  7 19 17 18  0.0000000  0  9 18 26 17 15 06 23 22 21 03
  20363453.730    -9943596.402 9  -7743523.74848  20363453.345    20363459.1914
  22197322.701    -2582134.005 8  -2012795.56946  22197322.763    22197330.2444
  20431222.862    -1653492.134 9  -1294948.38647  20431222.409    20431229.5464
  20249433.401    -6141073.804 9  -4785912.57148  20249432.779    20249439.9444
  22508342.943     9798432.013 8   7620530.97646  22508342.818    22508351.5914
  20638041.908    -3022856.443 9  -2356961.96848  20638041.371    20638048.3654
  23339661.321     1641370.535 8   1273875.48546  23339660.659    23339670.3124
  22699602.666   -14498267.975 8 -11182992.84346  22699602.213    22699611.5004
  22989095.857   -10616416.801 8  -8260401.47546  22989095.761    22989104.0024
 01  7 19 17 18 30.0000000  0  9 18 26 17 15 06 23 22 21 03
  20358470.754    -9969781.944 9  -7763928.04748  20358470.384    20358476.2284
  22204011.810    -2546982.211 8  -1985404.54046  22204011.912    22204019.3344
  20433938.706    -1639220.212 9  -1283827.40647  20433938.259    20433945.4094
  20246787.937    -6154975.537 9  -4796745.08348  20246787.351    20246794.5144
  22526559.056     9894158.203 8   7695122.71846  22526558.938    22526567.6784
  20641568.237    -3004325.442 9  -2342522.22048  20641567.730    20641574.6624
  23349708.295     1694167.293 8   1315015.75246  23349707.644    23349717.2774
  22685250.218   -14573690.433 8 -11241763.48946  22685249.729    22685258.9854
  22972320.130   -10704573.323 8  -8329094.81946  22972320.034    22972328.3244
 01  7 19 17 19  0.0000000  0  9 18 26 17 15 06 23 22 21 03
  20353579.076    -9995487.906 9  -7783958.64748  20353578.711    20353584.5364
  22210818.995    -2511210.407 8  -1957530.37446  22210819.129    22210826.4634
  20436709.073    -1624661.965 9  -1272483.31947  20436708.631    20436715.7574
  20244201.642    -6168566.514 9  -4807335.44848  20244201.081    20244208.2394
  22544829.795     9990170.813 8   7769937.62146  22544829.619    22544838.4054
  20645170.833    -2985393.559 9  -2327770.09648  20645170.326    20645177.2764
  23359831.982     1747367.107 8   1356470.08946  23359831.285    23359840.9214
  22670946.579   -14648856.107 8 -11300334.04546  22670946.121    22670955.3394
  22955597.662   -10792450.682 8  -8397570.63246  22955597.491    22955605.7964
 01  7 19 17 19 30.0000000  0  9 18 26 17 15 06 23 22 21 03
  20348778.466   -10020715.106 9  -7803616.18448  20348778.124    20348783.9424
  22217743.823    -2474820.262 8  -1929174.39546  22217743.916    22217751.2394
  20439533.833    -1609817.704 9  -1260916.36947  20439533.385    20439540.5154
  20241674.432    -6181847.096 9  -4817683.94648  20241673.871    20241681.0474
  22563154.452    10086467.459 8   7844973.86546  22563154.313    22563163.1294
  20648849.282    -2966062.793 9  -2312707.15548  20648848.829    20648855.7974
  23370031.922     1800967.371 8   1398236.47346  23370031.144    23370040.7664
  22656691.786   -14723765.064 8 -11358704.56446  22656691.299    22656700.5474
  22938928.488   -10880047.176 8  -8465827.59046  22938928.380    22938936.7144
 01  7 19 17 20  0.0000000  0  9 18 26 17 15 06 23 22 21 03
  20344068.977   -10045463.216 9  -7822900.40448  20344068.694    20344074.5144
  22224786.037    -2437812.712 8  -1900337.33046  22224786.200    22224793.4834
  20442413.123    -1594687.003 9  -1249126.22147  20442412.682    20442419.8104
  20239206.486    -6194816.294 9  -4827789.80348  20239205.869    20239213.0764
  22581532.744    10183046.663 8   7920230.26846  22581532.660    22581541.6974
  20652603.551    -2946334.288 9  -2297334.28648  20652603.050    20652610.0024
  23380307.667     1854965.528 8   1440312.89946  23380306.730    23380316.4024
  22642486.147   -14798416.088 8 -11416874.09946  22642485.593    22642494.7944
  22922313.409   -10967359.774 8  -8533863.31246  22922313.263    22922321.6374
 01  7 19 17 20 30.0000000  0  9 18 26 17 15 06 23 22 21 03
  20339450.616   -10069732.577 9  -7841811.57348  20339450.352    20339456.1634
  22231945.504    -2400189.232 8  -1871020.31946  22231945.645    22231952.9694
  20445346.938    -1579269.569 9  -1237112.63047  20445346.511    20445353.6374
  20236797.838    -6207473.902 9  -4837652.86748  20236797.207    20236804.4004
  22599964.605    10279906.142 8   7995705.08346  22599964.560    22599973.6284
  20656433.202    -2926209.415 9  -2281652.56248  20656432.699    20656439.6444
  23390658.533     1909358.591 8   1482697.03146  23390657.435    23390667.1234
  22628329.556   -14872808.994 8 -11474842.49546  22628329.044    22628338.2254
  22905752.812   -11054386.069 8  -8601675.95746  22905752.698    22905761.0804
 01  7 19 17 21  0.0000000  0  9 18 26 17 15 06 23 22 21 03
  20334923.427   -10093523.163 9  -7860349.67148  20334923.156    20334928.9554
  22239221.975    -2361950.970 8  -1841224.26346  22239222.137    22239229.4864
  20448335.364    -1563565.156 9  -1224875.42747  20448334.982    20448342.1104
  20234448.532    -6219819.600 9  -4847272.88148  20234447.903    20234455.0784
  22618449.444    10377044.058 8   8071396.86646  22618449.413    22618458.4394
  20660338.018    -2905689.309 9  -2265662.86448  20660337.546    20660344.4884
  23401083.930     1964144.297 8   1525387.12746  23401082.917    23401092.5224
  22614222.287   -14946942.626 8 -11532608.88246  22614221.820    22614230.9514
  22889247.203   -11141123.456 8  -8669263.47946  22889247.084    22889255.4254
 01  7 19 17 21 30.0000000  0  9 18 26 17 15 06 23 22 21 03
  20330487.259   -10116835.493 9  -7878515.10448  20330486.937    20330492.7294
  22246615.153    -2323099.430 8  -1810950.33346  22246615.299    22246622.6704
  20451378.472    -1547573.687 9  -1212414.54047  20451378.065    20451385.1944
  20232158.622    -6231853.004 9  -4856649.54948  20232158.009    20232165.1994
  22636986.968    10474458.404 8   8147304.03546  22636986.860    22636995.9244
  20664317.784    -2884775.579 9  -2249366.44848  20664317.301    20664324.2284
  23411583.529     2019320.382 8   1568381.43446  23411582.589    23411592.2764
  22600164.545   -15020816.743 8 -11590173.03446  22600163.952    22600173.0644
  22872797.099   -11227569.646 8  -8736624.09646  22872796.872    22872805.2054
 01  7 19 17 22  0.0000000  0  9 18 26 17 15 06 23 22 21 03
  20326142.072   -10139669.592 9  -7896307.88748  20326141.725    20326147.5224
  22254124.801    -2283635.947 8  -1780199.56046  22254124.911    22254132.4184
  20454476.175    -1531295.016 9  -1199729.86747  20454475.801    20454482.9374
  20229928.252    -6243573.645 9  -4865782.50848  20229927.672    20229934.8514
  22655576.502    10572147.067 8   8223424.96146  22655576.391    22655585.6074
  20668372.158    -2863469.633 9  -2232764.40848  20668371.674    20668378.5954
  23422157.016     2074884.217 8   1611677.85246  23422156.088    23422165.8264
  22586156.321   -15094430.080 8 -11647533.99146  22586155.790    22586164.8144
  22856402.834   -11313722.307 8  -8803755.98746  22856402.542    22856410.8104
 01  7 19 17 22 30.0000000  0  9 18 26 17 15 06 23 22 21 03
  20321887.887   -10162025.555 9  -7913728.09948  20321887.540    20321893.3174
  22261750.603    -2243561.655 8  -1748972.82246  22261750.781    22261758.2274
  20457628.635    -1514728.752 9  -1186821.09947  20457628.219    20457635.3884
  20227757.558    -6254980.801 9  -4874671.18948  20227756.935    20227764.1174
  22674218.015    10670108.446 8   8299758.39346  22674217.876    22674227.1584
  20672500.952    -2841772.803 9  -2215857.77848  20672500.456    20672507.3724
  23432803.907     2130833.326 8   1655274.51546  23432802.908    23432812.6454
  22572197.751   -15167781.991 8 -11704691.24346  22572197.313    22572206.3114
  22840064.778   -11399578.902 8  -8870657.17946  22840064.553    22840072.7834
 01  7 19 17 23  0.0000000  0  9 18 26 17 15 06 23 22 21 03
  20317724.912   -10183902.095 9  -7930774.73648  20317724.562    20317730.3574
  22269492.765    -2202876.622 8  -1717270.19146  22269492.891    22269500.3804
  20460836.159    -1497873.013 9  -1173686.76947  20460835.758    20460842.9194
  20225646.789    -6266072.992 9  -4883314.44648  20225646.176    20225653.3544
  22692911.395    10768342.030 8   8376303.92446  22692911.244    22692920.5284
  20676704.117    -2819684.930 9  -2198646.44448  20676703.636    20676710.5734
  23443523.705     2187166.121 8   1699170.14746  23443522.727    23443532.4034
  22558289.426   -15240870.411 8 -11761643.17446  22558288.991    22558297.9564
  22823783.872   -11485135.332 8  -8937324.47946  22823783.673    22823791.8984
 01  7 19 17 23 30.0000000  0  9 18 26 17 15 06 23 22 21 03
  20313652.595   -10205301.878 9  -7947449.87248  20313652.291    20313658.0784
  22277350.422    -2161584.693 8  -1685094.67046  22277350.511    22277358.0274
  20464098.395    -1480730.087 9  -1160328.65447  20464098.000    20464105.1394
  20223595.587    -6276851.997 9  -4891713.65648  20223594.987    20223602.1634
  22711655.651    10866843.387 8   8453058.10246  22711655.528    22711664.8454
  20680980.980    -2797209.936 9  -2181133.45848  20680980.485    20680987.4054
  23454315.419     2243878.016 8   1743361.16846  23454314.586    23454324.5674
  22544430.857   -15313697.036 8 -11818391.10046  22544430.476    22544439.4094
  22807560.139   -11570391.484 8  -9003757.79546  22807559.905    22807568.1944
 01  7 19 17 24  0.0000000  0  9 18 26 17 15 06 23 22 21 03
  20309671.064   -10226224.670 9  -7963753.32348  20309670.798    20309676.6024
  22285323.306    -2119686.835 8  -1652446.98546  22285323.412    22285330.8774
  20467415.358    -1463299.372 9  -1146746.28147  20467414.943    20467422.1014
  20221604.145    -6287316.991 9  -4899868.18448  20221603.555    20221610.7294
  22730450.619    10965610.925 8   8530019.71146  22730450.456    22730459.6964
  20685331.274    -2774348.880 9  -2163319.64148  20685330.774    20685337.7254
  23465179.159     2300967.317 8   1787846.27845  23465178.415    23465188.3074
  22530622.395   -15386260.809 8 -11874934.23446  22530621.975    22530630.9064
  22791394.118   -11655344.430 8  -9069954.85046  22791393.866    22791402.1224
 01  7 19 17 24 30.0000000  0  9 18 26 17 15 06 23 22 21 03
  20305780.279   -10246670.830 9  -7979685.37948  20305780.001    20305785.8004
  22293411.215    -2077184.535 8  -1619328.31146  22293411.323    22293418.7964
  20470787.118    -1445580.606 9  -1132939.45547  20470786.689    20470793.8584
  20219672.580    -6297467.582 9  -4907777.72648  20219671.972    20219679.1414
  22749295.768    11064642.547 8   8607187.08046  22749295.640    22749304.8344
  20689754.799    -2751103.049 9  -2145206.00448  20689754.321    20689761.2684
  23476114.096     2358431.132 8   1832623.22745  23476113.395    23476123.2684
  22516864.185   -15458560.659 8 -11931271.69646  22516863.720    22516872.6074
  22775286.202   -11739991.908 8  -9135913.87346  22775285.948    22775294.1684
 01  7 19 17 25  0.0000000  0  9 18 26 17 15 06 23 22 21 03
  20301980.108   -10266640.750 9  -7995246.33848  20301979.842    20301985.6214
  22301613.840    -2034079.337 8  -1585739.84546  22301613.944    22301621.4704
  20474213.737    -1427573.704 9  -1118908.10347  20474213.337    20474220.4834
  20217800.852    -6307303.428 9  -4915442.00748  20217800.248    20217807.4094
  22768190.900    11163936.202 8   8684558.65546  22768190.759    22768199.9384
  20694251.323    -2727473.893 9  -2126793.67448  20694250.788    20694257.7274
  23487119.949     2416266.361 8   1877689.54745  23487119.066    23487128.9314
  22503156.220   -15530596.320 8 -11987403.30346  22503155.720    22503164.6224
  22759237.005   -11824331.580 8  -9201633.02746  22759236.618    22759244.8114
 01  7 19 17 25 30.0000000  0  9 18 26 17 15 06 23 22 21 03
  20298270.641   -10286134.126 9  -8010435.96448  20298270.370    20298276.1384
  22309930.979    -1990372.428 8  -1551682.51246  22309931.056    22309938.6054
  20477695.331    -1409277.926 9  -1104651.65447  20477694.907    20477702.0434
  20215989.160    -6316823.918 9  -4922860.55648  20215988.572    20215995.7294
  22787135.493    11263490.182 8   8762133.05146  22787135.304    22787144.6024
  20698820.516    -2703462.589 9  -2108083.56448  20698820.005    20698826.9394
  23498195.979     2474470.726 8   1923043.52145  23498195.048    23498204.9844
  22489498.714   -15602366.728 8 -12043328.22346  22489498.225    22489507.0714
  22743246.879   -11908360.516 8  -9267110.08446  22743246.429    22743254.5854
 01  7 19 17 26  0.0000000  0  9 18 26 17 15 06 23 22 21 03
  20294651.794   -10305151.194 9  -8025254.44048  20294651.515    20294657.2684
  22318362.393    -1946065.262 8  -1517157.45246  22318362.510    22318369.9744
  20481231.910    -1390693.103 9  -1090169.97747  20481231.488    20481238.6384
  20214237.528    -6326028.696 9  -4930033.10048  20214236.945    20214244.1124
  22806129.259    11363302.607 8   8839908.87346  22806129.135    22806138.3324
  20703462.180    -2679070.572 9  -2089076.79448  20703461.672    20703468.5914
  23509341.921     2533042.174 8   1968683.53145  23509340.972    23509350.7554
  22475891.712   -15673871.213 8 -12099045.93146  22475891.334    22475900.1744
  22727316.349   -11992076.103 8  -9332342.95146  22727315.837    22727324.0324
 01  7 19 17 26 30.0000000  0  9 18 26 17 15 06 23 22 21 03
  20291123.493   -10323692.708 9  -8039702.35348  20291123.178    20291128.9334
  22326907.730    -1901159.535 8  -1482165.98146  22326907.823    22326915.2984
  20484823.554    -1371818.981 9  -1075462.87047  20484823.122    20484830.2924
  20212546.087    -6334917.283 9  -4936959.25848  20212545.506    20212552.6694
  22825171.839    11463371.464 8   8917884.47346  22825171.721    22825180.9434
  20708175.952    -2654299.488 9  -2069774.64748  20708175.409    20708182.3584
  23520557.053     2591978.089 8   2014607.52945  23520556.188    23520565.9724
  22462335.500   -15745109.487 8 -12154556.20246  22462335.059    22462343.8614
  22711445.774   -12075476.021 8  -9397329.84446  22711445.334    22711453.5014
 01  7 19 17 27  0.0000000  0  9 18 26 17 15 06 23 22 21 03
  20287685.644   -10341758.866 9  -8053779.86148  20287685.288    20287691.0554
  22335566.612    -1855657.040 8  -1446709.48746  22335566.699    22335574.1114
  20488470.255    -1352655.479 9  -1060530.27047  20488469.828    20488476.9984
  20210914.924    -6343489.164 9  -4943638.63448  20210914.325    20210921.4924
  22844262.823    11563694.442 8   8996058.12546  22844262.636    22844271.7454
  20712961.579    -2629150.848 9  -2050178.30248  20712961.075    20712968.0224
  23531841.204     2651275.518 8   2060813.24745  23531840.135    23531849.9204
  22448829.939   -15816080.903 8 -12209858.52946  22448829.599    22448838.4144
  22695635.727   -12158557.906 8  -9462068.93046  22695635.328    22695643.4664
 01  7 19 17 27 30.0000000  0  9 18 26 17 15 06 23 22 21 03
  20284338.221   -10359349.800 9  -8067487.06248  20284337.825    20284343.5934
  22344338.697    -1809558.907 8  -1410788.87646  22344338.857    22344346.2964
  20492172.124    -1333202.042 9  -1045371.74747  20492171.695    20492178.8524
  20209344.117    -6351743.835 9  -4950070.83648  20209343.523    20209350.6704
  22863401.702    11664269.908 8   9074428.48846  22863401.616    22863410.7994
  20717818.838    -2603625.772 9  -2030288.63048  20717818.333    20717825.2804
  23543193.389     2710931.759 8   2107298.57145  23543192.456    23543202.2244
  22435375.609   -15886784.238 8 -12264951.96646  22435375.163    22435383.9424
  22679886.763   -12241318.715 8  -9526557.82146  22679886.431    22679894.5214
 01  7 19 17 28  0.0000000  0  9 18 26 17 15 06 23 22 21 03
  20281081.139   -10376466.053 9  -8080824.38348  20281080.690    20281086.4544
  22353223.841    -1762867.169 8  -1374405.71146  22353223.955    22353231.4824
  20495929.132    -1313458.752 9  -1029987.36347  20495928.694    20495935.8624
  20207833.700    -6359681.009 9  -4956255.63748  20207833.108    20207840.2444
  22882588.414    11765095.660 8   9152993.90946  22882588.274    22882597.4334
  20722747.426    -2577726.050 9  -2010107.02548  20722746.901    20722753.8424
  23554613.332     2770944.078 8   2154061.36345  23554612.451    23554622.3394
  22421972.209   -15957219.254 8 -12319836.33046  22421971.742    22421980.5364
  22664199.287   -12323756.477 8  -9590794.99246  22664198.992    22664207.1094
 01  7 19 17 28 30.0000000  0  9 18 26 17 15 06 23 22 21 03
  20277914.164   -10393108.259 9  -8093792.32148  20277913.783    20277919.5304
  22362221.697    -1715583.556 8  -1337561.35946  22362221.796    22362229.2584
  20499741.331    -1293425.488 9  -1014377.03947  20499740.895    20499748.0494
  20206383.785    -6367300.433 9  -4962192.83948  20206383.192    20206390.3224
  22901822.240    11866169.351 8   9231752.50546  22901822.078    22901831.2754
  20727746.942    -2551453.272 9  -1989634.72848  20727746.440    20727753.3724
  23566100.661     2831310.078 8   2201099.71845  23566099.769    23566109.7734
  22408619.959   -16027385.442 8 -12374511.21246  22408619.496    22408628.2714
  22648573.831   -12405868.705 8  -9654778.49446  22648573.559    22648581.6414
 01  7 19 17 29  0.0000000  0  9 18 26 17 15 06 23 22 21 03
  20274837.307   -10409276.903 9  -8106391.24748  20274836.972    20274842.7004
  22371331.709    -1667710.022 8  -1300257.32646  22371331.799    22371339.2884
  20503608.725    -1273102.229 9   -998540.74247  20503608.287    20503615.4504
  20204994.309    -6374601.956 9  -4967882.32948  20204993.734    20205000.8794
  22921102.777    11967488.898 8   9310702.67346  22921102.600    22921111.8284
  20732817.172    -2524808.971 9  -1968872.93048  20732816.670    20732823.6064
  23577654.596     2892026.849 8   2248411.40945  23577653.720    23577663.9134
  22395318.869   -16097282.608 8 -12428976.45946  22395318.464    22395327.2704
  22633010.728   -12487653.320 8  -9718506.72846  22633010.443    22633018.4814
 01  7 19 17 29 30.0000000  0  9 18 26 17 15 06 23 22 21 03
  20271850.600   -10424971.852 9  -8118621.06048  20271850.300    20271856.0244
  22380553.733    -1619247.716 8  -1262494.49446  22380553.915    22380561.3964
  20507531.447    -1252488.348 9   -982477.99747  20507530.982    20507538.1284
  20203665.516    -6381584.843 9  -4973323.52848  20203664.954    20203672.0714
  22940429.643    12069052.618 8   9389843.11746  22940429.561    22940438.8594
  20737957.927    -2497794.180 9  -1947822.43848  20737957.421    20737964.3514
  23589274.927     2953091.612 8   2295994.25445  23589274.075    23589284.1434
  22382069.333   -16166909.683 8 -12483231.25546  22382068.816    22382077.5714
  22617510.538   -12569107.314 8  -9781977.32646  22617510.244    22617518.2674
 01  7 19 17 30  0.0000000  0  9 18 26 17 15 06 23 22 21 03
  20268954.069   -10440193.480 9  -8130482.04948  20268953.705    20268959.4344
  22389887.493    -1570198.259 8  -1224274.16446  22389887.673    22389895.2204
  20511509.548    -1231583.199 9   -966188.28247  20511509.098    20511516.2764
  20202397.483    -6388248.370 9  -4978515.87748  20202396.912    20202404.0324
  22959802.709    12170858.669 8   9469172.37846  22959802.669    22959812.0154
  20743168.882    -2470410.313 9  -1926484.35848  20743168.393    20743175.3204
  23600961.005     3014501.842 8   2343846.27245  23600960.115    23600970.0624
  22368871.242   -16236265.878 8 -12537274.96947  22368870.733    22368879.4854
  22602073.667   -12650228.088 8  -9845188.27446  22602073.440    22602081.4274
 01  7 19 17 30 30.0000000  0  9 18 26 17 15 06 23 22 21 03
  20266147.413   -10454942.628 9  -8141974.87248  20266147.008    20266152.7554
  22399332.636    -1520563.756 8  -1185597.94546  22399332.795    22399340.3744
  20515543.047    -1210387.056 9   -949671.78947  20515542.595    20515549.7934
  20201190.242    -6394592.421 9  -4983459.28148  20201189.677    20201196.7974
  22979221.567    12272904.458 8   9548688.45646  22979221.416    22979230.8494
  20748449.714    -2442659.280 9  -1904860.16848  20748449.247    20748456.1844
  23612712.243     3076254.973 8   2391965.52745  23612711.290    23612721.3874
  22355724.744   -16305350.708 8 -12591107.22247  22355724.244    22355732.9614
  22586700.637   -12731013.376 8  -9908137.80846  22586700.462    22586708.4464
 01  7 19 17 31  0.0000000  0  9 18 26 17 15 06 23 22 21 03
  20263430.594   -10469219.523 9  -8153099.70948  20263430.199    20263435.9594
  22408888.666    -1470345.927 8  -1146467.18646  22408888.859    22408896.5404
  20519631.946    -1188899.680 9   -932928.38147  20519631.495    20519638.6814
  20200043.855    -6400616.658 9  -4988153.48448  20200043.291    20200050.4054
  22998685.515    12375188.034 8   9628389.79946  22998685.401    22998694.8204
  20753800.166    -2414542.368 9  -1882950.88548  20753799.693    20753806.6304
  23624528.214     3138348.467 8   2440349.97345  23624527.460    23624537.4354
  22342629.981   -16374163.771 8 -12644727.71447  22342629.539    22342638.2164
  22571392.032   -12811460.650 8  -9970823.95746  22571391.821    22571399.7784
 01  7 19 17 31 30.0000000  0  9 18 26 17 15 06 23 22 21 03
  20260803.450   -10483024.816 9  -8163857.06248  20260803.098    20260808.8534
  22418555.483    -1419546.803 8  -1106883.47546  22418555.626    22418563.3194
  20523776.294    -1167121.080 9   -915958.04147  20523775.846    20523783.0294
  20198958.388    -6406320.877 9  -4992598.31748  20198957.822    20198964.9274
  23018194.262    12477707.005 8   9708274.59146  23018194.216    23018203.6764
  20759219.932    -2386061.527 9  -1860758.01548  20759219.431    20759226.3664
  23636408.332     3200779.189 8   2488997.22045  23636407.626    23636417.7094
  22329586.995   -16442704.668 8 -12698136.12747  22329586.549    22329595.2374
  22556148.074   -12891567.759 8 -10033245.04446  22556147.894    22556155.8424
 01  7 19 17 32  0.0000000  0  9 18 26 17 15 06 23 22 21 03
  20258265.956   -10496359.285 9  -8174247.54848  20258265.665    20258271.3844
  22428332.663    -1368168.308 8  -1066848.31046  22428332.738    22428340.3034
  20527976.140    -1145050.853 9   -898760.46847  20527975.678    20527982.8494
  20197933.905    -6411704.750 9  -4996793.53748  20197933.292    20197940.4004
  23037747.536    12580459.375 8   9788341.24846  23037747.479    23037756.9044
  20764708.624    -2357218.296 9  -1838282.77248  20764708.092    20764715.0284
  23648352.123     3263543.782 8   2537904.59845  23648351.457    23648361.4394
  22316596.002   -16510972.870 8 -12751332.05947  22316595.522    22316604.1774
  22540969.362   -12971332.559 8 -10095399.40446  22540969.122    22540977.0634
 01  7 19 17 32 30.0000000  0  9 18 26 17 15 06 23 22 21 03
  20255818.050   -10509223.045 9  -8184271.23748  20255817.749    20255823.4614
  22438219.488    -1316211.883 8  -1026362.82146  22438219.653    22438227.2404
  20532231.474    -1122688.890 9   -881335.57447  20532231.012    20532238.1904
  20196970.452    -6416767.696 9  -5000738.68348  20196969.819    20196976.9334
  23057344.860    12683443.453 8   9868588.43246  23057344.742    23057354.2304
  20770266.049    -2328013.906 9  -1815526.10248  20770265.494    20770272.4584
  23660359.054     3326640.124 8   2587070.49645  23660358.295    23660368.3024
  22303656.939   -16578967.599 8 -12804314.90147  22303656.530    22303665.1364
  22525856.275   -13050752.091 8 -10157284.71946  22525856.024    22525863.9644
 01  7 19 17 33  0.0000000  0  9 18 26 17 15 06 23 22 21 03
  20253459.697   -10521616.438 9  -8193928.40948  20253459.352    20253465.0814
  22448216.024    -1263679.431 8   -985428.46646  22448216.243    22448223.8284
  20536542.481    -1100034.579 9   -863682.87547  20536542.018    20536549.1914
  20196068.190    -6421508.987 9  -5004433.18848  20196067.593    20196074.7064
  23076985.902    12786657.056 8   9949014.48846  23076985.715    23076995.2444
  20775891.867    -2298449.802 9  -1792489.13648  20775891.360    20775898.3244
  23672428.605     3390065.952 8   2636493.12945  23672427.899    23672437.8124
  22290769.990   -16646688.398 8 -12857084.27347  22290769.611    22290778.2504
  22510809.390   -13129823.891 8 -10218899.07046  22510809.161    22510817.1094
 01  7 19 17 33 30.0000000  0  9 18 26 17 15 06 23 22 21 03
  20251190.629   -10533540.577 9  -8203219.92348  20251190.283    20251195.9844
  22458321.870    -1210573.390 8   -944047.16846  22458322.027    22458329.6764
  20540908.985    -1077088.380 9   -845802.73047  20540908.535    20540915.7264
  20195227.091    -6425928.887 9  -5007877.25548  20195226.506    20195233.6074
  23096670.228    12890097.443 8  10029617.23746  23096669.848    23096679.4174
  20781585.785    -2268528.101 9  -1769173.51948  20781585.258    20781592.2334
  23684560.426     3453817.958 8   2686169.93945  23684559.490    23684569.5084
  22277935.318   -16714135.220 8 -12909640.17447  22277934.837    22277943.4484
  22495829.028   -13208546.083 8 -10280240.99446  22495828.792    22495836.7314
 01  7 19 17 34  0.0000000  0  9 18 26 17 15 06 23 22 21 03
  20249010.784   -10544995.717 9  -8212145.98548  20249010.412    20249016.1224
  22468536.461    -1156895.303 8   -902220.12346  22468536.625    22468544.2644
  20545331.194    -1053849.556 9   -827694.56447  20545330.724    20545337.9384
  20194447.343    -6430026.564 9  -5011070.24548  20194446.735    20194453.8434
  23116397.091    12993762.902 8  10110395.36946  23116396.831    23116406.5254
  20787347.458    -2238250.046 9  -1745580.22448  20787346.989    20787353.9644
  23696753.488     3517893.259 8   2736098.65845  23696752.630    23696762.8614
  22265152.863   -16781307.291 8 -12961981.98347  22265152.376    22265160.9864
  22480915.791   -13286915.845 8 -10341308.30546  22480915.487    22480923.4254
 01  7 19 17 34 30.0000000  0  9 18 26 17 15 06 23 22 21 03
  20246920.113   -10555982.106 9  -8220706.78948  20246919.729    20246925.4574
  22478859.727    -1102646.733 8   -859948.52746  22478859.839    22478867.4154
  20549809.113    -1030317.732 9   -809358.07847  20549808.693    20549815.8924
  20193729.003    -6433801.603 9  -5014011.82748  20193728.363    20193735.4664
  23136166.348    13097651.648 8  10191347.50046  23136166.295    23136176.0514
  20793176.759    -2207616.886 9  -1721710.22248  20793176.274    20793183.2774
  23709007.754     3582289.207 8   2786277.21545  23709006.905    23709017.0714
  22252422.828   -16848203.740 8 -13014109.01447  22252422.359    22252430.9354
  22466070.067   -13364930.411 8 -10402098.83046  22466069.814    22466077.6894
 01  7 19 17 35  0.0000000  0  9 18 26 17 15 06 23 22 21 03
  20244918.409   -10566500.875 9  -8228903.21348  20244918.075    20244923.7864
  22489290.934    -1047830.260 8   -817234.42146  22489291.098    22489298.7584
  20554342.729    -1006493.328 9   -790793.61047  20554342.325    20554349.5194
  20193072.033    -6437254.056 9  -5016702.04448  20193071.388    20193078.4874
  23155977.917    13201760.932 8  10272471.45046  23155977.790    23155987.4584
  20799073.222    -2176630.745 9  -1697565.17448  20799072.732    20799079.7294
  23721322.327     3647002.854 8   2836703.33545  23721321.571    23721331.8824
  22239745.328   -16914824.400 8 -13066021.16047  22239744.836    22239753.3594
  22451292.335   -13442587.914 8 -10462611.13746  22451292.034    22451299.9224
 01  7 19 17 35 30.0000000  0  9 18 26 17 15 06 23 22 21 03
  20243005.587   -10576552.905 9  -8236735.94648  20243005.239    20243010.9344
  22499829.934     -992448.070 8   -774079.51546  22499830.081    22499837.6894
  20558932.057     -982376.140 9   -772001.00047  20558931.668    20558938.8844
  20192476.468    -6440383.571 9  -5019140.61648  20192475.850    20192482.9454
  23175831.062    13306088.398 8  10353765.43346  23175830.856    23175840.4824
  20805036.558    -2145293.209 9  -1673146.30948  20805036.073    20805043.0844
  23733697.165     3712031.638 8   2887375.05545  23733696.214    23733706.5114
  22227120.221   -16981169.281 8 -13117718.40547  22227119.785    22227128.2714
  22436582.920   -13519886.084 8 -10522843.42646  22436582.657    22436590.5274
 01  7 19 17 36  0.0000000  0  9 18 26 17 15 06 23 22 21 03
  20241181.612   -10586138.068 9  -8244204.88448  20241181.232    20241186.9284
  22510476.255     -936501.704 8   -730484.96046  22510476.352    22510483.9994
  20563577.239     -957965.583 9   -752979.78947  20563576.862    20563584.0614
  20191942.478    -6443189.482 9  -5021327.03148  20191941.880    20191948.9854
  23195724.947    13410632.409 8  10435228.14646  23195724.984    23195734.7214
  20811066.517    -2113605.632 9  -1648454.68748  20811066.009    20811073.0044
  23746131.178     3777372.809 8   2938290.17845  23746130.356    23746140.7004
  22214547.895   -17047237.293 9 -13169199.90547  22214547.439    22214555.9084
  22421942.436   -13596822.172 8 -10582793.58046  22421942.153    22421950.0394
 01  7 19 17 36 30.0000000  0  9 18 26 17 15 06 23 22 21 03
  20239446.307   -10595256.841 9  -8251310.40048  20239445.963    20239451.6374
  22521229.561     -879992.967 8   -686452.21346  22521229.637    22521237.2484
  20568278.336     -933261.221 9   -733729.64747  20568277.937    20568285.1654
  20191470.184    -6445671.173 9  -5023260.81048  20191469.626    20191476.7264
  23215660.083    13515391.180 8  10516858.19546  23215659.993    23215669.7754
  20817162.868    -2081569.175 9  -1623491.21448  20817162.338    20817169.3434
  23758624.128     3843023.230 8   2989446.26145  23758623.357    23758633.5644
  22202028.347   -17113027.670 8 -13220465.07047  22202027.906    22202036.3614
  22407371.349   -13673393.494 8 -10642459.51246  22407371.120    22407378.9714
 01  7 19 17 37  0.0000000  0  9 18 26 17 15 06 23 22 21 03
  20237799.655   -10603910.056 9  -8258053.14548  20237799.293    20237804.9774
  22532089.344     -822924.115 8   -641983.00046  22532089.489    22532097.1734
  20573035.315     -908263.140 9   -714250.62547  20573034.904    20573042.1354
  20191059.672    -6447828.370 9  -5024941.73748  20191059.121    20191066.2384
  23235635.575    13620362.325 8  10598653.73045  23235635.375    23235645.2474
  20823325.252    -2049185.641 9  -1598257.29048  20823324.732    20823331.7234
  23771175.476     3908980.198 8   3040841.22045  23771174.568    23771184.9364
  22189561.627   -17178540.552 9 -13271514.00547  22189561.167    22189569.6054
  22392870.140   -13749598.083 8 -10701839.65146  22392869.839    22392877.6864
 01  7 19 17 37 30.0000000  0  9 18 26 17 15 06 23 22 21 03
  20236241.420   -10612098.511 9  -8264433.73848  20236241.062    20236246.7394
  22543055.489     -765297.235 8   -597078.97946  22543055.518    22543063.1664
  20577848.294     -882970.971 9   -694542.45147  20577847.863    20577855.1064
  20190710.970    -6449660.809 9  -5026369.60348  20190710.412    20190717.5334
  23255650.877    13725543.502 8  10680612.94146  23255650.917    23255660.7714
  20829553.281    -2016456.709 9  -1572754.23048  20829552.811    20829559.8244
  23783784.578     3975241.336 8   3092473.16645  23783783.679    23783794.1904
  22177147.853   -17243775.064 8 -13322346.02347  22177147.401    22177155.8334
  22378439.257   -13825433.240 8 -10760931.94646  22378438.839    22378446.6944
 01  7 19 17 38  0.0000000  0  9 18 26 17 15 06 23 22 21 03
  20234771.473   -10619822.860 9  -8270452.68948  20234771.139    20234776.8234
  22554127.286     -707114.226 8   -551741.58646  22554127.363    22554134.9784
  20582717.242     -857384.502 9   -674604.95147  20582716.782    20582724.0394
  20190424.192    -6451168.014 9  -5027544.04548  20190423.591    20190430.7294
  23275705.981    13830932.547 8  10762734.11045  23275705.894    23275715.7994
  20835846.906    -1983383.866 9  -1546983.18748  20835846.374    20835853.3874
  23796451.076     4041803.945 8   3144340.03545  23796450.280    23796460.6304
  22164787.089   -17308731.243 9 -13372961.17047  22164786.608    22164794.9894
  22364078.955   -13900896.482 8 -10819734.42746  22364078.660    22364086.4954
 01  7 19 17 38 30.0000000  0  9 18 26 17 15 06 23 22 21 03
  20233389.765   -10627083.758 9  -8276110.51648  20233389.416    20233395.0964
  22565304.678     -648377.400 8   -505972.65546  22565304.645    22565312.3404
  20587642.204     -831503.800 9   -654438.18847  20587641.712    20587648.9894
  20190199.293    -6452349.765 9  -5028464.88448  20190198.696    20190205.8214
  23295800.183    13936527.259 8  10845015.50945  23295799.972    23295809.9834
  20842205.554    -1949968.904 9  -1520945.56248  20842205.022    20842212.0154
  23809174.374     4108664.442 8   3196439.01345  23809173.472    23809183.8704
  22152479.316   -17373408.573 9 -13423359.03147  22152478.868    22152487.2454
  22349789.963   -13975985.793 8 -10878245.53846  22349789.573    22349797.4224
 01  7 19 17 39  0.0000000  0  9 18 26 17 15 06 23 22 21 03
  20232096.117   -10633881.869 9  -8281407.73548  20232095.792    20232101.4674
  22576586.928     -589089.034 8   -459773.96946  22576586.905    22576594.5784
  20592623.205     -805328.617 9   -634041.96647  20592622.734    20592630.0014
  20190036.393    -6453205.770 9  -5029131.90048  20190035.809    20190042.9224
  23315933.269    14042325.240 8  10927455.35545  23315932.935    23315942.8004
  20848628.995    -1916213.449 9  -1494642.61548  20848628.495    20848635.4844
  23821953.465     4175819.830 8   3248767.79145  23821952.765    23821963.2354
  22140224.805   -17437806.636 9 -13473539.28447  22140224.282    22140232.6404
  22335572.490   -14050698.845 8 -10936463.46246  22335572.115    22335579.9994
 01  7 19 17 39 30.0000000  0  9 18 26 17 15 06 23 22 21 03
  20230890.546   -10640217.501 9  -8286344.57548  20230890.156    20230895.8194
  22587973.721     -529250.701 8   -413146.71046  22587973.731    22587981.4794
  20597660.338     -778858.256 9   -613415.73147  20597659.867    20597667.1594
  20189935.698    -6453735.043 9  -5029544.32048  20189935.089    20189942.1784
  23336104.332    14148325.050 8  11010052.42745  23336104.051    23336114.0884
  20855117.024    -1882118.538 9  -1468075.14748  20855116.523    20855123.5334
  23834788.460     4243268.113 8   3301324.79945  23834787.930    23834798.3154
  22128023.536   -17501924.285 9 -13523501.03347  22128023.049    22128031.3914
  22321427.207   -14125032.661 8 -10994385.87046  22321426.838    22321434.7054
 01  7 19 17 40  0.0000000  0  9 18 26 17 15 06 23 22 21 03
  20229772.654   -10646091.536 9  -8290921.73248  20229772.340    20229778.0094
  22599464.818     -468864.845 8   -366092.80446  22599464.906    22599472.5254
  20602753.695     -752092.723 9   -592559.49847  20602753.231    20602760.4964
  20189897.148    -6453937.549 9  -5029702.11848  20189896.555    20189903.6484
  23356313.527    14254524.203 8  11092804.82745  23356313.231    23356323.2754
  20861669.262    -1847686.178 9  -1441244.74648  20861668.777    20861675.8014
  23847678.794     4311006.479 8   3354107.83445  23847678.116    23847688.6254
  22115875.781   -17565761.053 9 -13573243.90947  22115875.268    22115883.5834
  22307354.533   -14198984.878 8 -11052010.92746  22307354.170    22307362.0264
 01  7 19 17 40 30.0000000  0  9 18 26 17 15 06 23 22 21 03
  20228742.454   -10651505.047 9  -8295140.03748  20228742.173    20228747.8334
  22611059.585     -407933.857 8   -318614.14346  22611059.660    22611067.2884
  20607903.171     -725032.159 9   -571473.36047  20607902.676    20607909.9274
  20189920.792    -6453813.102 9  -5029605.14148  20189920.219    20189927.3144
  23376560.073    14360920.118 8  11175710.55545  23376559.815    23376569.8614
  20868285.360    -1812918.185 9  -1414152.80548  20868284.907    20868291.9064
  23860623.611     4379031.627 8   3407114.35145  23860623.034    23860633.4884
  22103781.239   -17629317.648 9 -13622768.47147  22103780.771    22103789.0904
  22293354.847   -14272553.448 8 -11109337.05146  22293354.512    22293362.3424
 01  7 19 17 41  0.0000000  0  9 18 26 17 15 06 23 22 21 03
  20227799.923   -10656458.316 9  -8298999.70948  20227799.586    20227805.2504
  22622757.649     -346459.598 8   -270712.17146  22622757.831    22622765.4504
  20613108.921     -697675.883 9   -550156.79447  20613108.442    20613115.6954
  20190006.836    -6453360.839 9  -5029252.72148  20190006.309    20190013.3824
  23396843.637    14467510.997 8  11258768.19345  23396843.403    23396853.4474
  20874965.118    -1777815.691 9  -1386800.21748  20874964.693    20874971.6814
  23873622.444     4447340.583 8   3460341.98545  23873621.855    23873632.3634
  22091740.372   -17692592.894 9 -13672073.79647  22091739.907    22091748.1634
  22279428.579   -14345735.860 8 -11166362.26246  22279428.312    22279436.1504
 01  7 19 17 41 30.0000000  0  9 18 26 17 15 06 23 22 21 03
  20226944.816   -10660951.894 9  -8302501.18548  20226944.458    20226950.1224
  22634558.837     -284443.919 8   -222388.27146  22634559.021    22634566.6084
  20618371.015     -670023.420 9   -528609.42147  20618370.559    20618377.8184
  20190155.455    -6452579.951 9  -5028644.23648  20190154.907    20190161.9904
  23417164.107    14574295.137 8  11341976.46145  23417164.014    23417173.9064
  20881708.357    -1742379.911 9  -1359187.92448  20881707.895    20881714.8944
  23886674.844     4515930.854 8   3513788.82545  23886674.289    23886684.8274
  22079753.075   -17755586.291 9 -13721159.50447  22079752.596    22079760.8414
  22265576.424   -14418529.367 8 -11223084.44346  22265576.172    22265583.9734
 01  7 19 17 42  0.0000000  0  9 18 26 17 15 06 23 22 21 03
  20226176.847   -10664987.443 9  -8305645.75548  20226176.499    20226182.1664
  22646462.439     -221890.068 8   -173645.05446  22646462.650    22646470.1744
  20623689.328     -642075.417 9   -506831.75647  20623688.867    20623696.1214
  20190366.376    -6451471.491 9  -5027780.50148  20190365.821    20190372.9014
  23437520.746    14681269.307 8  11425332.73545  23437520.542    23437530.7794
  20888514.495    -1706613.519 9  -1331318.01348  20888514.043    20888521.0484
  23899780.339     4584799.208 8   3567452.35845  23899779.667    23899790.1414
  22067819.242   -17818298.672 9 -13770026.23647  22067818.797    22067827.0364
  22251798.547   -14490932.710 8 -11279502.59446  22251798.251    22251806.0554
 01  7 19 17 42 30.0000000  0  9 18 26 17 15 06 23 22 21 03
  20225496.051   -10668565.375 9  -8308433.74148  20225495.661    20225501.3084
  22658468.209     -158799.837 8   -124483.85946  22658468.329    22658475.8954
  20629063.970     -613831.661 9   -484823.64547  20629063.506    20629070.7674
  20190639.840    -6450034.565 9  -5026660.81448  20190639.271    20190646.3364
  23457913.081    14788431.486 8  11508835.54045  23457912.855    23457923.0714
  20895383.267    -1670517.856 9  -1303191.52647  20895382.798    20895389.8104
  23912938.145     4653943.152 8   3621330.67045  23912937.358    23912947.9254
  22055939.060   -17880728.970 9 -13818673.17047  22055938.662    22055946.8924
  22238095.448   -14562942.944 8 -11335614.42446  22238095.107    22238102.8894
 01  7 19 17 43  0.0000000  0  9 18 26 17 15 06 23 22 21 03
  20224902.048   -10671686.272 9  -8310865.60148  20224901.752    20224907.3944
  22670575.502      -95175.428 8    -74906.43246  22670575.597    22670583.2824
  20634494.955     -585291.520 9   -462584.59047  20634494.487    20634501.7674
  20190975.879    -6448268.666 9  -5025284.78748  20190975.299    20190982.3774
  23478340.977    14895779.735 8  11592483.35945  23478340.853    23478350.7914
  20902314.444    -1634094.362 9  -1274809.59047  20902313.979    20902320.9944
  23926147.642     4723359.521 8   3675421.25845  23926146.983    23926157.4524
  22044112.712   -17942876.467 9 -13867099.73447  22044112.329    22044120.5754
  22224467.523   -14634557.694 8 -11391418.08946  22224467.251    22224475.0224
 01  7 19 17 43 30.0000000  0  9 18 26 17 15 06 23 22 21 03
  20224395.081   -10674350.676 9  -8312941.74848  20224394.743    20224400.3964
  22682784.000      -31018.872 8    -24914.34046  22682784.145    22682791.9984
  20639982.464     -556454.607 9   -440114.28047  20639981.988    20639989.2684
  20191374.630    -6446173.298 9  -5023652.02648  20191374.053    20191381.1254
  23498803.756    15003312.050 8  11676274.53345  23498803.677    23498813.8674
  20909307.755    -1597344.418 9  -1246173.27347  20909307.268    20909314.2684
  23939408.593     4793045.318 8   3729721.79845  23939407.783    23939418.2504
  22032340.275   -18004740.756 9 -13915305.62047  22032339.889    22032348.1274
  22210915.404   -14705774.317 8 -11446911.53046  22210915.144    22210922.8924
 01  7 19 17 44  0.0000000  0  9 18 26 17 15 06 23 22 21 03
  20223974.794   -10676559.626 9  -8314662.99647  20223974.384    20223980.0294
  22695093.529       33667.492 8     25490.58646  22695093.644    22695101.4334
  20645526.409     -527320.961 9   -417412.75147  20645525.930    20645533.2494
  20191836.103    -6443748.122 9  -5021762.27648  20191835.533    20191842.6104
  23519301.346    15111026.309 8  11760207.51945  23519301.286    23519311.4614
  20916362.811    -1560269.693 9  -1217283.88447  20916362.344    20916369.3744
  23952720.163     4862998.026 8   3784230.33445  23952719.377    23952729.9624
  22020621.703   -18066321.839 9 -13963290.81447  22020621.341    22020629.5744
  22197439.546   -14776590.511 8 -11502092.94846  22197439.243    22197446.9954
 01  7 19 17 44 30.0000000  0  9 18 26 17 15 06 23 22 21 03
  20223640.770   -10678314.377 9  -8316030.33247  20223640.415    20223646.0754
  22707503.220       98880.670 8     76306.02046  22707503.422    22707511.0534
  20651126.787     -497890.809 9   -394480.17247  20651126.323    20651133.6254
  20192360.333    -6440993.028 9  -5019615.44748  20192359.790    20192366.8754
  23539833.006    15218919.661 8  11844280.02745  23539832.893    23539843.2134
  20923479.312    -1522872.366 9  -1188143.12047  20923478.817    20923485.8304
  23966081.844     4933214.551 8   3838944.40445  23966081.197    23966091.9034
  22008957.099   -18127619.602 9 -14011055.25047  22008956.736    22008964.9484
  22184040.060   -14847004.634 8 -11556961.06546  22184039.819    22184047.5984
 01  7 19 17 45  0.0000000  0  9 18 26 17 15 06 23 22 21 03
  20223393.186   -10679615.359 9  -8317044.07947  20223392.847    20223398.5164
  22720012.925      164619.055 8    127530.69846  22720013.122    22720020.6824
  20656783.699     -468163.423 9   -371315.98547  20656783.266    20656790.5884
  20192947.508    -6437907.393 9  -5017211.05448  20192946.964    20192954.0584
  23560398.299    15326990.279 8  11928490.71945  23560398.246    23560408.5044
  20930656.980    -1485153.539 9  -1158751.83547  20930656.478    20930663.4834
  23979493.402     5003692.181 8   3893861.95545  23979492.792    23979503.4234
  21997346.632   -18188633.045 9 -14058598.14147  21997346.214    21997354.4214
  22170717.775   -14917013.902 8 -11611513.71646  22170717.501    22170725.2744
 01  7 19 17 45 30.0000000  0  9 18 26 17 15 06 23 22 21 03
  20223231.777   -10680463.519 9  -8317704.97647  20223231.428    20223237.1014
  22732622.046      230880.000 8    179162.57246  22732622.243    22732629.7994
  20662497.196     -438138.748 9   -347920.14247  20662496.771    20662504.0914
  20193597.597    -6434491.082 9  -5014548.99748  20193597.074    20193604.1734
  23580996.876    15435235.811 8  12012837.67045  23580996.856    23581007.1654
  20937895.492    -1447115.050 9  -1129111.46747  20937894.987    20937901.9954
  23992954.136     5074427.510 8   3948980.28645  23992953.364    23992964.0554
  21985790.097   -18249362.558 9 -14105919.78747  21985789.715    21985797.9154
  22157472.804   -14986616.277 8 -11665749.31846  22157472.581    22157480.3234
 01  7 19 17 46  0.0000000  0  9 18 26 17 15 06 23 22 21 03
  20223156.321   -10680859.648 9  -8318013.64747  20223156.050    20223161.7114
  22745330.123      297661.059 8    231199.73046  22745330.236    22745337.7964
  20668267.286     -407816.768 9   -324292.63447  20668266.876    20668274.1884
  20194310.746    -6430743.571 9  -5011628.85548  20194310.220    20194317.3054
  23601628.262    15543653.870 8  12097319.04245  23601628.172    23601638.6694
  20945194.511    -1408758.565 9  -1099223.30647  20945193.974    20945200.9954
  24006463.121     5145417.531 7   4004297.08445  24006462.272    24006472.9814
  21974287.767   -18309807.674 9 -14153019.82547  21974287.367    21974295.5334
  22144305.750   -15055809.264 8 -11719665.89546  22144305.576    22144313.3134
 01  7 19 17 46 30.0000000  0  9 18 26 17 15 06 23 22 21 03
  20223166.869   -10680804.257 9  -8317970.48047  20223166.573    20223172.2564
  22758136.836      364960.399 8    283640.75546  22758136.940    22758144.4724
  20674094.105     -377196.795 9   -300432.93547  20674093.663    20674100.9494
  20195087.012    -6426664.171 9  -5008450.10448  20195086.503    20195093.5884
  23622292.176    15652242.793 8  12181933.53545  23622291.968    23622302.6934
  20952553.767    -1370085.240 9  -1069088.26247  20952553.259    20952560.2924
  24020020.209     5216660.379 7   4059810.90245  24020019.366    24020030.1334
  21962839.618   -18369967.620 9 -14199897.64747  21962839.273    21962847.4424
  22131217.202   -15124590.049 8 -11773261.28146  22131217.027    22131224.7614
 01  7 19 17 47  0.0000000  0  9 18 26 17 15 06 23 22 21 03
  20223263.084   -10680298.505 9  -8317576.38847  20223262.806    20223268.4964
  22771041.480      432775.157 8    336483.40046  22771041.686    22771049.1994
  20679977.585     -346279.004 9   -276341.16247  20679977.130    20679984.4304
  20195926.475    -6422252.758 9  -5005012.63848  20195925.961    20195933.0224
  23642988.084    15760999.955 8  12266679.15045  23642987.909    23642998.8524
  20959973.002    -1331097.062 9  -1038707.87047  20959972.473    20959979.5094
  24033624.781     5288152.726 7   4115519.13545  24033623.959    24033634.6614
  21951445.763   -18429842.530 9 -14246553.36547  21951445.401    21951453.5684
  22118207.559   -15192956.673 8 -11826533.93946  22118207.253    22118214.9914
 01  7 19 17 47 30.0000000  0  9 18 26 17 15 06 23 22 21 03
  20223444.841   -10679343.506 9  -8316832.23147  20223444.531    20223450.2184
  22784043.814      501102.985 8    389725.81946  22784043.945    22784051.5874
  20685917.775     -315063.257 9   -252017.23447  20685917.317    20685924.6034
  20196829.190    -6417509.061 9  -5001316.25348  20196828.676    20196835.7264
  23663715.628    15869923.092 8  12351554.08845  23663715.510    23663726.4984
  20967451.823    -1291795.654 9  -1008083.40547  20967451.325    20967458.3524
  24047276.430     5359891.336 7   4171419.27245  24047275.367    24047286.2414
  21940106.179   -18489432.146 9 -14292986.78547  21940105.811    21940113.9764
  22105277.148   -15260906.789 8 -11879482.04946  22105276.745    22105284.4704
 01  7 19 17 48  0.0000000  0  9 18 26 17 15 06 23 22 21 03
  20223711.934   -10677939.839 9  -8315738.46247  20223711.626    20223717.3384
  22797143.429      569941.405 8    443366.13846  22797143.506    22797151.0664
  20691914.673     -283549.371 9   -227460.99547  20691914.236    20691921.5054
  20197795.179    -6412432.656 9  -4997360.61148  20197794.698    20197801.7404
  23684474.540    15979010.092 8  12436556.68945  23684474.359    23684485.3244
  20974989.889    -1252182.623 9   -977216.11147  20974989.417    20974996.4624
  24060974.048     5431873.099 7   4227508.83845  24060973.015    24060984.0084
  21928820.983   -18548736.025 9 -14339197.54247  21928820.594    21928828.7864
  22092426.338   -15328438.136 8 -11932103.84546  22092425.922    22092433.6594
 01  7 19 17 48 30.0000000  0  9 18 26 17 15 06 23 22 21 03
  20224064.288   -10676088.281 9  -8314295.68747  20224063.982    20224069.6754
  22810339.681      639288.409 8    497402.73746  22810339.850    22810347.3294
  20697968.391     -251736.772 9   -202671.97247  20697967.985    20697975.2564
  20198824.634    -6407022.863 9  -4993145.18148  20198824.155    20198831.2024
  23705264.162    16088259.002 8  12521685.45845  23705263.848    23705274.8964
  20982587.085    -1212259.377 9   -946107.09347  20982586.577    20982593.5924
  24074717.486     5504095.571 7   4283786.02245  24074716.580    24074727.6104
  21917590.338   -18607753.352 9 -14385185.01647  21917589.918    21917598.1214
  22079655.596   -15395548.365 8 -11984397.49946  22079655.263    22079662.9704
 01  7 19 17 49  0.0000000  0  9 18 26 17 15 06 23 22 21 03
  20224501.617   -10673790.020 9  -8312504.83747  20224501.309    20224507.0084
  22823632.215      709141.463 8    551833.63546  22823632.348    22823639.9754
  20704079.008     -219625.288 9   -177650.02647  20704078.605    20704085.9084
  20199917.581    -6401279.538 9  -4988669.86548  20199917.068    20199924.1154
  23726083.927    16197667.441 7  12606938.50845  23726083.674    23726095.0274
  20990242.962    -1172027.684 9   -914757.72947  20990242.447    20990249.4434
  24088506.545     5576556.185 7   4340248.75445  24088505.465    24088516.5024
  21906414.161   -18666484.356 9 -14430949.38747  21906413.755    21906421.9444
  22066965.376   -15462235.241 8 -12036361.27446  22066965.158    22066972.8444
 01  7 19 17 49 30.0000000  0  9 18 26 17 15 06 23 22 21 03
  20225023.765   -10671045.976 9  -8310366.61547  20225023.498    20225029.2034
  22837020.701      779497.780 8    606656.73046  22837020.810    22837028.5084
  20710246.515     -187215.001 9   -152395.25347  20710246.095    20710253.3834
  20201073.998    -6395202.527 9  -4983934.53548  20201073.488    20201080.5274
  23746933.790    16307232.902 7  12692313.94345  23746933.439    23746944.7894
  20997957.199    -1131489.259 9   -883169.35147  20997956.647    20997963.6424
  24102340.049     5649251.670 7   4396894.46445  24102339.037    24102349.8814
  21895292.556   -18724928.650 9 -14476490.34747  21895292.145    21895300.3014
  22054356.194   -15528496.579 8 -12087993.45746  22054356.027    22054363.6814
 01  7 19 17 50  0.0000000  0  9 18 26 17 15 06 23 22 21 03
  20225630.566   -10667857.205 9  -8307881.85547  20225630.287    20225636.0024
  22850504.337      850354.838 8    661869.98946  22850504.514    22850512.3034
  20716470.854     -154505.999 9   -126907.73447  20716470.416    20716477.7064
  20202294.003    -6388791.503 9  -4978938.93848  20202293.453    20202300.5034
  23767813.028    16416952.979 7  12777809.81545  23767812.766    23767823.9854
  21005729.408    -1090646.026 9   -851343.46547  21005728.886    21005735.8634
  24116217.687     5722178.390 7   4453720.38945  24116216.810    24116227.6484
  21884225.443   -18783086.616 9 -14521808.18847  21884225.026    21884233.1594
  22041828.455   -15594330.442 8 -12139292.54746  22041828.250    22041835.8824
 01  7 19 17 50 30.0000000  0  9 18 26 17 15 06 23 22 21 03
  20226321.864   -10664224.518 9  -8305051.18947  20226321.549    20226327.2614
  22864082.961      921710.282 8    717471.57546  22864082.985    22864090.8394
  20722752.139     -121497.958 9   -101187.19647  20722751.658    20722758.9484
  20203577.670    -6382046.073 9  -4973682.76048  20203577.075    20203584.1134
  23788721.080    16526825.718 7  12863424.65545  23788720.981    23788732.4084
  21013559.303    -1049499.465 9   -819281.21647  21013558.836    21013565.8264
  24130138.583     5795333.585 7   4510724.34945  24130137.634    24130148.5384
  21873212.971   -18840957.487 9 -14566902.33247  21873212.540    21873220.6404
  22029382.597   -15659734.513 8 -12190256.73846  22029382.246    22029389.8964
 01  7 19 17 51  0.0000000  0  9 18 26 17 15 06 23 22 21 03
  20227097.546   -10660148.306 9  -8301874.92347  20227097.252    20227102.9474
  22877755.975      993561.953 8    773459.89946  22877755.999    22877763.7004
  20729090.415      -88190.024 9    -75232.98147  20729089.950    20729097.2324
  20204925.122    -6374965.276 9  -4968165.25348  20204924.522    20204931.5584
  23809657.988    16636849.282 7  12949157.04445  23809658.046    23809669.3454
  21021446.805    -1008050.624 9   -786983.42647  21021446.306    21021453.2714
  24144102.858     5868715.279 8   4567904.78245  24144101.875    24144112.7694
  21862255.261   -18898540.253 9 -14611771.97847  21862254.876    21862262.9364
  22017018.864   -15724705.932 8 -12240883.80546  22017018.606    22017026.2264
 01  7 19 17 51 30.0000000  0  9 18 26 17 15 06 23 22 21 03
  20227957.386   -10655629.838 9  -8298354.04247  20227957.047    20227962.7784
  22891522.744     1065907.322 8    829832.86546  22891522.908    22891530.6344
  20735485.764      -54582.219 9    -49045.11047  20735485.312    20735492.6064
  20206336.457    -6367548.979 9  -4962386.32748  20206335.795    20206342.8394
  23830623.114    16747021.293 7  13035005.10045  23830623.172    23830634.3664
  21029391.426     -966301.419 9   -754451.58947  21029390.926    21029397.8864
  24158109.543     5942320.639 7   4625259.50445  24158108.679    24158119.3824
  21851352.355   -18955835.620 9 -14656417.67847  21851351.914    21851359.9864
  22004737.804   -15789242.559 8 -12291172.06846  22004737.657    22004745.2704
 01  7 19 17 52  0.0000000  0  9 18 26 17 15 06 23 22 21 03
  20228901.078   -10650670.725 9  -8294489.79947  20228900.773    20228906.4814
  22905383.037     1138743.205 8    886588.05946  22905383.093    22905390.9294
  20741938.098      -20675.185 9    -22624.06247  20741937.655    20741944.9484
  20207811.524    -6359797.343 9  -4956346.09348  20207810.874    20207817.9134
  23851615.962    16857338.879 7  13120966.59145  23851616.050    23851627.3984
  21037392.744     -924254.004 9   -721687.37647  21037392.266    21037399.2494
  24172158.127     6016145.707 8   4682785.44045  24172157.174    24172167.8114
  21840503.947   -19012843.765 9 -14700839.56047  21840503.574    21840511.6374
  21992539.955   -15853342.686 8 -12341120.16946  21992539.822    21992547.4494
 01  7 19 17 52 30.0000000  0  9 18 26 17 15 06 23 22 21 03
  20229928.525   -10645271.516 9  -8290282.62247  20229928.212    20229933.9254
  22919336.277     1212067.327 8    943723.74246  22919336.304    22919344.1184
  20748447.469       13531.754 9      4030.67847  20748447.029    20748454.2914
  20209350.563    -6351709.783 9  -4950044.10848  20209349.908    20209356.9514
  23872636.486    16967800.001 7  13207039.90845  23872636.467    23872647.8754
  21045450.555     -881909.691 9   -688691.81947  21045450.118    21045457.0894
  24186247.763     6090187.348 8   4740480.11845  24186246.840    24186257.6174
  21829710.468   -19069563.878 9 -14745037.01247  21829710.076    21829718.1084
  21980425.606   -15917003.982 8 -12390726.33847  21980425.468    21980433.0554
 01  7 19 17 53  0.0000000  0  9 18 26 17 15 06 23 22 21 03
  20231039.529   -10639433.153 9  -8285733.25147  20231039.203    20231044.9234
  22933381.586     1285877.539 8   1001238.13446  22933381.799    22933389.7234
  20755014.012       48039.005 9     30919.44047  20755013.563    20755020.8274
  20210953.592    -6343285.714 9  -4943479.90648  20210952.948    20210959.9974
  23893683.675    17078402.734 7  13293223.52145  23893683.656    23893695.3564
  21053564.694     -839269.794 9   -655465.94047  21053564.221    21053571.2134
  24200378.361     6164443.360 8   4798341.83445  24200377.337    24200388.3154
  21818971.890   -19125995.298 9 -14789009.50447  21818971.510    21818979.5324
  21968395.302   -15980223.866 8 -12439988.56047  21968395.077    21968402.6664
 01  7 19 17 53 30.0000000  0  9 18 26 17 15 06 23 22 21 03
  20232233.855   -10633156.879 9  -8280842.64847  20232233.546    20232239.2624
  22947519.257     1360170.967 8   1059129.07946  22947519.353    22947527.1934
  20761637.633       82846.413 9     58042.07947  20761637.188    20761644.4654
  20212620.619    -6334525.117 9  -4936653.47148  20212620.014    20212627.0794
  23914757.161    17189144.365 8  13379515.40045  23914757.167    23914768.9974
  21061734.689     -796336.314 9   -622011.29047  21061734.225    21061741.2044
  24214549.205     6238910.752 8   4856368.26745  24214548.107    24214559.1264
  21808288.108   -19182138.733 9 -14832757.59447  21808287.727    21808295.7454
  21956449.469   -16043000.435 8 -12488905.34347  21956449.087    21956456.6774
 01  7 19 17 54  0.0000000  0  9 18 26 17 15 06 23 22 21 03
  20233511.316   -10626443.638 9  -8275611.55247  20233511.022    20233516.7394
  22961748.315     1434944.718 8   1117394.31646  22961748.482    22961756.2654
  20768318.417      117954.038 9     85398.65147  20768317.983    20768325.2434
  20214351.836    -6325427.611 9  -4929564.51248  20214351.246    20214358.3044
  23935856.941    17300022.680 8  13465913.82345  23935856.910    23935868.6624
  21069960.200     -753111.111 9   -588329.33347  21069959.720    21069966.6774
  24228759.442     6313586.608 8   4914557.15745  24228758.459    24228769.5774
  21797659.268   -19237993.507 9 -14876280.75347  21797658.875    21797666.8714
  21944588.078   -16105331.947 8 -12537475.33647  21944587.748    21944595.3634
 01  7 19 17 54 30.0000000  0  9 18 26 17 15 06 23 22 21 03
  20234871.798   -10619294.314 9  -8270040.65147  20234871.490    20234877.1924
  22976068.076     1510196.596 8   1176032.08046  22976068.288    22976076.2434
  20775056.335      153362.255 9    112989.45047  20775055.948    20775063.2284
  20216147.227    -6315992.713 9  -4922212.65648  20216146.623    20216153.6814
  23956982.354    17411035.595 7  13552417.09645  23956982.265    23956994.0734
  21078241.039     -709595.399 9   -554421.00247  21078240.498    21078247.4764
  24243009.125     6388467.637 8   4972905.93045  24243007.994    24243019.0504
  21787085.496   -19293559.185 9 -14919578.64947  21787085.085    21787093.0514
  21932811.827   -16167215.811 8 -12585696.51647  21932811.621    21932819.2574
 01  7 19 17 55  0.0000000  0  9 18 26 17 15 06 23 22 21 03
  20236315.090   -10611709.825 9  -8264130.66247  20236314.791    20236320.4854
  22990478.580     1585924.127 8   1235040.51546  22990478.744    22990486.8064
  20781851.638      189071.487 9    140814.81247  20781851.204    20781858.4824
  20218006.952    -6306219.926 9  -4914597.50948  20218006.335    20218013.3794
  23978132.896    17522181.054 8  13639023.60345  23978132.854    23978144.6734
  21086576.814     -665790.734 9   -520287.51447  21086576.257    21086583.2294
  24257297.034     6463550.880 8   5031412.25445  24257296.043    24257306.9854
  21776566.595   -19348835.938 9 -14962651.40447  21776566.217    21776574.1744
  21921121.319   -16228649.667 8 -12633567.04047  21921121.144    21921128.7544
 01  7 19 17 55 30.0000000  0  9 18 26 17 15 06 23 22 21 03
  20237841.016   -10603691.171 9  -8257882.36247  20237840.704    20237846.3964
  23004979.052     1662124.657 8   1294417.50646  23004979.283    23004987.2384
  20788704.184      225081.747 9    168874.74947  20788703.730    20788711.0254
  20219931.046    -6296108.917 9  -4906718.80848  20219930.423    20219937.4694
  23999308.216    17633456.573 8  13725731.51245  23999308.194    23999319.9534
  21094967.203     -621698.674 9   -485930.07947  21094966.688    21094973.6564
  24271622.957     6538833.928 8   5090074.27945  24271621.995    24271632.9704
  21766102.821   -19403823.424 9 -15005498.75547  21766102.401    21766110.3614
  21909516.958   -16289631.202 8 -12681085.10347  21909516.747    21909524.3374
 01  7 19 17 56  0.0000000  0  9 18 26 17 15 06 23 22 21 03
  20239449.272   -10595239.974 9  -8251297.01947  20239448.941    20239454.6234
  23019568.987     1738795.173 8   1354160.70146  23019569.214    23019577.2284
  20795613.945      261392.907 9    197169.14547  20795613.506    20795620.8214
  20221919.447    -6285659.808 9  -4898576.65348  20221918.797    20221925.8414
  24020507.835    17744859.675 8  13812538.78045  24020507.838    24020519.5734
  21103411.942     -577321.365 9   -451350.37947  21103411.412    21103418.3964
  24285986.101     6614313.494 8   5148889.39145  24285985.301    24285996.5494
  21755694.003   -19458521.790 9 -15048120.82347  21755693.607    21755701.5624
  21897999.097   -16350158.722 8 -12728249.37947  21897998.731    21898006.2994
 01  7 19 17 56 30.0000000  0  9 18 26 17 15 06 23 22 21 03
  20241139.644   -10586356.995 9  -8244375.22147  20241139.311    20241144.9924
  23034248.007     1815933.164 8   1414268.22146  23034248.162    23034256.0874
  20802581.031      298005.202 9    225698.18247  20802580.613    20802587.9274
  20223972.296    -6274872.037 9  -4890170.61248  20223971.646    20223978.7154
  24041731.437    17856388.273 8  13899443.87345  24041731.405    24041742.8314
  21111910.731     -532660.184 9   -416549.47147  21111910.179    21111917.1764
  24300386.328     6689986.703 8   5207855.42145  24300385.503    24300396.7284
  21745340.321   -19512930.514 9 -15090517.19347  21745339.955    21745347.8824
  21886567.892   -16410230.016 8 -12775058.15047  21886567.495    21886575.0954
 01  7 19 17 57  0.0000000  0  9 18 26 17 15 06 23 22 21 03
  20242911.968   -10577043.349 9  -8237117.84248  20242911.654    20242917.3114
  23049015.384     1893536.126 8   1474737.98846  23049015.588    23049023.5074
  20809605.547      334918.947 9    254462.12847  20809605.120    20809612.3864
  20226089.680    -6263744.997 9  -4881500.21148  20226089.050    20226096.1174
  24062978.281    17968040.126 7  13986444.97745  24062978.307    24062989.8044
  21120463.173     -487716.766 9   -381528.63847  21120462.628    21120469.6304
  24314822.828     6765850.069 8   5266969.62945  24314821.969    24314833.1344
  21735041.641   -19567050.023 9 -15132688.19547  21735041.314    21735049.2584
  21875223.833   -16469843.081 8 -12821509.86747  21875223.478    21875231.0954
 01  7 19 17 57 30.0000000  0  9 18 26 17 15 06 23 22 21 03
  20244766.114   -10567299.879 9  -8229525.53148  20244765.790    20244771.4464
  23063870.773     1971601.397 8   1535568.03046  23063870.914    23063878.8084
  20816687.384      372134.247 9    283461.04247  20816686.938    20816694.2634
  20228271.661    -6252278.509 9  -4872565.29848  20228271.049    20228278.1244
  24084248.106    18079812.948 7  14073540.31445  24084248.212    24084259.8084
  21129069.013     -442492.626 9   -346289.06347  21129068.510    21129075.5344
  24329294.923     6841900.917 8   5326229.91745  24329294.020    24329305.2294
  21724798.135   -19620879.846 9 -15174633.47647  21724797.825    21724805.7624
  21863967.379   -16528995.531 8 -12867602.66747  21863967.130    21863974.7404
 01  7 19 17 58  0.0000000  0  9 18 26 17 15 06 23 22 21 03
  20246701.834   -10557127.772 9  -8221599.21948  20246701.470    20246707.1414
  23078813.735     2050126.471 8   1596756.37746  23078813.850    23078821.6934
  20823826.616      409651.382 9    312695.15647  20823826.215    20823833.5294
  20230518.316    -6240472.345 9  -4863365.70448  20230517.704    20230524.8154
  24105540.702    18191704.819 7  14160728.42145  24105540.741    24105552.3934
  21137728.059     -396989.388 9   -310832.01247  21137727.496    21137734.5084
  24343802.248     6918137.020 7   5385634.56145  24343801.387    24343812.6924
  21714609.880   -19674419.522 9 -15216352.66947  21714609.529    21714617.4444
  21852799.104   -16587685.058 8 -12913334.74647  21852798.872    21852806.4764
 01  7 19 17 58 30.0000000  0  9 18 26 17 15 06 23 22 21 03
  20248718.731   -10546528.590 9  -8213340.12748  20248718.424    20248724.0984
  23093843.413     2129108.032 8   1658300.39446  23093843.494    23093851.4214
  20831023.288      447469.887 9    342164.10047  20831022.843    20831030.1344
  20232829.590    -6228326.673 9  -4853901.56248  20232828.964    20232836.0604
  24126855.539    18303712.538 7  14248006.81245  24126855.374    24126867.0754
  21146439.700     -351209.328 9   -275159.25847  21146439.165    21146446.2034
  24358344.158     6994554.649 8   5445180.63845  24358343.170    24358354.6184
  21704476.709   -19727669.495 9 -15257846.12047  21704476.374    21704484.2804
  21841719.218   -16645910.492 8 -12958705.19447  21841718.923    21841726.5114
 01  7 19 17 59  0.0000000  0 10 18 26 17 15 06 23 22 21 31 03
  20250816.255   -10535506.439 9  -8204751.44248  20250815.882    20250821.5384
  23108958.995     2208540.446 8   1720195.76946  23108959.101    23108966.9164
  20838276.763      485587.143 9    371865.83647  20838276.331    20838283.6294
  20235204.962    -6215843.947 9  -4844174.77948  20235204.339    20235211.4224
  24148191.443    18415831.077 7  14335371.53345  24148191.264    24148202.8834
  21155203.192     -305156.949 9   -239274.31147  21155202.648    21155209.6904
  24372919.357     7071147.566 8   5504863.31045  24372918.449    24372929.8964
  21694398.202   -19780632.161 9 -15299115.69147  21694397.891    21694405.8004
  24424642.180    -3378047.021 8  -2324732.75445  24424641.532    24424650.8854
  21830727.482   -16703672.442 8 -13003714.48847  21830727.172    21830734.7564
 01  7 19 17 59 30.0000000  0 10 18 26 17 15 06 23 22 21 31 03
  20252994.450   -10524059.595 9  -8195831.83448  20252994.164    20252999.8194
  23124160.367     2288423.893 8   1782442.56546  23124160.526    23124168.2664
  20845587.690      524005.926 9    401802.53747  20845587.211    20845594.5134
  20237645.094    -6203021.027 9  -4834182.91148  20237644.470    20237651.5624
  24169548.453    18528060.924 7  14422822.99945  24169548.269    24169559.9414
  21164018.711     -258831.112 9   -203176.28047  21164018.185    21164025.2264
  24387527.812     7147915.386 8   5564682.29345  24387527.036    24387538.4354
  21684374.867   -19833305.242 9 -15340159.61647  21684374.480    21684382.4164
  24405444.378    -3478930.666 8  -2403343.35845  24405444.133    24405453.2554
  21819824.954   -16760966.066 8 -13048358.84647  21819824.560    21819832.1454
 01  7 19 18  0  0.0000000  0 10 18 26 17 15 06 23 22 21 31 03
  20255253.829   -10512186.802 9  -8186580.31148  20255253.490    20255259.1464
  23139447.507     2368758.007 8   1845040.53146  23139447.594    23139455.2994
  20852956.379      562728.878 9    431976.25347  20852955.929    20852963.2634
  20240150.411    -6189855.394 9  -4823923.98748  20240149.816    20240156.9414
  24190926.507    18640402.203 7  14510361.24345  24190926.559    24190938.0444
  21172886.384     -212231.022 9   -166864.53847  21172885.876    21172892.9084
  24402169.585     7224858.003 8   5624637.47145  24402168.730    24402180.1864
  21674407.099   -19885685.885 9 -15380975.66347  21674406.761    21674414.6734
  24386288.564    -3579595.342 8  -2481783.37645  24386288.295    24386297.2104
  21809012.238   -16817786.956 8 -13092634.85647  21809011.895    21809019.4504
 01  7 19 18  0 30.0000000  0 10 18 26 17 15 06 23 22 21 31 03
  20257593.848   -10499889.961 9  -8176998.36648  20257593.510    20257599.1624
  23154819.689     2449539.252 8   1907986.91346  23154819.812    23154827.5174
  20860382.838      601755.218 9    462386.36747  20860382.418    20860389.7634
  20242720.891    -6176347.428 9  -4813398.30948  20242720.316    20242727.4304
  24212325.264    18752851.827 7  14597983.95945  24212325.226    24212337.0174
  21181805.881     -165358.957 9   -130340.87547  21181805.341    21181812.3974
  24416843.910     7301971.892 7   5684726.10545  24416843.150    24416854.5644
  21664494.825   -19937775.245 9 -15421564.74247  21664494.453    21664502.3634
  24367174.845    -3680038.736 7  -2560050.88745  24367174.486    24367183.5414
  21798289.680   -16874133.970 8 -13136541.61047  21798289.398    21798296.9424
 01  7 19 18  1  0.0000000  0 10 18 26 17 15 06 23 22 21 31 03
  20260014.243   -10487170.883 9  -8167087.40548  20260013.894    20260019.5384
  23170276.352     2530764.334 8   1971279.14746  23170276.451    23170284.1494
  20867867.014      641084.613 9    493032.63147  20867866.576    20867873.9184
  20245356.511    -6162497.310 9  -4802606.01748  20245355.912    20245363.0394
  24233743.619    18865407.059 7  14685688.97745  24233744.018    24233756.1944
  21190776.678     -118217.113 9    -93606.99847  21190776.151    21190783.2414
  24431550.227     7379253.448 7   5744945.37545  24431549.600    24431560.8444
  21654637.897   -19989573.690 9 -15461927.13547  21654637.516    21654645.3974
  24348103.595    -3780259.135 8  -2638144.62545  24348103.069    24348112.3874
  21787657.597   -16930005.424 8 -13180077.79747  21787657.389    21787664.9444
 01  7 19 18  1 30.0000000  0 10 18 26 17 15 06 23 22 21 31 03
  20262514.771   -10474030.504 9  -8156848.15448  20262514.443    20262520.0774
  23185816.906     2612430.532 8   2034915.09946  23185816.973    23185824.8754
  20875408.819      680717.179 9    523915.13047  20875408.396    20875415.7304
  20248057.309    -6148304.695 9  -4791546.84948  20248056.712    20248063.8144
  24255181.775    18978065.707 7  14773474.50045  24255182.087    24255194.8974
  21199798.459      -70807.160 9    -56664.20447  21199797.975    21199805.0414
  24446287.937     7456699.193 7   5805292.62845  24446287.137    24446298.4194
  21644836.416   -20041080.733 9 -15502062.46247  21644836.052    21644843.9124
  24329075.430    -3880253.833 7  -2716062.53345  24329074.642    24329083.9824
  21777116.484   -16985399.286 8 -13223241.82847  21777116.316    21777123.8504
 01  7 19 18  2  0.0000000  0 10 18 26 17 15 06 23 22 21 31 03
  20265095.213   -10460470.368 9  -8146281.81948  20265094.847    20265100.4704
  23201440.868     2694534.908 8   2098892.50646  23201441.056    23201448.9074
  20883008.307      720652.730 9    555033.72047  20883007.884    20883015.2734
  20250823.264    -6133769.536 9  -4780220.76148  20250822.637    20250829.7544
  24276639.527    19090824.917 7  14861338.44445  24276639.453    24276652.5794
  21208870.951      -23131.058 9    -19514.01847  21208870.474    21208877.5264
  24461056.155     7534306.033 7   5865765.39645  24461055.223    24461066.5014
  21635090.273   -20092296.822 9 -15541971.07547  21635089.939    21635097.7714
  24310090.270    -3980020.557 7  -2793802.78045  24310089.486    24310098.8404
  21766666.546   -17040313.979 8 -13266032.48547  21766666.400    21766673.9224
 01  7 19 18  2 30.0000000  0 10 18 26 17 15 06 23 22 21 31 03
  20267755.263   -10446491.919 9  -8135389.52548  20267754.865    20267760.5094
  23217147.696     2777074.396 8   2163208.95746  23217147.753    23217155.7084
  20890665.436      760891.209 9    586388.35547  20890665.013    20890672.4264
  20253654.376    -6118891.848 9  -4768627.77448  20253653.777    20253660.8924
  24298115.668    19203682.278 7  14949278.87545  24298115.455    24298128.5714
  21217993.747       24809.502 9     17842.23447  21217993.269    21218000.3234
  24475854.429     7612071.132 7   5926361.46045  24475853.480    24475864.8434
  21625399.543   -20143222.054 9 -15581653.04347  21625399.138    21625407.0004
  24291149.123    -4079556.751 8  -2871363.33945  24291148.298    24291157.7674
  21756308.191   -17094747.557 8 -13308448.24247  21756308.001    21756315.5274
 01  7 19 18  3  0.0000000  0 11 14 18 26 17 15 06 23 22 21 31 03
  24541823.647     -607422.48544                  24541823.559    24541836.1724
  20270494.643   -10432096.215 9  -8124172.09948  20270494.289    20270499.9304
  23232936.731     2860046.396 8   2227862.42745  23232936.833    23232944.7724
  20898380.273      801432.831 9    617979.20647  20898379.833    20898387.2414
  20256550.829    -6103671.058 9  -4756767.43648  20256550.232    20256557.3484
  24319610.365    19316635.525 7  15037294.02645  24319610.023    24319623.4774
  21227166.561       73012.843 9     55403.26147  21227166.069    21227173.1584
  24490682.456     7689991.819 7   5987078.79445  24490681.354    24490692.7514
  21615764.240   -20193855.962 9 -15621108.00247  21615763.808    21615771.6714
  24272252.378    -4178859.738 7  -2948742.27945  24272251.500    24272260.9724
  21746041.758   -17148697.986 8 -13350487.52447  21746041.569    21746049.0754
 01  7 19 18  3 30.0000000  0 11 14 18 26 17 15 06 23 22 21 31 03
  24519870.859     -913454.279 7   -697315.11745  24519870.237    24519881.7364
  20273313.108   -10417285.041 9  -8112630.93148  20273312.778    20273318.3984
  23248807.374     2943447.402 8   2292850.18945  23248807.455    23248815.4764
  20906152.654      842277.105 9    649805.89747  20906152.252    20906159.6944
  20259512.440    -6088107.746 9  -4744640.19248  20259511.832    20259518.9544
  24341122.905    19429681.948 7  15125381.72845  24341122.521    24341135.8394
  21236388.935      121476.617 9     93167.21247  21236388.414    21236395.5154
  24505539.015     7768064.104 7   6047914.20645  24505538.029    24505549.5144
  21606184.062   -20244199.758 9 -15660336.90547  21606183.650    21606191.5064
  24253400.433    -4277927.610 7  -3025937.91145  24253399.491    24253409.1244
  21735867.583   -17202163.997 8 -13392149.33047  21735867.322    21735874.8354
 01  7 19 18  4  0.0000000  0 11 14 18 26 17 15 06 23 22 21 31 03
  24497921.897    -1028795.216 7   -787190.89045  24497920.752    24497932.6244
  20276210.525   -10402059.364 9  -8100766.77448  20276210.142    20276215.7544
  23264759.346     3027275.161 8   2358170.48145  23264759.343    23264767.3334
  20913982.808      883424.539 9    681868.81447  20913982.391    20913989.7764
  20262539.397    -6072201.185 9  -4732245.48848  20262538.796    20262545.9174
  24362652.470    19542819.483 8  15213540.50245  24362652.127    24362665.4964
  21245660.677      170199.791 9    131133.29347  21245660.136    21245667.2574
  24520423.944     7846285.094 7   6108865.53345  24520423.194    24520434.5354
  21596659.277   -20294252.540 9 -15699339.04647  21596658.894    21596666.7614
  24234593.870    -4376757.082 7  -3102947.85545  24234592.521    24234602.3714
  21725785.937   -17255143.326 8 -13433431.90647  21725785.672    21725793.1974
 01  7 19 18  4 30.0000000  0 11 14 18 26 17 15 06 23 22 21 31 03
  24475977.699    -1144111.559 8   -877047.49845  24475976.064    24475988.9934
  20279186.554   -10386420.056 9  -8088580.31148  20279186.221    20279191.8374
  23280791.773     3111526.999 8   2423821.23845  23280791.933    23280799.9424
  20921870.686      924875.394 9    714168.16047  20921870.250    20921877.6484
  20265631.722    -6055950.872 9  -4719582.91848  20265631.125    20265638.2404
  24384198.959    19656046.157 7  15301768.73145  24384198.642    24384212.2064
  21254981.530      219180.978 9    169300.43147  21254981.003    21254988.0994
  24535336.735     7924652.450 7   6169930.90545  24535335.921    24535347.5104
  21587189.890   -20344014.269 9 -15738114.38847  21587189.530    21587197.3964
  24215833.102    -4475345.319 7  -3179769.74745  24215831.827    24215841.5984
  21715797.350   -17307633.696 8 -13474333.47147  21715797.076    21715804.6144
 01  7 19 18  5  0.0000000  0 11 14 18 26 17 15 06 23 22 21 31 03
  24454038.730    -1259400.761 8   -966883.00845  24454037.932    24454050.0454
  20282241.102   -10370368.424 9  -8076072.56048  20282240.757    20282246.3634
  23296904.723     3196200.161 8   2489800.28845  23296904.828    23296912.7674
  20929816.326      966629.853 9    746704.07647  20929815.890    20929823.2704
  20268789.575    -6039356.363 9  -4706652.14548  20268788.959    20268796.0894
  24405762.047    19769359.618 7  15390064.50045  24405761.740    24405775.3544
  21264351.136      268418.558 9    207667.35647  21264350.606    21264357.7394
  24550277.061     8003163.478 7   6231108.20945  24550276.207    24550287.7434
  21577775.956   -20393484.854 9 -15776662.87147  21577775.577    21577783.4414
  24197118.799    -4573689.864 7  -3256401.76345  24197117.545    24197127.2214
  21705902.155   -17359633.110 9 -13514852.47747  21705901.917    21705909.4534
 01  7 19 18  5 30.0000000  0 11 14 18 26 17 15 06 23 22 21 31 03
  24432105.534    -1374660.282 8  -1056695.31845  24432104.706    24432116.7504
  20285373.893   -10353905.454 9  -8063244.28148  20285373.548    20285379.1344
  23313097.195     3281291.843 8   2556105.44745  23313097.298    23313105.1474
  20937819.762     1008688.080 9    779476.69947  20937819.309    20937826.7074
  20272013.051    -6022417.134 9  -4693452.76548  20272012.428    20272019.5544
  24427341.189    19882757.606 7  15478426.17345  24427340.864    24427354.6954
  21273769.219      317911.001 9    246232.87347  21273768.736    21273775.8464
  24565244.086     8081815.286 7   6292395.22845  24565243.076    24565254.7274
  21568417.458   -20442663.891 9 -15814984.17047  21568417.076    21568424.9414
  24178451.180    -4671787.925 7  -3332841.73545  24178450.097    24178459.5264
  21696100.743   -17411139.755 9 -13554987.50647  21696100.482    21696108.0064
 01  7 19 18  6  0.0000000  0 11 14 18 26 17 15 06 23 22 21 31 03
  24410178.672    -1489887.505 7  -1146482.55545  24410177.715    24410189.5554
  20288584.765   -10337032.390 9  -8050096.45148  20288584.395    20288590.0034
  23329368.777     3366799.156 8   2622734.48945  23329368.863    23329376.7234
  20945880.959     1051050.121 9    812486.05047  20945880.539    20945887.9514
  20275302.089    -6005133.167 9  -4679984.75148  20275301.451    20275308.5884
  24448935.998    19996237.891 7  15566851.94245  24448935.933    24448949.5834
  21283235.538      367656.695 9    284995.72947  21283235.053    21283242.1634
  24580237.010     8160604.282 7   6353789.18545  24580236.236    24580247.8364
  21559114.482   -20491551.527 9 -15853078.40547  21559114.076    21559121.8934
  24159831.164    -4769637.207 7  -3409087.85445  24159830.157    24159839.4354
  21686393.559   -17462151.863 9 -13594737.18247  21686393.202    21686400.7234
 01  7 19 18  6 30.0000000  0 11 14 18 26 17 15 06 23 22 21 31 03
  24388258.294    -1605079.595 7  -1236242.39945  24388257.341    24388269.1054
  20291873.495   -10319750.233 9  -8036629.84848  20291873.099    20291878.7004
  23345718.931     3452719.826 8   2689685.61645  23345719.015    23345726.8234
  20954000.080     1093716.255 9    845732.36747  20953999.648    20954007.0874
  20278656.895    -5987503.639 9  -4666247.47648  20278656.268    20278663.4214
  24470546.257    20109798.521 8  15655340.38045  24470546.213    24470559.6014
  21292749.795      417654.251 9    323954.83647  21292749.306    21292756.4104
  24595255.702     8239527.843 7   6415287.93745  24595255.030    24595266.6324
  21549866.922   -20540147.774 9 -15890945.58647  21549866.508    21549874.3084
  24141259.079    -4867234.454 7  -3485137.57545  24141257.985    24141267.3694
  21676780.802   -17512666.892 8 -13634099.53647  21676780.527    21676788.0014
 01  7 19 18  7  0.0000000  0 11 14 18 26 17 15 06 23 22 21 31 03
  24366345.085    -1720234.010 8  -1325972.87845  24366344.131    24366355.7894
  20295239.659   -10302060.753 9  -8022845.85548  20295239.308    20295244.9094
  23362146.931     3539050.345 8   2756956.11045  23362147.122    23362155.0884
  20962177.053     1136686.283 9    879215.47747  20962176.597    20962184.0454
  20282077.366    -5969528.942 9  -4652241.23648  20282076.760    20282083.8764
  24492171.179    20223436.918 7  15743889.41845  24492171.023    24492184.7414
  21302311.578      467901.630 9    363108.61547  21302311.077    21302318.1824
  24610299.739     8318583.216 8   6476889.41145  24610298.904    24610310.5564
  21540674.709   -20588453.071 9 -15928586.05447  21540674.312    21540682.0934
  24122735.398    -4964577.529 7  -3560989.26745  24122734.059    24122743.5684
  21667262.791   -17562683.495 9 -13673073.49947  21667262.666    21667270.1504
 01  7 19 18  7 30.0000000  0 11 14 18 26 17 15 06 23 22 21 31 03
  24344439.544    -1835348.240 7  -1415672.07645  24344438.746    24344450.1864
  20298683.127   -10283965.068 9  -8008745.33248  20298682.794    20298688.4174
  23378652.674     3625787.898 8   2824543.76945  23378652.795    23378660.8784
  20970411.820     1179960.223 9    912935.39947  20970411.376    20970418.8384
  20285563.556    -5951208.940 9  -4637965.92748  20285562.967    20285570.0834
  24513810.771    20337150.472 7  15832496.95845  24513810.292    24513824.3684
  21311920.528      518397.100 9    402455.70947  21311920.065    21311927.1644
  24625368.026     8397767.411 7   6538591.33645  24625367.154    24625378.7874
  21531537.925   -20636467.081 9 -15965999.54447  21531537.517    21531545.2874
  24104260.159    -5061663.604 7  -3636640.67845  24104259.189    24104268.5984
  21657840.136   -17612199.845 9 -13711657.65547  21657839.989    21657847.4674
 01  7 19 18  8  0.0000000  0 10 14 18 26 17 15 23 22 21 31 03
  24322542.048    -1950419.667 7  -1505337.92445  24322541.186    24322552.6104
  20302203.752   -10265464.281 9  -7994329.14548  20302203.397    20302209.0174
  23395235.300     3712929.737 8   2892446.45745  23395235.336    23395243.4184
  20978704.448     1223538.231 9    946892.26647  20978704.015    20978711.4734
  20289115.607    -5932543.051 9  -4623421.08848  20289114.988    20289122.1284
  21321576.511      569139.189 9    441994.97147  21321576.010    21321583.1204
  24640460.135     8477077.300 8   6600391.16245  24640459.425    24640470.9034
  21522456.526   -20684189.955 9 -16003186.18147  21522456.144    21522463.9014
  24085834.467    -5158490.070 7  -3712089.82845  24085833.614    24085843.2294
  21648513.126   -17661214.031 9 -13749850.51047  21648512.916    21648520.3744
 01  7 19 18  8 30.0000000  0 10 14 18 26 17 15 23 22 21 31 03
  24300652.889    -2065445.312 7  -1594968.07345  24300652.229    24300663.9244
  20305801.235   -10246559.395 9  -7979598.07848  20305800.897    20305806.5154
  23411894.273     3800473.451 7   2960662.29145  23411894.283    23411902.3534
  20987055.025     1267420.846 9    981086.47847  20987054.634    20987062.0854
  20292733.543    -5913530.621 9  -4608606.22448  20292732.953    20292740.0734
  21331279.067      620126.626 9    481725.41747  21331278.603    21331285.7184
  24655575.762     8556509.803 7   6662286.56645  24655574.861    24655586.5944
  21513430.639   -20731620.937 9 -16040145.36247  21513430.332    21513438.0684
  24067458.814    -5255054.103 8  -3787334.45545  24067458.065    24067467.6404
  21639281.986   -17709723.909 9 -13787650.39947  21639281.757    21639289.2064
 01  7 19 18  9  0.0000000  0 10 14 18 26 17 15 23 22 21 31 03
  24278772.900    -2180422.297 7  -1684560.31945  24278772.546    24278784.2944
  20309475.420   -10227251.473 9  -7964552.96048  20309475.083    20309480.7164
  23428629.075     3888416.556 8   3029189.34345  23428629.237    23428637.3604
  20995463.717     1311608.424 9   1015518.32647  20995463.273    20995470.7054
  20296417.524    -5894171.211 9  -4593520.98048  20296416.933    20296424.0704
  21341028.203      671358.247 9    521646.13847  21341027.684    21341034.7934
  24670714.162     8636062.756 8   6724275.79745  24670713.460    24670725.0384
  21504460.446   -20778759.620 9 -16076876.78147  21504460.112    21504467.8514
  24049133.574    -5351352.711 8  -3862372.28345  24049132.891    24049142.5184
  21630147.238   -17757727.268 9 -13825055.60047  21630147.001    21630154.4584
 01  7 19 18  9 30.0000000  0 10 14 18 26 17 15 23 22 21 31 03
  24256903.090    -2295347.932 7  -1774112.57045  24256902.726    24256914.3974
  20313225.987   -10207542.124 9  -7949195.03148  20313225.636    20313231.2764
  23445439.680     3976755.876 7   3098025.14145  23445439.680    23445447.9764
  21003930.338     1356100.806 9   1050187.68247  21003929.902    21003937.3394
  20300167.539    -5874464.798 9  -4578165.35448  20300166.937    20300174.0864
  21350823.352      722832.167 9    561755.66247  21350822.853    21350829.9724
  24685874.952     8715733.069 8   6786356.32345  24685874.474    24685885.9984
  21495545.767   -20825606.874 9 -16113381.11347  21495545.344    21495553.0804
  24030859.446    -5447383.579 8  -3937201.45145  24030858.952    24030868.4644
  21621109.059   -17805222.808 9 -13862065.09647  21621108.908    21621116.3624
 01  7 19 18 10  0.0000000  0 10 14 18 26 17 15 23 22 21 31 03
  24235043.387    -2410220.442 7  -1863623.40745  24235043.039    24235054.7294
  20317052.611   -10187433.210 9  -7933525.75948  20317052.267    20317057.9044
  23462324.736     4065487.708 8   3167166.77845  23462324.821    23462333.1594
  21012454.780     1400897.195 9   1085093.92447  21012454.361    21012461.8424
  20303983.526    -5854411.675 9  -4562539.55048  20303982.925    20303990.0864
  21360664.248      774546.179 9    602052.28147  21360663.750    21360670.8804
  24701057.400     8795517.531 8   6848526.06545  24701056.943    24701068.4434
  21486686.316   -20872163.331 9 -16149658.84947  21486685.927    21486693.6734
  24012636.710    -5543144.822 8  -4011820.55845  24012636.188    24012645.6524
  21612167.772   -17852209.538 9 -13898678.11547  21612167.618    21612175.0574
 01  7 19 18 10 30.0000000  0 10 14 18 26 17 15 23 22 21 31 03
  24213194.121    -2525037.107 7  -1953090.75145  24213193.995    24213205.4754
  20320955.035   -10166925.773 9  -7917545.95348  20320954.686    20320960.3374
  23479284.092     4154609.230 8   3236612.07045  23479284.170    23479292.4644
  21021037.197     1445997.831 9   1120237.24947  21021036.789    21021044.2434
  20307865.500    -5834011.809 9  -4546643.56548  20307864.898    20307872.0594
  21370550.505      826498.733 9    642534.76747  21370550.016    21370557.1394
  24716261.028     8875412.394 8   6910781.76345  24716260.409    24716272.1454
  21477882.314   -20918428.723 9 -16185709.78447  21477881.902    21477889.6314
  23994465.725    -5638633.527 7  -4086227.26445  23994465.187    23994474.6954
  21603323.753   -17898685.513 9 -13934893.15147  21603323.540    21603330.9794
 01  7 19 18 11  0.0000000  0 10 14 18 26 17 15 23 22 21 31 03
  24191356.199    -2639794.780 7  -2042512.13245  24191356.183    24191367.6434
  20324933.117   -10146020.899 9  -7901256.45248  20324932.772    20324938.4294
  23496317.052     4244117.940 8   3306359.04645  23496317.197    23496325.5494
  21029677.535     1491403.052 9   1155617.90547  21029677.127    21029684.5734
  20311813.613    -5813264.400 9  -4530476.76448  20311813.004    20311820.1804
  21380481.882      878688.613 9    683202.19047  21380481.401    21380488.5524
  24731485.301     8955415.091 8   6973121.46945  24731484.569    24731496.2404
  21469133.692   -20964402.816 9 -16221533.73047  21469133.298    21469141.0384
  23976347.059    -5733846.801 8  -4160419.38745  23976346.741    23976356.1684
  21594577.326   -17944648.322 8 -13970708.31547  21594577.075    21594584.5134
 01  7 19 18 11 30.0000000  0 10 14 18 26 17 15 23 22 21 31 03
  24169529.941    -2754491.564 7  -2131886.02545  24169529.773    24169541.4064
  20328986.468   -10124720.432 9  -7884658.68848  20328986.116    20328991.7734
  23513423.111     4334010.499 8   3376405.16645  23513423.256    23513431.4784
  21038375.840     1537112.545 9   1191235.65747  21038375.406    21038382.8574
  20315827.787    -5792169.855 9  -4514039.46848  20315827.176    20315834.3604
  21390458.107      931113.596 9    724052.80447  21390457.584    21390464.7404
  24746729.345     9035522.660 8   7035542.90245  24746728.596    24746740.1764
  21460440.431   -21010086.178 9 -16257131.13447  21460440.046    21460447.7614
  23958281.283    -5828782.475 8  -4234395.14745  23958281.147    23958290.4644
  21585928.591   -17990096.902 9 -14006122.78347  21585928.503    21585935.9304
 01  7 19 18 12  0.0000000  0 10 14 18 26 17 15 23 22 21 31 03
  24147716.050    -2869124.339 8  -2221210.09345  24147715.894    24147727.4344
  20333114.914   -10103025.405 9  -7867753.48548  20333114.548    20333120.2274
  23530601.651     4424284.446 8   3446748.42545  23530601.793    23530610.0844
  21047132.081     1583126.620 9   1227090.75247  21047131.624    21047139.0594
  20319908.149    -5770727.453 9  -4497331.11548  20319907.561    20319914.7434
  21400478.866      983772.735 9    765085.87547  21400478.287    21400485.4344
  24761992.843     9115732.693 8   7098044.18445  24761992.018    24762003.6954
  21451802.496   -21055478.679 9 -16292501.89547  21451802.107    21451809.8284
  23940269.336    -5923437.420 8  -4308152.21445  23940268.837    23940277.8264
  21577378.284   -18035029.049 9 -14041134.83947  21577378.172    21577385.5924
 01  7 19 18 12 30.0000000  0 10 14 18 26 17 15 23 22 21 31 03
  24125914.596    -2983690.831 8  -2310482.48445  24125914.368    24125926.1314
  20337318.114   -10080937.511 9  -7850542.14748  20337317.748    20337323.4384
  23547852.382     4514936.618 8   3517386.43945  23547852.550    23547860.6004
  21055946.177     1629445.031 9   1263182.98147  21055945.762    21055953.1804
  20324054.665    -5748937.190 9  -4480351.70648  20324054.100    20324061.2874
  21410543.601     1036663.677 9    806299.57847  21410543.099    21410550.2784
  24777275.416     9196041.603 8   7160622.51945  24777274.349    24777285.8744
  21443219.921   -21100580.557 9 -16327646.19047  21443219.488    21443227.2154
  23922311.056    -6017809.587 7  -4381688.91045  23922310.369    23922319.3114
  21568926.647   -18079443.585 9 -14075743.55347  21568926.373    21568933.7734
 01  7 19 18 13  0.0000000  0 10 14 18 26 17 15 23 22 21 31 03
  24104126.631    -3098187.860 8  -2399700.76045  24104126.091    24104137.7704
  20341595.954   -10058457.310 9  -7833025.11848  20341595.606    20341601.2894
  23565174.565     4605964.308 8   3588317.04445  23565174.619    23565182.6474
  21064818.293     1676068.232 9   1299512.71647  21064817.890    21064825.3174
  20328267.545    -5726798.627 9  -4463100.89248  20328266.954    20328274.1254
  21420652.427     1089785.415 9    847693.12547  21420651.871    21420659.0264
  24792575.811     9276446.387 7   7223275.51445  24792575.017    24792586.6474
  21434692.740   -21145391.050 9 -16362563.43447  21434692.321    21434700.0294
  23904406.893    -6111895.738 8  -4455002.72045  23904406.094    23904415.2324
  21560573.770   -18123338.543 9 -14109947.40647  21560573.406    21560580.8424
 01  7 19 18 13 30.0000000  0 10 14 18 26 17 15 23 22 21 31 03
  24082352.289    -3212612.720 8  -2488862.77245  24082351.675    24082363.2234
  20345948.195   -10035586.166 9  -7815203.46248  20345947.853    20345953.5434
  23582567.442     4697364.881 8   3659538.19845  23582567.578    23582575.7874
  21073748.417     1722996.493 9   1336080.15647  21073748.028    21073755.4664
  20332546.794    -5704311.257 9  -4445578.28248  20332546.171    20332553.3404
  21430804.800     1143136.512 9    889265.38547  21430804.283    21430811.4244
  24807894.108     9356944.672 7   7286001.36145  24807893.213    24807904.9154
  21426220.967   -21189910.374 9 -16397253.79847  21426220.556    21426228.2694
  23886558.069    -6205692.906 7  -4528091.36745  23886557.101    23886566.1114
  21552319.969   -18166711.883 9 -14143744.80847  21552319.719    21552327.1404
 01  7 19 18 14  0.0000000  0 10 14 18 26 17 15 23 22 21 31 03
  24060592.322    -3326962.561 8  -2577966.36245  24060591.719    24060603.0624
  20350374.536   -10012325.355 9  -7797078.16948  20350374.239    20350379.9264
  23600030.838     4789135.463 8   3731047.67345  23600030.948    23600039.1804
  21082736.698     1770229.684 9   1372885.20247  21082736.265    21082743.7104
  20336892.412    -5681474.923 9  -4427783.74948  20336891.793    20336898.9824
  21441000.600     1196715.532 9    931015.25147  21441000.015    21441007.1964
  24823229.643     9437533.886 7   7348798.05945  24823228.966    24823240.8074
  21417804.607   -21234138.755 9 -16431717.44747  21417804.163    21417811.8754
  23868764.281    -6299198.815 7  -4600953.06545  23868763.289    23868772.1554
  21544165.785   -18209561.927 9 -14177134.44347  21544165.625    21544173.0434
 01  7 19 18 14 30.0000000  0  9 14 18 26 17 15 23 21 31 03
  24038847.045    -3441233.546 8  -2667008.49045  24038846.533    24038857.4594
  20354875.061    -9988675.034 9  -7778649.35548  20354874.753    20354880.4394
  23617564.217     4881274.191 8   3802844.04345  23617564.400    23617572.5824
  21091783.260     1817769.195 9   1409928.94647  21091782.762    21091790.2154
  20341304.692    -5658288.328 9  -4409716.28548  20341304.058    20341311.2394
  21451239.602     1250522.065 9    972942.40547  21451239.066    21451246.2434
  21409443.750   -21278075.102 9 -16465953.53547  21409443.331    21409451.0234
  23851026.740    -6392409.531 7  -4673584.72245  23851025.988    23851034.7424
  21536111.761   -18251885.963 9 -14210114.20947  21536111.630    21536119.0474
 01  7 19 18 15  0.0000000  0  9 14 18 26 17 15 23 21 31 03
  24017117.294    -3555422.794 8  -2755986.95345  24017116.846    24017127.6844
  20359449.500    -9964636.331 9  -7759917.90748  20359449.157    20359454.8494
  23635167.199     4973778.566 8   3874925.32445  23635167.394    23635175.7544
  21100888.037     1865615.343 9   1447211.61747  21100887.609    21100895.0574
  20345783.724    -5634750.686 9  -4391375.28148  20345783.107    20345790.2694
  21461521.676     1304554.969 9   1015045.94647  21461521.208    21461528.3724
  21401138.574   -21321719.240 9 -16499961.93347  21401138.101    21401145.7954
  23833345.921    -6485322.083 7  -4745984.02445  23833345.339    23833354.3274
  21528158.343   -18293681.835 9 -14242682.40847  21528158.106    21528165.5454
 01  7 19 18 15 30.0000000  0  9 14 18 26 17 15 23 21 31 03
  23995403.096    -3669530.578 7  -2844901.91445  23995402.679    23995413.7354
  20364097.040    -9940213.402 9  -7740887.06248  20364096.719    20364102.4004
  23652838.659     5066642.827 8   3947287.04445  23652838.920    23652847.2114
  21110050.637     1913765.195 9   1484730.94447  21110050.216    21110057.6724
  20350329.116    -5610864.559 9  -4372762.73048  20350328.501    20350335.6704
  21471845.983     1358809.765 9   1057322.39447  21471845.571    21471852.7434
  21392888.476   -21365073.959 9 -16533744.81247  21392887.952    21392895.6564
  23815722.254    -6577936.560 7  -4818151.09945  23815721.101    23815730.0874
  21520305.150   -18334950.874 9 -14274840.09047  21520304.853    21520312.3124
 01  7 19 18 16  0.0000000  0  9 14 18 26 17 15 23 21 31 03
  23973705.053    -3783553.352 8  -2933750.67845  23973704.640    23973715.7634
  20368817.557    -9915406.788 9  -7721557.24748  20368817.241    20368822.9434
  23670578.389     5159865.071 8   4019927.69245  23670578.570    23670586.8704
  21119271.265     1962219.816 8   1522487.75247  21119270.843    21119278.3564
  20354941.028    -5586629.032 9  -4353877.92348  20354940.378    20354947.5544
  21482212.495     1413285.808 9   1099771.23947  21482212.004    21482219.1904
  21384693.474   -21408138.738 9 -16567301.75847  21384692.985    21384700.6714
  23798155.324    -6670249.361 7  -4890083.09145  23798154.611    23798163.5304
  21512552.564   -18375690.701 9 -14306585.40147  21512552.320    21512559.7664
 01  7 19 18 16 30.0000000  0  9 14 18 26 17 15 23 21 31 03
  23952024.153    -3897488.237 7  -3022530.95645  23952023.579    23952034.3034
  20373610.941    -9890217.620 9  -7701929.33448  20373610.603    20373616.2914
  23688385.608     5253442.203 8   4092844.86545  23688385.741    23688394.0384
  21128549.910     2010979.112 8   1560481.96847  21128549.440    21128556.9764
  20359619.447    -5562043.870 9  -4334720.66848  20359618.819    20359625.9774
  21492620.727     1467981.536 9   1142391.26847  21492620.259    21492627.4554
  21376553.701   -21450913.327 9 -16600632.58247  21376553.230    21376560.9134
  23780646.525    -6762257.908 7  -4961777.99045  23780645.842    23780654.9434
  21504901.002   -18415899.802 9 -14337917.16247  21504900.787    21504908.2264
 01  7 19 18 17  0.0000000  0  9 14 18 26 17 15 23 21 31 03
  23930360.040    -4011333.405 8  -3111241.31545  23930359.417    23930370.2064
  20378476.622    -9864648.276 9  -7682005.18848  20378476.294    20378481.9914
  23706259.729     5347370.542 8   4166035.73245  23706259.818    23706268.0554
  21137886.311     2060042.257 8   1598712.95347  21137885.876    21137893.4174
  20364364.241    -5537109.773 9  -4315291.52448  20364363.614    20364370.7874
  21503070.364     1522894.542 9   1185180.60347  21503069.874    21503077.0894
  21368468.927   -21493398.993 9 -16633738.27847  21368468.457    21368476.1384
  23763196.089    -6853960.548 8  -5033234.53045  23763195.362    23763204.5634
  21497350.634   -18455577.335 9 -14368834.71547  21497350.384    21497357.8214
 01  7 19 18 17 30.0000000  0  9 14 18 26 17 15 23 21 31 03
  23908713.670    -4125085.005 7  -3199878.77245  23908713.014    23908723.8074
  20383414.601    -9838698.932 9  -7661784.92948  20383414.306    20383420.0264
  23724200.249     5441648.413 8   4239498.94445  23724200.347    23724208.6564
  21147280.875     2109410.734 8   1637181.85547  21147280.422    21147288.0034
  20369175.737    -5511825.190 9  -4295589.27048  20369175.133    20369182.3094
  21513561.282     1578024.744 9   1228139.18747  21513560.792    21513568.0464
  21360439.462   -21535594.284 9 -16666617.70147  21360438.956    21360446.6574
  23745804.504    -6945353.249 7  -5104449.57145  23745803.912    23745812.9564
  21489901.957   -18494720.389 9 -14399335.78647  21489901.701    21489909.1384
 01  7 19 18 18  0.0000000  0  9 14 18 26 17 15 23 21 31 03
  23887085.669    -4238740.136 7  -3288441.06745  23887085.046    23887095.9154
  20388424.799    -9812370.519 9  -7641269.29648  20388424.457    20388430.1704
  23742206.933     5536273.035 8   4313232.35345  23742206.912    23742215.2054
  21156733.457     2159084.595 8   1675888.71647  21156733.049    21156740.6504
  20374054.006    -5486189.663 9  -4275613.55947  20374053.406    20374060.5924
  21524093.302     1633370.623 9   1271265.82647  21524092.821    21524100.0364
  21352465.213   -21577498.884 9 -16699270.61447  21352464.746    21352472.4274
  23728472.412    -7036433.203 7  -5175420.88845  23728471.831    23728480.9804
  21482555.266   -18533327.291 9 -14429419.07947  21482555.077    21482562.5124
 01  7 19 18 18 30.0000000  0  9 14 18 26 17 15 23 21 31 03
  23865476.365    -4352296.178 7  -3376926.14445  23865475.726    23865486.8084
  20393506.816    -9785664.525 9  -7620459.43648  20393506.449    20393512.1804
  23760278.788     5631241.433 8   4387233.64645  23760278.911    23760287.2094
  21166244.183     2209063.657 8   1714833.40347  21166243.784    21166251.4064
  20378999.098    -5460203.143 9  -4255364.33647  20378998.483    20379005.6744
  21534665.954     1688930.490 9   1314559.21047  21534665.501    21534672.7604
  21344546.290   -21619113.152 9 -16731697.29747  21344545.818    21344553.4944
  23711200.416    -7127197.987 8  -5246146.63945  23711199.858    23711208.8934
  21475310.850   -18571397.005 9 -14459083.78347  21475310.632    21475318.0624
 01  7 19 18 19  0.0000000  0  9 14 18 26 17 15 23 21 31 03
  23843886.495    -4465750.444 7  -3465331.89445  23843885.972    23843896.9624
  20398660.311    -9758582.485 9  -7599356.56048  20398660.002    20398665.7174
  23778415.492     5726550.525 8   4461500.40545  23778415.665    23778424.0774
  21175813.005     2259347.958 8   1754015.93647  21175812.600    21175820.2844
  20384010.982    -5433865.468 9  -4234841.49147  20384010.383    20384017.6034
  21545279.017     1744702.816 9   1358018.14447  21545278.614    21545285.8754
  21336682.457   -21660437.856 9 -16763898.34847  21336681.982    21336689.6374
  23693989.199    -7217644.877 8  -5316624.68445  23693988.373    23693997.5564
  21468168.939   -18608927.970 9 -14488328.68547  21468168.696    21468176.1334
 01  7 19 18 19 30.0000000  0  9 14 18 26 17 15 23 21 31 03
  23822316.464    -4579100.679 8  -3553656.60945  23822316.074    23822327.0014
  20403885.089    -9731125.925 9  -7577961.84748  20403884.814    20403890.5394
  23796616.564     5822197.104 7   4536030.15745  23796616.745    23796624.9834
  21185439.841     2309937.108 8   1793436.00847  21185439.435    21185447.1104
  20389089.690    -5407176.764 9  -4214045.10747  20389089.107    20389096.3154
  21555932.262     1800685.975 9   1401641.36747  21555931.869    21555939.1554
  21328873.709   -21701472.753 9 -16795873.57647  21328873.268    21328880.9304
  23676838.580    -7307771.641 8  -5386853.27145  23676837.736    23676846.9604
  21461129.886   -18645918.691 9 -14517152.61647  21461129.609    21461137.0404
 01  7 19 18 20  0.0000000  0  9 14 18 26 17 15 23 21 31 03
  23800766.803    -4692343.900 7  -3641897.92945  23800766.433    23800777.2254
  20409180.956    -9703296.366 9  -7556276.48547  20409180.618    20409186.3364
  23814881.192     5918178.471 7   4610820.78145  23814881.311    23814889.6474
  21195124.705     2360831.313 8   1833093.79047  21195124.291    21195132.0414
  20394235.252    -5380136.672 9  -4192974.91947  20394234.655    20394241.8884
  21566625.431     1856878.523 9   1445427.74647  21566624.976    21566632.2454
  21321119.978   -21742218.343 9 -16827623.36147  21321119.616    21321127.2874
  23659749.661    -7397575.428 8  -5456830.19145  23659748.717    23659757.7594
  21454193.836   -18682367.579 9 -14545554.34447  21454193.571    21454201.0244
 01  7 19 18 20 30.0000000  0  9 14 18 26 17 15 23 21 31 03
  23779238.057    -4805477.366 8  -3730053.68645  23779237.707    23779248.5854
  20414547.543    -9675094.689 9  -7534301.16448  20414547.233    20414552.9434
  23833209.063     6014491.850 7   4685870.07845  23833209.133    23833217.5154
  21204867.660     2412030.874 8   1872989.51147  21204867.276    21204875.0514
  20399447.719    -5352744.928 9  -4171630.71547  20399447.157    20399454.3624
  21577358.106     1913279.086 9   1489376.21147  21577357.636    21577364.9154
  21313421.505   -21782674.245 9 -16859147.42147  21313421.106    21313428.7574
  23642722.311    -7487053.589 8  -5526553.39245  23642721.604    23642730.5594
  21447361.143   -18718273.218 9 -14573532.76447  21447360.971    21447368.3974
 01  7 19 18 21  0.0000000  0  9 14 18 26 17 15 23 21 31 03
  23757730.459    -4918497.740 8  -3818121.30545  23757730.456    23757741.4174
  20419984.804    -9646521.903 9  -7512036.65948  20419984.459    20419990.1714
  23851599.584     6111134.779 7   4761176.20245  23851599.581    23851607.9554
  21214668.837     2463536.115 8   1913123.42447  21214668.440    21214676.2024
  20404727.254    -5325000.856 9  -4150011.97647  20404726.672    20404733.8854
  21588130.215     1969886.703 9   1533486.02847  21588129.739    21588137.0454
  21305778.187   -21822840.103 9 -16890445.46947  21305777.797    21305785.4354
  23625757.597    -7576202.865 8  -5596020.28645  23625756.979    23625766.0654
  21440632.326   -18753633.665 9 -14601086.35547  21440632.099    21440639.5234
 01  7 19 18 21 30.0000000  0  9 14 18 26 17 15 23 21 31 03
  23736245.259    -5031403.296 8  -3906099.50845  23736245.169    23736256.0324
  20425492.138    -9617580.487 9  -7489484.91648  20425491.826    20425497.5534
  23870052.006     6208103.421 7   4836736.12945  23870052.047    23870060.3224
  21224528.016     2515346.089 8   1953494.79247  21224527.595    21224535.3364
  20410073.688    -5296905.292 9  -4128119.33947  20410073.110    20410080.3064
  21598941.192     2026698.752 9   1577755.15047  21598940.744    21598948.0274
  21298189.787   -21862717.316 9 -16921518.59647  21298189.380    21298197.0374
  23608856.202    -7665021.497 8  -5665229.54945  23608855.400    23608864.4514
  21434007.263   -18788448.635 9 -14628214.89347  21434007.016    21434014.4574
 01  7 19 18 22  0.0000000  0  9 14 18 26 17 15 23 21 31 03
  23714782.192    -5144191.391 8  -3993986.09945  23714782.109    23714793.1194
  20431069.387    -9588271.753 9  -7466646.94948  20431069.095    20431074.8224
  23888565.923     6305394.789 7   4912547.49545  23888566.019    23888574.2104
  21234445.131     2567460.817 8   1994103.62847  21234444.720    21234452.4674
  20415487.076    -5268457.769 9  -4105952.45447  20415486.483    20415493.6684
  21609790.798     2083713.866 9   1622182.48847  21609790.373    21609797.6904
  21290656.259   -21902306.088 9 -16952366.97047  21290655.866    21290663.5174
  23592017.808    -7753506.832 8  -5734179.08645  23592017.137    23592026.1624
  21427486.333   -18822716.672 9 -14654917.26147  21427486.020    21427493.4644
 01  7 19 18 22 30.0000000  0  9 14 18 26 17 15 23 21 31 03
  23693342.194    -5256858.993 8  -4081778.82545  23693342.121    23693353.0734
  20436716.336    -9558597.023 9  -7443523.79248  20436716.056    20436721.7704
  23907140.976     6403006.085 7   4988608.17845  23907140.950    23907148.9054
  21244420.293     2619880.458 8   2034950.05647  21244419.854    21244427.6984
  20420967.478    -5239658.104 9  -4083511.17247  20420966.899    20420974.0794
  21620678.771     2140930.561 9   1666766.90747  21620678.366    21620685.6644
  21283177.704   -21941605.928 9 -16982990.20347  21283177.343    21283184.9764
  23575243.473    -7841656.105 8  -5802866.77845  23575242.869    23575251.8004
  21421069.747   -18856436.010 9 -14681192.07147  21421069.422    21421076.8864
 01  7 19 18 23  0.0000000  0  9 14 18 26 17 15 23 21 31 03
  23671925.699    -5369403.950 8  -4169475.95145  23671925.397    23671936.3084
  20442432.600    -9528557.976 9  -7420116.75048  20442432.299    20442438.0144
  23925776.108     6500933.892 7   5064915.53245  23925776.110    23925784.0294
  21254453.364     2672604.503 8   2076033.68447  21254452.938    21254460.7234
  20426514.852    -5210506.660 9  -4060795.77447  20426514.268    20426521.4724
  21631604.822     2198347.138 9   1711507.07247  21631604.392    21631611.6914
  21275754.014   -21980617.256 9 -17013388.62447  21275753.692    21275761.3154
  23558533.562    -7929467.181 8  -5871290.92745  23558532.947    23558541.8044
  21414757.722   -18889605.779 9 -14707038.63747  21414757.442    21414764.9034
 01  7 19 18 23 30.0000000  0  9 14 18 26 17 15 23 21 31 03
  23650533.087    -5481823.148 8  -4257075.12745  23650532.677    23650543.3604
  20448217.975    -9498155.608 9  -7396426.60048  20448217.673    20448223.3814
  23944470.870     6599175.772 7   5141467.58245  23944470.928    23944479.1094
  21264544.482     2725633.390 8   2117354.84247  21264544.072    21264551.8804
  20432129.285    -5181002.748 9  -4037805.72547  20432128.692    20432135.8924
  21642568.710     2255962.617 9   1756402.23447  21642568.282    21642575.5824
  21268385.337   -22019340.091 9 -17043562.24247  21268385.003    21268392.5994
  23541888.448    -8016937.063 8  -5939449.20245  23541887.830    23541896.7854
  21408550.692   -18922224.231 9 -14732455.61247  21408550.359    21408557.7984
 01  7 19 18 24  0.0000000  0  9 14 18 26 17 15 23 21 31 03
  23629164.625    -5594113.806 8  -4344574.11345  23629164.240    23629174.9724
  20454072.254    -9467391.170 9  -7372454.32147  20454071.941    20454077.6754
  23963225.042     6697729.208 7   5218262.40845  23963225.085    23963233.3664
  21274693.687     2778967.342 8   2158913.71647  21274693.206    21274701.0144
  20437810.848    -5151145.771 9  -4014540.56647  20437810.278    20437817.4814
  21653570.250     2313775.842 9   1801451.48947  21653569.796    21653577.0694
  21261071.500   -22057774.396 9 -17073511.03147  21261071.167    21261078.7824
  23525309.015    -8104062.829 8  -6007339.35345  23525308.468    23525317.2604
  21402448.817   -18954289.679 9 -14757441.67247  21402448.503    21402455.9344
 01  7 19 18 24 30.0000000  0  9 14 18 26 17 15 23 21 31 03
  23607821.265    -5706272.577 8  -4431970.33245  23607821.125    23607831.7234
  20459995.227    -9436265.637 9  -7348200.67047  20459994.930    20460000.6724
  23982037.681     6796591.374 7   5295297.78845  23982037.890    23982046.3504
  21284900.872     2832606.530 8   2200710.44447  21284900.430    21284908.2114
  20443559.694    -5120935.486 9  -3991000.09847  20443559.108    20443566.3264
  21664609.098     2371785.448 9   1846653.76547  21664608.663    21664615.9454
  21253812.514   -22095920.359 9 -17103235.14147  21253812.212    21253819.8264
  23508795.483    -8190841.711 8  -6074959.20845  23508795.000    23508803.7264
  21396452.418   -18985800.892 9 -14781995.86247  21396452.144    21396459.5394
 01  7 19 18 25  0.0000000  0  9 14 18 26 17 15 23 21 31 03
  23586503.655    -5818297.139 8  -4519261.98145  23586503.364    23586513.7824
  20465986.630    -9404780.793 9  -7323667.03747  20465986.322    20465992.0724
  24000908.854     6895758.684 7   5372570.96545  24000908.926    24000917.4154
  21295166.039     2886550.397 8   2242744.57047  21295165.613    21295173.4294
  20449375.737    -5090372.121 9  -3967184.50247  20449375.152    20449382.3694
  21675684.942     2429989.463 9   1892007.51747  21675684.536    21675691.8384
  21246608.349   -22133778.453 9 -17132734.93547  21246608.039    21246615.6334
  23492348.400    -8277271.438 8  -6142306.99845  23492347.896    23492356.5464
  21390561.742   -19016756.937 9 -14806117.45647  21390561.412    21390568.8224
 01  7 19 18 25 30.0000000  0  9 14 18 26 17 15 23 21 31 03
  23565211.718    -5930185.076 8  -4606447.14545  23565211.544    23565222.0274
  20472046.125    -9372937.993 9  -7298854.47847  20472045.808    20472051.5634
  24019837.484     6995228.372 7   5450079.70745  24019837.492    24019845.9514
  21305489.263     2940799.055 8   2285016.20847  21305488.827    21305496.5994
  20455258.995    -5059455.518 9  -3943093.66147  20455258.399    20455265.6274
  21686797.646     2488386.498 9   1937511.68047  21686797.163    21686804.4354
  21239459.037   -22171348.617 9 -17162010.36947  21239458.669    21239466.2674
  23475968.155    -8363349.227 8  -6209380.52445  23475967.676    23475976.4664
  21384776.836   -19047156.369 9 -14829805.31947  21384776.587    21384784.0274
 01  7 19 18 26  0.0000000  0  9 14 18 26 17 15 23 21 31 03
  23543946.647    -6041933.247 8  -4693523.42545  23543946.436    23543956.7794
  20478173.494    -9340738.575 9  -7273764.03047  20478173.166    20478178.9364
  24038822.987     7094997.840 8   5527822.08045  24038823.099    24038831.5074
  21315870.540     2995352.538 8   2327525.36547  21315870.090    21315877.8794
  20461209.519    -5028185.324 9  -3918727.29147  20461208.940    20461216.1614
  21697946.761     2546975.326 9   1983165.29247  21697946.264    21697953.5584
  21232364.417   -22208631.058 9 -17191061.60447  21232364.040    21232371.6474
  23459655.334    -8449072.263 8  -6276177.63745  23459655.069    23459663.8534
  21379098.107   -19076997.932 9 -14853058.49247  21379097.919    21379105.3514
 01  7 19 18 26 30.0000000  0 10 14 18 26 17 15 29 23 21 31 03
  23522707.996    -6153543.320 8  -4780492.09545  23522707.579    23522717.8344
  20484367.635    -9308188.296 9  -7248400.19047  20484367.278    20484373.0354
  24057864.293     7195059.856 8   5605792.41245  24057864.406    24057872.5484
  21326308.994     3050206.766 8   2370268.87347  21326308.544    21326316.2764
  20467226.575    -4996565.623 9  -3894088.57547  20467225.974    20467233.2214
  24452909.680    -2731053.197 7  -2106642.85445  24452909.483    24452922.9374
  21709131.317     2605750.424 9   2028964.05047  21709130.772    21709138.0814
  21225323.722   -22245630.295 9 -17219892.16547  21225323.294    21225330.9264
  23443410.020    -8534442.151 8  -6342699.58845  23443409.715    23443418.4064
  21373525.106   -19106284.618 9 -14875879.28847  21373524.867    21373532.2934
 01  7 19 18 27  0.0000000  0 10 14 18 26 17 15 29 23 21 31 03
  23501496.801    -6265007.681 8  -4867347.22945  23501496.313    23501506.5964
  20490629.152    -9275283.699 9  -7222760.25847  20490628.813    20490634.5704
  24076961.378     7295416.213 8   5683992.13745  24076961.656    24076969.7634
  21336805.554     3105366.309 8   2413250.29847  21336805.127    21336812.8274
  20473311.053    -4964591.594 9  -3869173.76047  20473310.442    20473317.7074
  24431750.333    -2842246.552 7  -2193286.85145  24431750.022    24431763.3974
  21720351.933     2664715.143 9   2074910.56447  21720351.414    21720358.7324
  21218337.819   -22282341.420 9 -17248498.22147  21218337.391    21218345.0134
  23427233.137    -8619451.469 8  -6408940.55645  23427232.934    23427241.6174
  21368058.771   -19135010.481 9 -14898263.08047  21368058.501    21368065.9494
 01  7 19 18 27 30.0000000  0 10 14 18 26 17 15 29 23 21 31 03
  23480313.734    -6376323.389 8  -4954086.55945  23480313.447    23480323.6854
  20496957.944    -9242025.761 9  -7196844.99147  20496957.591    20496963.3644
  24096114.207     7396064.576 8   5762419.35145  24096114.357    24096122.6704
  21347360.281     3160831.538 8   2456469.91147  21347359.830    21347367.5204
  20479463.039    -4932262.769 9  -3843982.47947  20479462.403    20479469.6794
  24410598.825    -2953398.288 7  -2279898.46245  24410598.774    24410611.9214
  21731608.398     2723868.385 9   2121003.97047  21731607.881    21731615.2154
  21211406.768   -22318764.251 9 -17276879.63347  21211406.349    21211413.9514
  23411125.468    -8704097.285 8  -6474898.28745  23411125.325    23411134.1144
  21362699.446   -19163173.891 9 -14920208.59447  21362699.201    21362706.6364
 01  7 19 18 28  0.0000000  0 10 14 18 26 17 15 29 23 21 31 03
  23459159.529    -6487488.285 8  -5040708.39145  23459159.332    23459169.6474
  20503353.561    -9208416.466 9  -7170655.94047  20503353.244    20503359.0134
  24115321.878     7497001.191 7   5841071.18345  24115322.070    24115330.2874
  21357973.038     3216601.798 8   2499927.21147  21357972.613    21357980.2794
  20485682.444    -4899579.600 9  -3818515.08847  20485681.838    20485689.1084
  24389455.727    -3064506.682 7  -2366476.26045  24389455.392    24389468.4214
  21742900.367     2783207.925 9   2167242.55047  21742899.864    21742907.1864
  21204530.372   -22354899.716 9 -17305037.12847  21204529.989    21204537.5854
  23395087.581    -8788377.683 8  -6540571.28045  23395087.208    23395096.0904
  21357447.270   -19190774.403 9 -14941715.48647  21357447.007    21357454.4554
 01  7 19 18 28 30.0000000  0 10 14 18 26 17 15 29 23 21 31 03
  23438034.426    -6598500.383 8  -5127211.13545  23438034.188    23438044.5244
  20509815.649    -9174458.161 9  -7144194.93847  20509815.300    20509821.0714
  24134583.792     7598222.480 7   5919944.83445  24134583.925    24134592.1984
  21368643.719     3272676.260 8   2543621.53847  21368643.306    21368651.0274
  20491969.217    -4866542.595 9  -3792771.97947  20491968.565    20491975.8494
  24368321.060    -3175569.933 7  -2453018.88645  24368320.583    24368333.4834
  21754227.410     2842731.814 9   2213624.77847  21754226.922    21754234.2444
  21197708.616   -22390748.487 9 -17332971.22447  21197708.222    21197715.7984
  23379119.462    -8872290.692 8  -6605957.98945  23379119.023    23379127.8124
  21352302.326   -19217811.495 9 -14962783.34547  21352302.009    21352309.4714
 01  7 19 18 29  0.0000000  0 10 14 18 26 17 15 29 23 21 31 03
  23416939.320    -6709356.424 8  -5213592.32845  23416938.981    23416949.0154
  20516343.956    -9140151.725 9  -7117462.65847  20516343.601    20516349.3774
  24153899.180     7699726.048 7   5999038.42845  24153899.403    24153907.7214
  21379372.295     3329055.183 8   2587553.11747  21379371.879    21379379.6314
  20498323.372    -4833151.190 9  -3766752.71847  20498322.746    20498330.0294
  24347195.054    -3286585.195 7  -2539524.16145  24347195.058    24347207.8104
  21765589.366     2902439.079 9   2260149.88947  21765588.856    21765596.1914
  21190941.337   -22426310.727 9 -17360682.04747  21190940.927    21190948.4864
  23363221.893    -8955833.539 8  -6671056.26145  23363221.308    23363230.0904
  21347264.741   -19244283.534 9 -14983410.90747  21347264.526    21347271.9964
 01  7 19 18 29 30.0000000  0 10 14 18 26 17 15 29 23 21 31 03
  23395874.242    -6820053.775 8  -5299849.83545  23395873.884    23395883.8514
  20522938.255    -9105498.570 9  -7090460.20847  20522937.896    20522943.6614
  24173267.758     7801508.575 7   6078349.43545  24173268.005    24173276.4754
  21390158.756     3385738.539 8   2631721.91647  21390158.371    21390166.1614
  20504744.967    -4799405.673 9  -3740457.52447  20504744.321    20504751.6054
  24326078.924    -3397550.152 8  -2625990.17145  24326079.086    24326091.5934
  21776985.924     2962328.120 9   2306816.65247  21776985.367    21776992.6984
  21184228.552   -22461586.604 9 -17388169.72647  21184228.154    21184235.6974
  23347395.013    -9039003.804 8  -6735864.20545  23347394.575    23347403.3224
  21342335.000   -19270189.619 9 -15003597.47147  21342334.789    21342342.2294
 01  7 19 18 30  0.0000000  0 10 14 18 26 17 15 29 23 21 31 03
  23374839.592    -6930590.057 8  -5385981.84445  23374839.465    23374849.3654
  20529598.181    -9070500.431 9  -7063188.94347  20529597.845    20529603.6104
  24192688.958     7903567.140 7   6157875.50145  24192689.210    24192697.7314
  21401003.111     3442726.021 8   2676127.70147  21401002.714    21401010.5814
  20511233.985    -4765305.704 9  -3713886.13247  20511233.359    20511240.6384
  24304972.908    -3508462.705 7  -2712415.43045  24304973.048    24304985.6624
  21788416.746     3022397.476 9   2353623.91147  21788416.223    21788423.5804
  21177570.227   -22496576.345 9 -17415434.44247  21177569.834    21177577.3634
  23331639.547    -9121798.730 8  -6800379.66145  23331639.083    23331647.8954
  21337513.189   -19295529.016 9 -15023342.45847  21337512.847    21337520.3024
 01  7 19 18 30 30.0000000  0 10 14 18 26 17 15 29 23 21 31 03
  23353836.367    -7040962.722 8  -5471986.37145  23353836.196    23353846.0184
  20536323.421    -9035159.077 9  -7035650.24247  20536323.109    20536328.8544
  24212162.011     8005898.731 7   6237614.33145  24212162.209    24212170.8634
  21411905.287     3500017.158 8   2720770.10147  21411904.897    21411912.7634
  20517790.431    -4730851.535 9  -3687038.74447  20517789.800    20517797.0514
  24283877.132    -3619320.601 7  -2798798.07245  24283877.202    24283889.8164
  21799881.588     3082645.526 9   2400570.41347  21799881.016    21799888.4074
  21170966.275   -22531280.358 9 -17442476.51447  21170965.865    21170973.3844
  23315956.122    -9204216.034 8  -6864600.91045  23315955.530    23315964.3714
  21332799.112   -19320300.979 9 -15042645.28947  21332798.901    21332806.3554
 01  7 19 18 31  0.0000000  0 10 14 18 26 17 15 29 23 21 31 03
  23332864.692    -7151169.076 8  -5557861.30445  23332864.415    23332874.1974
  20543113.665    -8999476.054 9  -7007845.30047  20543113.359    20543119.1174
  24231686.478     8108500.218 7   6317563.44945  24231686.592    24231695.1824
  21422865.333     3557611.993 8   2765649.14247  21422864.919    21422872.7614
  20524414.269    -4696043.080 9  -3659915.28947  20524413.634    20524420.9164
  24262792.441    -3730121.413 8  -2885136.21245  24262792.428    24262804.8254
  21811380.203     3143070.871 9   2447655.06647  21811379.626    21811387.0174
  21164416.615   -22565699.227 9 -17469296.39647  21164416.180    21164423.6984
  23300345.063    -9286253.182 8  -6928525.91545  23300344.378    23300353.1224
  21328193.405   -19344504.178 9 -15061504.92747  21328193.219    21328200.6514
 01  7 19 18 31 30.0000000  0 10 14 18 26 17 15 29 23 21 31 03
  23311925.073    -7261206.387 8  -5643604.51745  23311924.920    23311934.6694
  20549968.733    -8963452.513 9  -6979775.02047  20549968.443    20549974.1754
  24251261.736     8211368.579 7   6397720.50845  24251261.890    24251270.5164
  21433883.048     3615510.303 8   2810764.65047  21433882.622    21433890.4914
  20531105.517    -4660880.162 9  -3632515.63447  20531104.902    20531112.1784
  24241718.925    -3840862.848 7  -2971428.03845  24241718.929    24241731.3354
  21822912.176     3203672.021 9   2494876.71747  21822911.662    21822919.0284
  21157921.092   -22599833.264 9 -17495894.33447  21157920.656    21157928.1584
  23284806.676    -9367908.063 8  -6992153.04845  23284805.944    23284814.7614
  21323696.076   -19368137.696 9 -15079920.66147  21323695.902    21323703.3234
 01  7 19 18 32  0.0000000  0 10 14 18 26 17 15 29 23 21 31 03
  23291018.300    -7371071.461 8  -5729213.53746  23291018.174    23291027.8154
  20556888.444    -8927089.462 9  -6951440.18547  20556888.083    20556893.8394
  24270887.445     8314501.300 7   6478083.59245  24270887.345    24270896.0384
  21444958.525     3673712.234 8   2856116.75247  21444958.094    21444965.9624
  20537864.268    -4625362.694 9  -3604839.70647  20537863.683    20537870.9654
  24220657.071    -3951542.285 7  -3057671.61045  24220657.109    24220669.6974
  21834477.489     3264447.908 9   2542234.51747  21834476.956    21834484.3864
  21151479.864   -22633682.122 9 -17522270.05047  21151479.455    21151486.9464
  23269341.489    -9449177.499 8  -7055479.83245  23269340.741    23269349.5804
  21319307.419   -19391200.321 9 -15097891.53747  21319307.241    21319314.6564
 01  7 19 18 32 30.0000000  0 10 14 18 26 17 15 29 23 21 31 03
  23270144.688    -7480761.833 8  -5814686.39546  23270144.654    23270154.2994
  20563872.445    -8890388.411 9  -6922841.96847  20563872.098    20563877.8364
  24290562.537     8417895.519 7   6558650.40845  24290562.783    24290571.2664
  21456091.791     3732217.797 8   2901705.45847  21456091.367    21456099.2534
  20544690.562    -4589490.321 9  -3576887.23447  20544689.967    20544697.2784
  24199607.483    -4062157.172 7  -3143864.82845  24199607.481    24199620.4084
  21846075.757     3325397.312 9   2589727.53647  21846075.267    21846082.7204
  21145092.741   -22667246.524 9 -17548424.11747  21145092.337    21145099.8124
  23253950.313    -9530058.866 8  -7118504.22045  23253949.556    23253958.3854
  21315027.601   -19413690.860 9 -15115416.63747  21315027.434    21315034.8454
 01  7 19 18 33  0.0000000  0 10 14 18 26 17 15 29 23 21 31 03
  23249304.879    -7590275.268 8  -5900021.37246  23249304.762    23249314.4944
  20570920.370    -8853351.396 9  -6893981.96647  20570920.008    20570925.7594
  24310287.148     8521547.817 7   6639418.35545  24310287.148    24310295.8824
  21467282.723     3791026.382 8   2947530.27947  21467282.349    21467290.2084
  20551584.247    -4553263.610 9  -3548658.65547  20551583.685    20551590.9954
  24178570.819    -4172705.497 7  -3230006.19145  24178570.645    24178583.5444
  21857706.699     3386518.305 9   2637354.25147  21857706.255    21857713.6754
  21138759.805   -22700526.462 9 -17574356.52347  21138759.371    21138766.8384
  23238633.347    -9610550.053 8  -7181224.58845  23238632.610    23238641.2694
  21310856.761   -19435609.123 9 -15132495.81147  21310856.531    21310863.9514
 01  7 19 18 33 30.0000000  0 10 14 18 26 17 15 29 23 21 31 03
  23228499.200    -7699610.421 8  -5985217.44846  23228498.855    23228508.4884
  20578031.707    -8815981.123 9  -6864862.28247  20578031.335    20578037.0874
  24330059.681     8625453.609 7   6720383.80345  24330059.820    24330068.5594
  21478531.047     3850136.112 8   2993589.75947  21478530.603    21478538.4594
  20558545.176    -4516684.165 9  -3520155.21347  20558544.576    20558551.8644
  24157546.655    -4283186.583 7  -3316095.15545  24157546.618    24157559.3244
  21869369.674     3447807.783 9   2685112.25747  21869369.271    21869376.7054
  21132480.499   -22733524.415 9 -17600069.20047  21132480.039    21132487.5074
  23223390.705    -9690650.409 8  -7243640.40545  23223389.952    23223398.6114
  21306794.663   -19456955.760 9 -15149129.55747  21306794.413    21306801.8294
 01  7 19 18 34  0.0000000  0 10 14 18 26 17 15 29 23 21 31 03
  23207728.161    -7808761.840 8  -6070270.33846  23207727.885    23207737.5614
  20585206.609    -8778276.579 9  -6835482.13147  20585206.268    20585212.0344
  24349880.519     8729612.549 7   6801546.52245  24349880.718    24349889.3994
  21489837.039     3909549.619 8   3039885.95346  21489836.606    21489844.5884
  20565573.673    -4479749.192 9  -3491374.73847  20565573.060    20565580.3614
  24136536.164    -4393595.302 7  -3402127.70945  24136536.215    24136549.0094
  21881065.091     3509267.309 9   2733002.76547  21881064.654    21881072.0914
  21126255.344   -22766237.731 9 -17625560.08747  21126254.898    21126262.3834
  23208223.300    -9770354.394 8  -7305747.35645  23208222.762    23208231.4514
  21302841.990   -19477727.012 9 -15165314.96047  21302841.799    21302849.2074
 01  7 19 18 34 30.0000000  0 10 14 18 26 17 15 29 23 21 31 03
  23186992.484    -7917727.634 8  -6155178.57246  23186992.239    23187001.9264
  20592444.795    -8740239.828 9  -6805843.11747  20592444.457    20592450.2164
  24369748.728     8834021.522 7   6882904.08745  24369748.964    24369757.7734
  21501200.778     3969266.325 8   3086418.39446  21501200.319    21501208.3374
  20572669.780    -4442458.963 9  -3462317.43647  20572669.177    20572676.5024
  24115540.245    -4503929.624 7  -3488102.24045  24115540.099    24115553.0224
  21892792.480     3570894.923 9   2781024.25447  21892792.025    21892799.4814
  21120084.272   -22798666.836 9 -17650829.51047  21120083.860    21120091.3094
  23193131.903    -9849660.126 8  -7367544.00845  23193131.359    23193139.9524
  21298998.977   -19497922.483 9 -15181051.69047  21298998.730    21299006.1464
 01  7 19 18 35  0.0000000  0 10 14 18 26 17 15 29 23 21 31 03
  23166292.699    -8026505.395 8  -6239940.31646  23166292.460    23166302.0404
  20599745.830    -8701872.740 9  -6775946.69847  20599745.473    20599751.2434
  24389664.282     8938677.096 7   6964453.75945  24389664.317    24389673.1814
  21512622.163     4029285.542 8   3133186.58246  21512621.672    21512629.6254
  20579833.417    -4404813.936 9  -3432983.66647  20579832.808    20579840.1354
  24094558.773    -4614187.644 7  -3574017.34845  24094558.535    24094571.5254
  21904551.497     3632688.816 9   2829175.31947  21904551.025    21904558.4554
  21113967.198   -22830812.593 9 -17675878.13747  21113966.715    21113974.1634
  23178116.600    -9928565.561 8  -7429028.69945  23178116.133    23178124.7644
  21295265.533   -19517541.847 9 -15196339.51047  21295265.285    21295272.6984
 01  7 19 18 35 30.0000000  0 10 14 18 26 17 15 29 23 21 31 03
  23145629.011    -8135092.426 8  -6324553.44046  23145628.925    23145638.4704
  20607109.462    -8663176.727 9  -6745793.97947  20607109.105    20607114.8664
  24409626.175     9043576.387 7   7046193.38545  24409626.257    24409635.0064
  21524100.983     4089607.235 8   3180190.44146  21524100.495    21524108.5184
  20587064.543    -4366814.133 9  -3403373.46347  20587063.922    20587071.2604
  24073591.898    -4724367.027 7  -3659871.15545  24073591.899    24073604.8394
  21916341.916     3694647.698 9   2877454.93047  21916341.462    21916348.8764
  21107903.904   -22862675.221 9 -17700706.15747  21107903.443    21107910.9014
  23163177.934   -10007068.092 8  -7490199.47345  23163177.556    23163186.1904
  21291641.856   -19536584.227 9 -15211177.73747  21291641.633    21291649.0544
 01  7 19 18 36  0.0000000  0 11 14 18 26 17 15 29 23 21 31 03 09
  23125002.412    -8243486.150 8  -6409015.93246  23125002.165    23125011.5574
  20614535.382    -8624153.177 9  -6715386.03647  20614535.034    20614540.7964
  24429633.843     9148716.474 7   7128120.62645  24429633.847    24429642.6134
  21535637.371     4150231.215 8   3227429.85146  21535636.928    21535644.9154
  20594363.214    -4328459.488 9  -3373486.75147  20594362.589    20594369.9334
  24052640.690    -4834465.332 7  -3745661.78845  24052640.853    24052653.6064
  21928163.481     3756770.193 8   2925862.03947  21928162.969    21928170.4204
  21101894.334   -22894255.049 9 -17725313.81247  21101893.993    21101901.4434
  23148316.492   -10085165.320 8  -7551054.41145  23148316.125    23148324.7694
  21288128.250   -19555048.797 9 -15225565.71147  21288127.946    21288135.3894
  24399632.820                                    24399636.403    24399636.5814
 01  7 19 18 36 30.0000000  0 11 14 18 26 17 15 29 23 21 31 03 09
  23104412.926    -8351684.078 8  -6493325.85046  23104412.749    23104422.0764
  20622023.281    -8584804.376 9  -6684724.64847  20622022.901    20622028.6534
  24449686.557     9254093.919 7   7210232.87845  24449686.355    24449695.6504
  21547231.161     4211156.695 8   3274904.20946  21547230.723    21547238.6914
  20601729.349    -4289750.501 9  -3343323.93247  20601728.720    20601736.0684
  24031705.129    -4944480.585 7  -3831387.69245  24031705.517    24031718.1314
  21940015.872     3819054.504 8   2974395.24047  21940015.294    21940022.7474
  21095938.544   -22925553.010 9 -17749701.82647  21095938.176    21095945.6284
  23133532.630   -10162855.018 8  -7611591.78745  23133532.210    23133540.8404
  21284724.458   -19572935.692 9 -15239503.55247  21284724.162    21284731.6134
  24387596.508                                    24387601.205    24387601.7224
 01  7 19 18 37  0.0000000  0 11 14 18 26 17 15 29 23 21 31 03 09
  23083861.029    -8459684.046 8  -6577481.52446  23083860.866    23083870.2254
  20629572.755    -8545131.581 9  -6653810.80147  20629572.404    20629578.1474
  24469784.059     9359705.639 7   7292527.66345  24469783.861    24469793.1964
  21558882.216     4272383.416 8   3322613.27946  21558881.766    21558889.8184
  20609162.862    -4250687.200 9  -3312885.02247  20609162.224    20609169.5964
  24010785.939    -5054410.545 7  -3917047.14345  24010786.269    24010798.9424
  21951898.734     3881499.222 8   3023053.42847  21951898.167    21951905.6054
  21090036.354   -22956569.543 9 -17773870.54247  21090035.942    21090043.3974
  23118826.741   -10240134.984 8  -7671809.91245  23118826.340    23118834.9904
  21281430.649   -19590244.227 9 -15252990.72947  21281430.452    21281437.8944
  24375625.815                                    24375630.102    24375639.9584
 01  7 19 18 37 30.0000000  0 11 14 18 26 17 15 29 23 21 31 03 09
  23063347.678    -8567482.909 8  -6661480.49146  23063347.337    23063356.6754
  20637183.689    -8505135.873 9  -6622645.33347  20637183.365    20637189.1004
  24489925.371     9465548.943 8   7375002.91145  24489925.108    24489934.5314
  21570590.692     4333911.447 8   3370557.14346  21570590.241    21570598.3394
  20616663.824    -4211269.329 9  -3282169.83247  20616663.211    20616670.5804
  23989883.886    -5164252.662 7  -4002638.11545  23989884.079    23989896.4144
  21963811.967     3944103.169 8   3071835.69247  21963811.350    21963818.8074
  21084187.661   -22987304.442 9 -17797819.81547  21084187.261    21084194.7314
  23104199.135   -10317002.730 8  -7731706.81045  23104198.806    23104207.4874
  21278247.261   -19606973.282 9 -15266026.35947  21278247.056    21278254.4864
  24363718.716                                    24363722.106    24363739.5774
 01  7 19 18 38  0.0000000  0 10 14 18 17 15 29 23 21 31 03 09
  23042873.146    -8675077.673 8  -6745320.43546  23042872.702    23042881.9874
  20644855.808    -8464818.751 9  -6591229.41547  20644855.464    20644861.1924
  21582356.471     4395740.825 8   3418735.82346  21582356.025    21582364.1524
  20624232.361    -4171496.616 9  -3251178.13747  20624231.741    20624239.1104
  23968998.737    -5274004.192 8  -4088158.48645  23968998.868    23969011.3264
  21975755.160     4006865.261 8   3120741.18647  21975754.591    21975762.0614
  21078392.604   -23017757.521 9 -17821549.48047  21078392.213    21078399.6824
  23089650.790   -10393455.257 8  -7791280.16345  23089650.408    23089659.0504
  21275174.335   -19623121.778 9 -15278609.61547  21275174.094    21275181.5234
  24351874.604                                    24351878.056    24351895.1394
 01  7 19 18 38 30.0000000  0 10 14 18 17 15 29 23 21 31 03 09
  23022438.332    -8782462.891 8  -6828997.09646  23022437.867    23022447.0374
  20652589.375    -8424178.796 9  -6559561.93647  20652589.010    20652594.7404
  21594180.066     4457874.214 8   3467151.39646  21594179.621    21594187.8154
  20631868.884    -4131366.312 9  -3219907.80347  20631868.285    20631875.6714
  23948131.611    -5383659.999 8  -4173604.28845  23948131.834    23948144.1934
  21987728.790     4069786.895 9   3169771.00147  21987728.202    21987735.6734
  21072651.681   -23047926.663 9 -17845057.89647  21072651.207    21072658.7014
  23075182.335   -10469487.371 8  -7850525.92345  23075181.974    23075190.5704
  21272212.441   -19638686.244 9 -15290737.78247  21272212.284    21272219.7144
  24340095.081                                    24340098.550    24340103.0544
 01  7 19 18 39  0.0000000  0 10 14 18 17 15 29 23 21 31 03 09
  23002043.081    -8889638.923 8  -6912510.76446  23002042.807    23002051.9404
  20660383.491    -8383220.383 9  -6527646.31247  20660383.154    20660388.8974
  21606060.861     4520308.265 8   3515801.24946  21606060.485    21606068.6984
  20639572.828    -4090881.837 9  -3188361.48547  20639572.231    20639579.6364
  23927282.890    -5493220.730 7  -4258976.00945  23927283.077    23927295.2774
  21999731.982     4132863.817 8   3218921.82947  21999731.333    21999738.8334
  21066963.911   -23077815.637 9 -17868347.99947  21066963.505    21066970.9874
  23060793.830   -10545099.853 8  -7909444.69345  23060793.315    23060802.0254
  21269361.371   -19653668.935 9 -15302412.61547  21269361.158    21269368.6004
  24328380.441     -783695.66054                  24328379.603    24328390.7174
 01  7 19 18 39 30.0000000  0 10 14 18 17 15 29 23 21 31 03 09
  22981688.461    -8996603.107 8  -6995859.35446  22981688.169    22981697.1864
  20668237.933    -8341945.139 9  -6495483.80847  20668237.577    20668243.3294
  21617998.942     4583042.775 8   3564685.23346  21617998.531    21618006.7574
  20647344.252    -4050042.873 9  -3156538.95247  20647343.651    20647351.0864
  23906452.470    -5602683.868 8  -4344271.67445  23906452.748    23906464.7294
  22011764.434     4196094.764 8   3268192.65647  22011763.813    22011771.3204
  21061329.560   -23107424.175 9 -17891419.58047  21061329.205    21061336.6584
  23046485.543   -10620290.394 8  -7968034.68245  23046484.971    23046493.7034
  21266620.997   -19668069.619 9 -15313633.94047  21266620.835    21266628.2484
  24316731.137    -1582502.81917   -831397.58645  24316730.658    24316741.3204
 01  7 19 18 40  0.0000000  0 10 14 18 17 15 29 23 21 31 03 09
  22961374.847    -9103352.559 8  -7079040.60846  22961374.311    22961383.2024
  20676152.408    -8300354.096 9  -6463075.22847  20676152.108    20676157.8474
  21629994.117     4646077.796 8   3613803.37046  21629993.717    21630001.9374
  20655183.179    -4008849.153 9  -3124439.97047  20655182.595    20655189.9744
  23885641.215    -5712046.980 8  -4429489.41645  23885641.405    23885653.2794
  22023826.044     4259478.702 8   3317582.71347  22023825.413    22023832.9344
  21055748.649   -23136752.317 9 -17914272.66847  21055748.229    21055755.6924
  23032257.998   -10695055.939 8  -8026293.50546  23032257.550    23032266.2754
  21263991.575   -19681887.367 9 -15324401.02447  21263991.415    21263998.8424
  24305147.823    -1643373.532 7   -878829.21445  24305146.917    24305157.1624
 01  7 19 18 40 30.0000000  0 10 14 18 17 15 29 23 21 31 03 09
  22941102.302    -9209884.830 8  -7162052.63046  22941101.756    22941110.7234
  20684126.706    -8258449.065 9  -6430421.97947  20684126.397    20684132.1414
  21642046.465     4709412.986 8   3663155.41346  21642046.083    21642054.2034
  20663089.641    -3967300.746 9  -3092064.61747  20663089.021    20663096.4114
  23864849.537    -5821307.645 8  -4514627.31145  23864849.549    23864861.3894
  22035916.485     4323014.312 8   3367090.94447  22035915.873    22035923.3754
  21050220.991   -23165800.478 9 -17936907.59347  21050220.575    21050228.0344
  23018112.116   -10769394.269 8  -8084219.43846  23018111.453    23018120.0454
  21261473.312   -19695121.258 9 -15334713.15447  21261473.088    21261480.5054
  24293630.983    -1703894.748 7   -925988.49845  24293630.769    24293640.6264
 01  7 19 18 41  0.0000000  0 10 14 18 17 15 29 23 21 31 03 09
  22920871.778    -9316196.816 8  -7244893.02146  22920871.172    22920880.0274
  20692160.491    -8216231.160 9  -6397524.92947  20692160.206    20692165.9654
  21654155.912     4773048.171 8   3712741.20646  21654155.480    21654163.6584
  20671063.501    -3925397.772 9  -3059412.97947  20671062.891    20671070.3184
  23844077.712    -5930463.377 7  -4599683.47145  23844077.700    23844089.5674
  22048035.502     4386700.194 8   3416716.27347  22048034.883    22048042.4044
  21044746.447   -23194569.319 9 -17959324.86547  21044746.026    21044753.4844
  23004047.560   -10843303.047 8  -8141810.65746  23004047.070    23004055.6104
  21259066.152   -19707770.974 9 -15344570.08247  21259065.925    21259073.3614
  24282181.343    -1764063.293 7   -972872.99545  24282181.275    24282190.9024
 01  7 19 18 41 30.0000000  0 10 14 18 17 15 29 23 21 31 03 09
  22900683.634    -9422285.510 8  -7327559.40546  22900683.057    22900691.9774
  20700253.694    -8173701.364 9  -6364384.85347  20700253.373    20700259.1424
  21666322.523     4836983.832 8   3762561.14146  21666322.077    21666330.3004
  20679105.078    -3883139.393 9  -3026484.40247  20679104.454    20679111.8664
  23823326.176    -6039511.196 8  -4684655.54745  23823326.374    23823338.0814
  22060182.973     4450535.781 8   3466458.25347  22060182.433    22060189.9744
  21039325.185   -23223058.349 9 -17981524.10647  21039324.759    21039332.2154
  22990065.452   -10916779.056 8  -8199064.64646  22990064.979    22990073.6064
  21256770.404   -19719835.301 9 -15353970.86547  21256770.164    21256777.6074
  24270799.250    -1823875.617 7  -1019479.87745  24270799.195    24270809.0684
 01  7 19 18 42  0.0000000  0 10 14 18 17 15 29 23 21 31 03 09
  22880538.517    -9528148.479 8  -7410049.88246  22880537.923    22880546.8184
  20708405.852    -8130861.473 9  -6331003.14047  20708405.549    20708411.3264
  21678546.179     4901219.242 8   3812614.65046  21678545.745    21678553.9564
  20687214.072    -3840526.322 9  -2993279.44747  20687213.440    20687220.8764
  23802595.719    -6148449.218 8  -4769542.07845  23802595.885    23802607.5144
  22072358.685     4514519.316 8   3516315.53047  22072358.134    22072365.6534
  21033957.062   -23251267.925 9 -18003505.59147  21033956.645    21033964.1084
  22976166.036   -10989820.388 8  -8255979.92746  22976165.622    22976174.2434
  21254586.032   -19731314.051 9 -15362915.36247  21254585.866    21254593.2764
  24259485.678    -1883329.073 7  -1065807.15445  24259485.668    24259495.5324
 01  7 19 18 42 30.0000000  0 10 14 18 17 15 29 23 21 31 03 09
  22860436.618    -9633783.375 8  -7492362.63846  22860436.110    22860445.0224
  20716616.714    -8087713.191 9  -6297381.12647  20716616.425    20716622.2004
  21690826.786     4965753.882 8   3862901.32546  21690826.303    21690834.5054
  20695390.473    -3797558.885 9  -2959798.36547  20695389.890    20695397.3634
  23781886.721    -6257274.987 7  -4854341.14445  23781886.783    23781898.3084
  22084562.232     4578649.397 8   3566286.99247  22084561.706    22084569.2364
  21028641.972   -23279198.655 9 -18025269.79447  21028641.574    21028649.0254
  22962349.872   -11062424.953 8  -8312554.87646  22962349.447    22962358.0184
  21252513.230   -19742207.065 9 -15371403.43047  21252512.981    21252520.3944
  24248240.597    -1942420.888 7  -1111852.62045  24248240.493    24248250.6894
 01  7 19 18 43  0.0000000  0 10 14 18 17 15 29 23 21 31 03 09
  22840378.707    -9739187.428 8  -7574495.52746  22840378.326    22840387.2654
  20724886.009    -8044257.982 9  -6263519.94647  20724885.680    20724891.4594
  21703164.199     5030587.640 8   3913421.07046  21703163.782    21703172.0024
  20703634.382    -3754237.012 9  -2926041.09247  20703633.802    20703641.2734
  23761199.602    -6365986.173 7  -4939050.93545  23761199.705    23761211.0504
  22096793.459     4642924.939 8   3616371.79847  22096792.939    22096800.4844
  21023379.925   -23306851.055 9 -18046817.11347  21023379.497    21023386.9614
  22948617.236   -11134590.158 8  -8368787.46446  22948616.743    22948625.3604
  21250551.966   -19752513.584 9 -15379434.49847  21250551.719    21250559.1534
  24237065.191    -2001148.231 7  -1157614.12045  24237064.959    24237074.9504
 01  7 19 18 43 30.0000000  0 10 14 18 17 15 29 23 21 31 03 09
  22820365.352    -9844357.882 8  -7656446.41646  22820364.980    22820373.7274
  20733213.487    -8000496.887 9  -6229420.41647  20733213.155    20733218.9424
  21715558.642     5095720.496 8   3964173.89046  21715558.182    21715566.4254
  20711945.738    -3710560.675 9  -2892007.61847  20711945.149    20711952.6334
  23740534.521    -6474580.406 7  -5023669.60345  23740534.571    23740545.9874
  22109052.234     4707344.816 8   3666569.06747  22109051.662    22109059.2244
  21018170.740   -23334225.308 9 -18068147.69847  21018170.364    21018177.8274
  22934968.683   -11206313.540 8  -8424675.78346  22934968.262    22934976.7604
  21248702.364   -19762233.209 9 -15387008.24647  21248702.169    21248709.6054
  24225959.322    -2059508.049 7  -1203089.19745  24225959.007    24225969.4064
 01  7 19 18 44  0.0000000  0 10 14 18 17 15 29 23 21 31 03 09
  22800396.799    -9949292.058 8  -7738213.13446  22800396.464    22800405.3604
  20741598.783    -7956431.733 9  -6195083.95247  20741598.480    20741604.2854
  21728009.774     5161151.748 8   4015159.21446  21728009.342    21728017.6294
  20720324.562    -3666529.740 9  -2857697.83147  20720323.988    20720331.4524
  23719892.079    -6583055.139 7  -5108195.16245  23719892.400    23719903.7474
  22121338.170     4771907.734 8   3716877.79947  22121337.597    22121345.1874
  21013014.527   -23361321.580 9 -18089261.67247  21013014.103    21013021.5804
  22921404.619   -11277592.923 8  -8480218.14046  22921404.261    22921412.7084
  21246964.639   -19771365.492 9 -15394124.32247  21246964.333    21246971.7664
  24214924.423    -2117497.564 7  -1248275.76945  24214924.207    24214934.1404
 01  7 19 18 44 30.0000000  0 10 14 18 17 15 29 23 21 31 03 09
  22780473.871   -10053987.603 8  -7819793.93946  22780473.427    22780482.2724
  20750041.681    -7912064.041 9  -6160511.74347  20750041.395    20750047.2024
  21740517.728     5226881.337 8   4066377.00446  21740517.283    21740525.6314
  20728770.771    -3622144.532 9  -2823111.99647  20728770.231    20728777.6884
  23699272.876    -6691408.274 7  -5192625.92345  23699273.215    23699284.6264
  22133651.007     4836612.162 8   3767296.80047  22133650.493    22133658.0894
  21007911.036   -23388140.530 9 -18110159.55247  21007910.616    21007918.0894
  22907925.526   -11348426.112 8  -8535412.78846  22907925.133    22907933.5544
  21245338.612   -19779910.148 9 -15400782.51047  21245338.358    21245345.8234
  24203960.209    -2175114.010 7  -1293171.63045  24203960.047    24203970.3004
 01  7 19 18 45  0.0000000  0 10 14 18 17 15 29 23 21 31 03 09
  22760596.804   -10158441.812 8  -7901186.69046  22760596.358    22760605.1514
  20758541.940    -7867395.088 9  -6125704.79147  20758541.631    20758547.4384
  21753082.382     5292908.854 8   4117826.95446  21753081.965    21753090.3444
  20737284.426    -3577405.115 9  -2788250.14447  20737283.907    20737291.3804
  23678677.650    -6799637.327 7  -5276960.07045  23678677.763    23678689.1624
  22145990.564     4901457.079 8   3817825.27147  22145990.080    22145997.6904
  21002860.342   -23414682.258 9 -18130841.41647  21002859.913    21002867.3744
  22894531.747   -11418810.713 8  -8590257.91346  22894531.385    22894539.7634
  21243824.523   -19787866.941 9 -15406982.62247  21243824.246    21243831.7254
  24193067.816    -2232354.252 7  -1337774.32045  24193067.638    24193077.6574
 01  7 19 18 45 30.0000000  0 10 14 18 17 15 29 23 21 31 03 09
  22740765.991   -10262652.316 8  -7982389.53746  22740765.616    22740774.4414
  20767099.175    -7822426.736 9  -6090664.54247  20767098.827    20767104.6524
  21765703.639     5359233.707 8   4169508.60146  21765703.217    21765711.6194
  20745865.459    -3532311.891 9  -2753112.60047  20745864.896    20745872.3684
  23658106.169    -6907740.086 7  -5361195.77645  23658106.394    23658117.6744
  22158356.582     4966440.916 8   3868461.99347  22158356.109    22158363.7614
  20997862.192   -23440947.509 9 -18151307.84347  20997861.763    20997869.2454
  22881223.897   -11488744.731 8  -8644751.92146  22881223.349    22881231.7254
  21242422.238   -19795235.902 9 -15412724.68447  21242421.997    21242429.4784
  24182247.443    -2289215.791 7  -1382081.93145  24182247.269    24182257.2264
 01  7 19 18 46  0.0000000  0 10 14 18 17 15 29 23 21 31 03 09
  22720982.200   -10366616.203 8  -8063400.22446  22720981.912    22720990.5844
  20775713.150    -7777160.043 9  -6055391.81447  20775712.783    20775718.6424
  21778381.470     5425856.032 8   4221422.02246  21778381.030    21778389.4584
  20754513.877    -3486864.623 9  -2717699.18047  20754513.260    20754520.7304
  23637559.321    -7015714.087 8  -5445331.12745  23637559.349    23637570.6804
  22170748.838     5031562.764 8   3919206.25447  22170748.420    22170756.0584
  20992916.573   -23466936.615 9 -18171559.09147  20992916.187    20992923.6774
  22868002.049   -11558225.427 8  -8698892.69046  22868001.602    22868009.9504
  21241132.008   -19802015.962 9 -15418007.86647  21241131.760    21241139.2684
  24171499.588    -2345695.479 7  -1426092.00745  24171499.349    24171509.6074
 01  7 19 18 46 30.0000000  0 10 14 18 17 15 29 23 21 31 03 09
  22701245.974   -10470330.498 8  -8144216.41746  22701245.625    22701254.3494
  20784383.644    -7731596.361 9  -6019887.67347  20784383.291    20784389.1544
  21791115.928     5492775.666 8   4273567.11846  21791115.454    21791123.9074
  20763229.609    -3441062.999 9  -2682009.64147  20763229.016    20763236.5204
  23617037.600    -7123556.544 8  -5529364.01045  23617037.575    23617048.8694
  22183167.242     5096821.581 8   3970057.23447  22183166.753    22183174.4494
  20988023.625   -23492649.437 9 -18191595.05447  20988023.204    20988030.7074
  22854866.821   -11627250.513 8  -8752678.43246  22854866.565    22854874.8904
  21239953.968   -19808206.910 9 -15422832.00147  21239953.696    21239961.1884
  24160825.135    -2401790.250 7  -1469802.17745  24160824.859    24160835.0744
 01  7 19 18 47  0.0000000  0 10 14 18 17 15 29 23 21 31 03 09
  22681557.618   -10573793.214 8  -8224836.58546  22681557.225    22681565.9384
  20793110.332    -7685737.471 9  -5984153.49647  20793109.959    20793115.8084
  21803906.913     5559991.815 8   4325943.28746  21803906.370    21803914.7404
  20772012.654    -3394907.870 9  -2646044.64047  20772012.065    20772019.6014
  23596541.114    -7231265.505 8  -5613292.86245  23596541.065    23596552.3654
  22195611.342     5162215.639 8   4021013.61947  22195610.878    22195618.5564
  20983183.050   -23518086.714 9 -18211416.30847  20983182.645    20983190.1414
  22841818.894   -11695817.947 8  -8806107.58346  22841818.559    22841826.9064
  21238887.848   -19813808.944 9 -15427197.23747  21238887.694    21238895.2074
  24150224.464    -2457497.710 7  -1513210.51945  24150224.157    24150234.0134
 01  7 19 18 47 30.0000000  0 10 14 18 17 15 29 23 21 31 03 09
  22661917.701   -10677000.969 8  -8305258.08246  22661917.332    22661926.0284
  20801892.976    -7639584.348 9  -5948190.05147  20801892.629    20801898.4794
  21816754.174     5627504.753 8   4378550.67946  21816753.665    21816762.0934
  20780863.133    -3348398.812 9  -2609803.84947  20780862.528    20780870.0304
  23576070.475    -7338838.162 8  -5697115.52245  23576070.456    23576081.7364
  22208080.974     5227744.342 8   4072074.90247  22208080.566    22208088.3144
  20978394.996   -23543248.236 9 -18231022.68847  20978394.570    20978402.0744
  22828858.580   -11763924.988 8  -8859177.97746  22828858.260    22828866.5304
  21237934.204   -19818821.030 9 -15431102.77947  21237933.914    21237941.4424
  24139697.977    -2512814.495 7  -1556314.44645  24139697.755    24139707.6344
 01  7 19 18 48  0.0000000  0 10 14 18 17 15 29 23 21 31 03 09
  22642326.791   -10779951.719 8  -8385479.33446  22642326.444    22642334.9454
  20810731.277    -7593138.851 9  -5911998.77847  20810730.931    20810736.7684
  21829657.918     5695313.637 8   4431388.72346  21829657.403    21829665.7094
  20789780.745    -3301536.302 9  -2573287.64347  20789780.165    20789787.6844
  23555626.466    -7446272.573 8  -5780830.45645  23555626.359    23555637.5684
  22220576.086     5293406.037 8   4123239.82747  22220575.596    22220583.3174
  20973659.191   -23568135.024 9 -18250414.98747  20973658.768    20973666.2594
  22815986.278   -11831569.795 8  -8911888.19046  22815985.852    22815994.0884
  21237092.595   -19823243.652 9 -15434548.99547  21237092.337    21237099.8644
  24129246.261    -2567738.121 7  -1599111.97945  24129246.031    24129255.8744
 01  7 19 18 48 30.0000000  0 10 14 18 17 15 29 23 21 31 03 09
  22622785.252   -10882642.476 8  -8465497.99946  22622784.972    22622793.3864
  20819624.936    -7546402.281 9  -5875580.69647  20819624.624    20819630.4794
  21842617.822     5763418.387 8   4484457.28946  21842617.331    21842625.6204
  20798765.706    -3254320.402 9  -2536496.06947  20798765.075    20798772.6204
  23535209.093    -7553566.034 8  -5864435.57345  23535209.014    23535220.1724
  22233096.353     5359199.762 8   4174507.63147  22233095.748    22233103.4734
  20968975.686   -23592747.194 9 -18269593.30047  20968975.230    20968982.7154
  22803202.428   -11898749.791 8  -8964236.19346  22803201.882    22803210.1664
  21236363.220   -19827076.508 9 -15437535.65647  21236362.982    21236370.5144
  24118869.673    -2622265.644 7  -1641600.88545  24118869.414    24118879.6774
 01  7 19 18 49  0.0000000  0 10 14 18 17 15 29 23 21 31 03 09
  22603293.790   -10985070.648 8  -8545312.03746  22603293.396    22603301.8624
  20828573.816    -7499375.893 9  -5838936.78447  20828573.489    20828579.3414
  21855634.021     5831818.815 8   4537756.25746  21855633.589    21855641.8844
  20807817.872    -3206751.038 9  -2499429.06647  20807817.288    20807824.8304
  23514818.958    -7660716.237 8  -5947929.06945  23514818.830    23514829.8904
  22245641.449     5425124.551 8   4225877.55647  22245640.873    22245648.6034
  20964344.408   -23617084.665 9 -18288557.56847  20964343.957    20964351.4464
  22790507.199   -11965462.865 8  -9016220.38546  22790506.740    22790515.0154
  21235746.168   -19830318.961 9 -15440062.26647  21235745.989    21235753.5214
  24108569.481    -2676394.157 7  -1683778.89345  24108569.205    24108579.3184
 01  7 19 18 49 30.0000000  0 10 14 18 17 15 29 23 21 31 03 09
  22583852.688   -11087233.859 8  -8624919.62446  22583852.265    22583860.7194
  20837577.487    -7452061.490 9  -5802068.43647  20837577.145    20837582.9864
  21868706.439     5900514.277 8   4591285.12046  21868705.970    21868714.3454
  20816937.263    -3158828.337 9  -2462086.73847  20816936.664    20816944.2664
  23494456.474    -7767720.885 8  -6031309.15845  23494456.366    23494467.3904
  22258211.210     5491178.919 8   4277348.45247  22258210.651    22258218.3524
  20959765.258   -23641148.358 9 -18307308.49247  20959764.787    20959772.2844
  22777901.376   -12031707.001 8  -9067839.14846  22777900.848    22777909.1134
  21235241.491   -19832971.087 9 -15442128.87447  21235241.328    21235248.8654
  24098345.752    -2730120.893 7  -1725643.79945  24098345.582    24098355.4494
 01  7 19 18 50  0.0000000  0 10 14 18 17 15 29 23 21 31 03 09
  22564462.418   -11189129.678 8  -8704318.86446  22564462.028    22564470.3884
  20846635.594    -7404460.456 9  -5764976.74547  20846635.335    20846641.1914
  21881834.786     5969504.358 8   4645043.54446  21881834.371    21881842.7374
  20826123.878    -3110552.648 9  -2424469.34747  20826123.265    20826130.8574
  23474122.123    -7874577.826 8  -6114574.15245  23474122.054    23474132.9284
  22270805.346     5557361.498 8   4328919.25847  22270804.773    22270812.5104
  20955238.052   -23664938.639 9 -18325846.37647  20955237.661    20955245.1534
  22765385.198   -12097480.145 8  -9119090.91946  22765384.672    22765392.9784
  21234849.160   -19835033.069 9 -15443735.63347  21234848.960    21234856.4944
  24088198.669    -2783443.423 7  -1767193.72245  24088198.507    24088208.3394
 01  7 19 18 50 30.0000000  0 10 14 18 17 15 29 23 21 31 03 09
  22545123.550   -11290755.125 8  -8783507.42946  22545123.216    22545131.6504
  20855748.146    -7356574.026 9  -5727662.66847  20855747.836    20855753.7244
  21895019.376     6038788.862 8   4699031.41146  21895018.894    21895027.2604
  20835377.622    -3061923.959 9  -2386576.89247  20835377.039    20835384.5824
  23453816.418    -7981284.320 8  -6197721.91245  23453816.281    23453827.1484
  22283423.746     5623671.543 8   4380589.38047  22283423.207    22283430.9684
  20950762.915   -23688455.766 9 -18344171.40747  20950762.519    20950769.9864
  22752959.160   -12162779.772 8  -9169973.70446  22752958.535    22752966.8864
  21234569.249   -19836504.313 9 -15444882.07047  21234568.994    21234576.5644
  24078129.148    -2836358.733 7  -1808426.37045  24078129.068    24078138.8364
 01  7 19 18 51  0.0000000  0 10 14 18 17 15 29 23 21 31 03 09
  22525836.687   -11392107.466 8  -8862483.18246  22525836.418    22525844.7954
  20864914.770    -7308403.339 9  -5690127.08747  20864914.450    20864920.3194
  21908259.827     6108367.973 8   4753248.81646  21908259.338    21908267.7584
  20844698.558    -3012942.273 9  -2348409.38247  20844697.966    20844705.5274
  23433539.916    -8087837.815 8  -6280750.44245  23433539.758    23433550.5294
  22296066.155     5690107.963 8   4432357.98147  22296065.705    22296073.4434
  20946339.705   -23711699.730 9 -18362283.58747  20946339.311    20946346.7924
  22740623.434   -12227603.557 8  -9220485.71846  22740622.914    22740631.3154
  21234401.761   -19837384.741 9 -15445568.13547  21234401.460    21234409.0314
  24068137.833    -2888863.921 7  -1849339.45445  24068137.746    24068147.4844
 01  7 19 18 51 30.0000000  0 10 14 18 17 15 29 23 21 31 03 09
  22506602.422   -11493183.925 8  -8941243.96146  22506602.194    22506610.4884
  20874135.183    -7259949.892 9  -5652371.17747  20874134.857    20874140.7344
  21921556.299     6178241.057 8   4807695.31946  21921555.903    21921564.2304
  20854086.657    -2963607.751 9  -2309966.93247  20854086.037    20854093.6304
  23413292.721    -8194235.787 8  -6363657.79345  23413292.675    23413303.3804
  22308732.459     5756669.642 8   4484224.18447  22308731.986    22308739.7444
  20941968.473   -23734670.894 9 -18380183.19147  20941968.037    20941975.5264
  22728378.844   -12291948.902 8  -9270624.91946  22728378.421    22728386.8294
  21234346.700   -19837674.103 9 -15445793.63447  21234346.418    21234353.9874
  24058224.890    -2940955.977 8  -1889930.59245  24058224.768    24058234.5934
 01  7 19 18 52  0.0000000  0 10 14 18 17 15 29 23 21 31 03 09
  22487421.148   -11593982.365 8  -9019788.11646  22487420.883    22487429.0914
  20883408.998    -7211215.725 9  -5614396.52547  20883408.667    20883414.5584
  21934908.618     6248407.292 8   4862370.23346  21934908.129    21934916.5584
  20863541.741    -2913921.106 9  -2271250.10347  20863541.121    20863548.7034
  23393075.564    -8300476.626 8  -6446442.72045  23393075.582    23393086.2424
  22321422.261     5823354.982 8   4536186.74046  22321421.811    22321429.5664
  20937648.904   -23757369.928 9 -18397870.75147  20937648.567    20937656.0554
  22716225.704   -12355814.232 8  -9320390.07846  22716225.174    22716233.5884
  21234404.100   -19837372.811 9 -15445558.87947  21234403.768    21234411.3494
  24048391.201    -2992632.874 8  -1930198.25145  24048390.905    24048400.8914
 01  7 19 18 52 30.0000000  0 10 14 18 17 15 29 23 21 31 03 09
  22468293.095   -11694500.421 8  -9098113.77846  22468292.875    22468301.0634
  20892736.005    -7162202.184 9  -5576204.17847  20892735.660    20892741.5344
  21948316.507     6318866.407 8   4917273.36346  21948316.097    21948324.5404
  20873063.790    -2863882.379 9  -2232258.93047  20873063.189    20873070.7934
  23372888.938    -8406557.723 8  -6529103.15745  23372888.936    23372899.5994
  22334135.399     5890162.986 8   4588244.88946  22334134.960    22334142.7444
  20933381.176   -23779797.417 9 -18415346.71047  20933380.762    20933388.2484
  22704164.185   -12419197.703 8  -9369779.77446  22704163.724    22704172.1364
  21234573.745   -19836480.991 9 -15444863.97847  21234573.501    21234581.0704
  24038636.805    -3043891.916 7  -1970140.29145  24038636.568    24038646.5394
 01  7 19 18 53  0.0000000  0 10 14 18 17 15 29 23 21 31 03 09
  22449218.924   -11794735.201 8  -9176218.69246  22449218.659    22449226.8524
  20902115.952    -7112910.271 9  -5537794.92047  20902115.616    20902121.5044
  21961780.266     6389618.128 8   4972404.50246  21961779.876    21961788.2544
  20882652.909    -2813491.387 9  -2192993.26447  20882652.311    20882659.9244
  23352733.136    -8512476.636 8  -6611637.24745  23352733.120    23352743.6194
  22346871.789     5957092.761 8   4640397.92146  22346871.313    22346879.0654
  20929164.969   -23801953.374 9 -18432611.09747  20929164.631    20929172.1054
  22692194.843   -12482096.881 8  -9418792.09446  22692194.321    22692202.7604
  21234855.903   -19834998.465 9 -15443708.78447  21234855.645    21234863.2134
  24028962.511    -3094730.033 7  -2009754.32645  24028962.296    24028972.2564
 01  7 19 18 53 30.0000000  0 10 14 18 17 15 29 23 21 31 03 09
  22430199.214   -11894684.248 8  -9254100.96846  22430198.917    22430207.1254
  20911548.549    -7063341.797 9  -5499170.15447  20911548.216    20911554.1214
  21975299.387     6460661.967 8   5027763.25446  21975298.977    21975307.4474
  20892308.944    -2762748.737 9  -2153453.57247  20892308.336    20892315.9724
  23332608.793    -8618230.995 8  -6694043.09845  23332608.542    23332619.0564
  22359630.993     6024142.749 8   4692644.61346  22359630.520    22359638.3284
  20925000.489   -23823838.345 9 -18449664.32047  20925000.074    20925007.5374
  22680318.038   -12544509.667 8  -9467425.40246  22680317.543    22680325.9724
  21235250.459   -19832925.488 9 -15442093.49747  21235250.122    21235257.7064
  24019368.802    -3145144.996 7  -2049038.66145  24019368.447    24019378.4234
 01  7 19 18 54  0.0000000  0 10 14 18 17 15 29 23 21 31 03 09
  22411234.408   -11994344.860 8  -9331758.49946  22411234.066    22411242.2584
  20921033.570    -7013497.728 9  -5460330.64347  20921033.240    20921039.1604
  21988874.146     6531997.845 8   5083349.57146  21988873.879    21988882.3694
  20902031.937    -2711654.165 9  -2113639.66447  20902031.355    20902038.9224
  23312516.130    -8723818.233 8  -6776318.71445  23312515.772    23312526.2734
  22372413.072     6091312.512 8   4744984.65646  22372412.561    22372420.3344
  20920887.473   -23845452.318 9 -18466506.37847  20920887.071    20920894.5434
  22668534.217   -12606433.521 8  -9515677.72046  22668533.821    22668542.2064
  21235757.367   -19830261.376 9 -15440017.59147  21235757.121    21235764.6894
  24009856.205    -3195133.419 7  -2087990.62245  24009855.963    24009865.9334
 01  7 19 18 54 30.0000000  0 10 14 18 17 15 29 23 21 31 03 09
  22392324.797   -12093714.764 8  -9409189.51346  22392324.496    22392332.6544
  20930570.665    -6963380.100 9  -5421277.96847  20930570.338    20930576.2504
  22002504.524     6603624.748 8   5139162.66346  22002504.123    22002512.6114
  20911821.803    -2660208.550 9  -2073552.21447  20911821.167    20911828.7574
  23292455.603    -8829236.523 8  -6858462.71845  23292455.349    23292465.7274
  22385217.557     6158600.320 8   4797416.66846  22385216.987    22385224.8164
  20916825.866   -23866796.148 9 -18483137.93347  20916825.473    20916832.9364
  22656843.833   -12667867.078 8  -9563548.00146  22656843.404    22656851.7874
  21236376.724   -19827006.721 9 -15437481.51647  21236376.453    21236384.0294
  24000425.141    -3244693.380 7  -2126608.71145  24000424.912    24000434.9384
 01  7 19 18 55  0.0000000  0 10 14 18 17 15 29 23 21 31 03 09
  22373471.210   -12192791.144 8  -9486391.80846  22373470.839    22373478.9854
  20940159.670    -6912989.771 9  -5382012.80047  20940159.329    20940165.2344
  22016189.980     6675542.703 8   5195202.53746  22016189.589    22016198.1984
  20921678.397    -2608411.816 9  -2033191.15747  20921677.784    20921685.3714
  23272427.435    -8934483.164 8  -6940472.93945  23272427.403    23272437.8384
  22398044.356     6226005.469 8   4849940.12346  22398043.847    22398051.6354
  20912815.652   -23887870.125 9 -18499559.21847  20912815.249    20912822.7214
  22645247.353   -12728807.914 8  -9611034.32846  22645246.752    22645255.1584
  21237108.454   -19823161.544 9 -15434485.29547  21237108.206    21237115.7804
  23991076.331    -3293821.896 8  -2164890.62845  23991076.033    23991085.8774
 01  7 19 18 55 30.0000000  0 10 14 18 17 15 29 23 21 31 03 09
  22354673.954   -12291571.545 8  -9563363.46546  22354673.482    22354681.6014
  20949800.163    -6862328.764 9  -5342536.72147  20949799.795    20949805.7214
  22029930.888     6747751.133 8   5251468.77246  22029930.497    22029939.0694
  20931601.826    -2556264.042 9  -1992556.57647  20931601.204    20931608.8534
  23252432.746    -9039555.979 8  -7022347.72645  23252432.596    23252443.0304
  22410893.191     6293526.607 8   4902553.95646  22410892.711    22410900.5124
  20908856.703   -23908674.577 9 -18515770.48647  20908856.290    20908863.7614
  22633744.735   -12789253.942 8  -9658135.11546  22633744.255    22633752.6204
  21237952.397   -19818726.378 9 -15431029.34847  21237952.212    21237959.7924
  23981810.119    -3342516.619 7  -2202834.47645  23981809.769    23981819.4974
 01  7 19 18 56  0.0000000  0 10 14 18 17 15 29 23 21 31 03 09
  22335933.314   -12390053.446 8  -9640102.53446  22335932.975    22335941.0404
  20959492.002    -6811397.869 9  -5302850.33147  20959491.646    20959497.5744
  22043726.832     6820249.776 8   5307961.12046  22043726.436    22043735.2134
  20941592.012    -2503765.412 9  -1951648.59947  20941591.388    20941599.0984
  23232471.660    -9144452.349 8  -7104085.03845  23232471.455    23232481.7614
  22423763.957     6361162.791 8   4955257.42946  22423763.481    22423771.2964
  20904949.055   -23929209.599 9 -18531771.80647  20904948.605    20904956.0634
  22622336.856   -12849202.946 8  -9704848.60546  22622336.333    22622344.6884
  21238908.662   -19813700.960 9 -15427113.46147  21238908.510    21238916.0954
  23972626.908    -3390774.581 7  -2240438.01245  23972626.626    23972636.1984
 01  7 19 18 56 30.0000000  0 10 14 18 17 15 29 23 21 31 03 09
  22317249.980   -12488234.184 8  -9716606.93246  22317249.759    22317257.8434
  20969234.875    -6760198.707 9  -5262954.90547  20969234.551    20969240.4784
  22057578.044     6893038.139 8   5364679.24146  22057577.676    22057586.4414
  20951648.866    -2450916.282 9  -1910467.49747  20951648.286    20951655.9454
  23212544.459    -9249170.134 8  -7185683.18545  23212544.330    23212554.4844
  22436656.525     6428913.038 8   5008049.80046  22436655.947    22436663.8134
  20901092.487   -23949475.720 9 -18547563.59347  20901092.095    20901099.5484
  22611023.835   -12908652.970 8  -9751173.27646  22611023.294    22611031.6684
  21239977.342   -19808085.330 9 -15422737.67047  21239977.160    21239984.7614
  23963527.223    -3438593.147 7  -2277699.18945  23963526.975    23963536.4914
 01  7 19 18 57  0.0000000  0 10 14 18 17 15 29 23 21 31 03 09
  22298624.615   -12586111.138 8  -9792874.62046  22298624.323    22298632.3384
  20979028.541    -6708732.594 9  -5222851.46347  20979028.251    20979034.1824
  22071484.435     6966115.735 8   5421622.75246  22071484.020    22071492.7224
  20961772.427    -2397716.841 9  -1869013.43047  20961771.827    20961779.5094
  23192651.816    -9353706.764 8  -7267140.17345  23192651.572    23192661.7194
  22449570.450     6496776.355 8   5060930.26646  22449569.936    22449577.7764
  20897287.014   -23969473.500 9 -18563146.27947  20897286.629    20897294.0904
  22599806.159   -12967601.961 8  -9797107.52646  22599805.650    22599814.0464
  21241158.265   -19801879.869 9 -15417902.26847  21241158.032    21241165.6264
  23954511.689    -3485969.567 8  -2314615.80045  23954511.417    23954521.1634
 01  7 19 18 57 30.0000000  0 10 14 18 17 15 29 23 21 31 03 09
  22280057.363   -12683682.425 8  -9868904.11646  22280056.998    22280065.1164
  20988872.647    -6657001.418 9  -5182541.47547  20988872.386    20988878.3074
  22085445.518     7039481.880 8   5478791.07146  22085445.124    22085453.9494
  20971962.515    -2344167.675 9  -1827286.85047  20971961.913    20971969.6204
  23172793.796    -9458060.365 8  -7348454.53245  23172793.559    23172803.7134
  22462505.665     6564751.153 8   5113897.59346  22462505.141    22462512.9834
  20893532.477   -23989203.672 9 -18578520.44347  20893532.109    20893539.5854
  22588684.103   -13026048.270 8  -9842650.07246  22588683.660    22588692.0664
  21242451.200   -19795085.342 9 -15412607.85247  21242450.977    21242458.6124
  23945580.699    -3532902.008 8  -2351186.42645  23945580.300    23945590.0424
 01  7 19 18 58  0.0000000  0 10 14 18 17 15 29 23 21 31 03 09
  22261548.887   -12780944.800 8  -9944692.91146  22261548.541    22261556.6414
  20998767.139    -6605005.730 9  -5142025.37847  20998766.876    20998772.7784
  22099461.582     7113136.646 8   5536184.31446  22099461.221    22099470.0304
  20982219.257    -2290268.339 9  -1785287.42047  20982218.662    20982226.3954
  23152971.297    -9562227.996 8  -7429623.99646  23152971.022    23152981.1484
  22475462.085     6632837.113 8   5166951.54746  22475461.502    22475469.3724
  20889828.994   -24008665.769 9 -18593685.71747  20889828.583    20889836.0514
  22577658.324   -13083989.285 8  -9887798.88546  22577657.833    22577666.2504
  21243856.366   -19787701.061 9 -15406853.89747  21243856.214    21243863.8314
  23936734.806    -3579387.353 7  -2387408.71145  23936734.414    23936744.0534
 01  7 19 18 58 30.0000000  0 10 14 18 17 15 29 23 21 31 03 09
  22243099.647   -12877896.193 8 -10020239.37746  22243099.283    22243107.3214
  21008711.489    -6552747.997 9  -5101305.09347  21008711.192    21008717.1064
  22113532.523     7187078.805 8   5593801.50146  22113532.100    22113540.8724
  20992542.435    -2236019.904 9  -1743015.95347  20992541.836    20992549.5484
  23133184.504    -9666208.048 8  -7510647.28346  23133184.220    23133194.2644
  22488439.172     6701032.321 8   5220090.62946  22488438.658    22488446.5334
  20886176.279   -24027861.005 9 -18608643.04147  20886175.861    20886183.3444
  22566728.811   -13141423.856 8  -9932553.06746  22566728.359    22566736.7614
  21245373.581   -19779728.170 9 -15400641.27747  21245373.404    21245381.0424
  23927974.343    -3625423.677 7  -2423281.07745  23927974.010    23927983.3734
 01  7 19 18 59  0.0000000  0 10 14 18 17 15 29 23 21 31 03 09
  22224710.074   -12974533.859 8 -10095541.38246  22224709.684    22224717.7364
  21018705.485    -6500229.215 9  -5060381.40047  21018705.203    21018711.1294
  22127657.984     7261308.384 8   5651642.61346  22127657.581    22127666.3924
  21002932.017    -2181422.391 9  -1700472.48947  21002931.423    21002939.1894
  23113433.898    -9769997.808 8  -7591522.27546  23113433.594    23113443.6354
  22501436.970     6769336.195 8   5273314.38446  22501436.470    22501444.3704
  20882574.313   -24046789.384 9 -18623392.42747  20882573.905    20882581.3824
  22555896.220   -13198349.575 8  -9976910.73646  22555895.749    22555904.1414
  21247002.773   -19771166.716 9 -15393970.03847  21247002.606    21247010.2694
  23919299.727    -3671007.894 7  -2458801.17445  23919299.395    23919308.9714
 01  7 19 18 59 30.0000000  0 10 14 18 17 15 29 23 21 31 03 09
  22206380.690   -13070855.712 8 -10170597.29446  22206380.183    22206388.2234
  21028749.011    -6447450.586 9  -5019255.22047  21028748.680    21028754.5924
  22141838.091     7335824.622 8   5709707.13846  22141837.695    22141846.5204
  21013387.965    -2126476.160 9  -1657657.28947  21013387.365    21013395.1354
  23093719.867    -9873595.106 8  -7672247.32746  23093719.601    23093729.7074
  22514455.188     6837747.427 8   5326621.79446  22514454.717    22514462.6694
  20879023.079   -24065451.521 9 -18637934.35447  20879022.633    20879030.1114
  22545160.830   -13254764.655 8 -10020870.50846  22545160.330    22545168.6574
  21248743.856   -19762017.263 9 -15386840.62347  21248743.721    21248751.3604
  23910711.663    -3716137.837 7  -2493967.26645  23910711.380    23910720.8724
 01  7 19 19  0  0.0000000  0 10 14 18 17 15 29 23 21 31 03 09
  22188111.886   -13166858.923 8 -10245404.92446  22188111.360    22188119.3274
  21038841.656    -6394413.412 9  -4977927.57847  21038841.343    21038847.2664
  22156072.584     7410627.394 8   5767994.93846  22156072.170    22156081.0564
  21023910.318    -2071181.094 9  -1614570.27547  21023909.710    21023917.5234
  23074042.924    -9976997.379 8  -7752820.38946  23074042.633    23074052.6794
  22527493.793     6906265.436 8   5380012.40546  22527493.291    22527501.2774
  20875522.395   -24083847.619 9 -18652268.97947  20875521.997    20875529.4644
  22534522.996   -13310666.992 8 -10064430.74046  22534522.405    22534530.7574
  21250596.940   -19752279.556 9 -15379252.82147  21250596.768    21250604.4304
  23902210.738    -3760810.638 8  -2528777.22345  23902210.514    23902219.8444
 01  7 19 19  0 30.0000000  0 10 14 18 17 15 29 23 21 31 03 09
  22169904.028   -13262541.154 8 -10319962.43146  22169903.585    22169911.5894
  21048983.174    -6341119.301 9  -4936399.72947  21048982.862    21048988.7974
  22170361.466     7485715.945 8   5826505.39346  22170361.088    22170370.0214
  21034498.886    -2015537.911 9  -1571212.00147  21034498.260    21034506.0954
  23054403.446   -10080202.486 8  -7833239.84346  23054403.309    23054413.2544
  22540552.393     6974888.842 8   5433485.13746  22540551.940    22540559.9174
  20872072.318   -24101977.891 9 -18666396.46247  20872071.905    20872079.3814
  22523983.171   -13366054.909 8 -10107590.13246  22523982.452    22523990.7454
  21252561.752   -19741954.427 9 -15371207.29247  21252561.608    21252569.2634
  23893797.225    -3805024.096 8  -2563229.19945  23893796.998    23893806.3924
 01  7 19 19  1  0.0000000  0 10 14 18 17 15 29 23 21 31 03 09
  22151757.788   -13357899.454 8 -10394267.52746  22151757.398    22151765.4054
  21059173.404    -6287569.385 9  -4894672.54547  21059173.088    21059179.0284
  22184704.938     7561089.965 8   5885238.30146  22184704.508    22184713.4214
  21045153.692    -1959546.671 9  -1527582.51147  21045153.104    21045160.8924
  23034802.073   -10183207.947 8  -7913503.70346  23034801.898    23034811.8494
  22553630.977     7043616.975 8   5487039.46946  22553630.517    22553638.5494
  20868672.824   -24119842.304 9 -18680316.79247  20868672.449    20868679.8924
  22513541.555   -13420925.920 8 -10150346.75046  22513540.810    22513549.1614
  21254638.344   -19731041.939 9 -15362704.08547  21254638.190    21254645.8644
  23885471.679    -3848775.409 8  -2597321.06445  23885471.503    23885480.7004
 01  7 19 19  1 30.0000000  0 10 14 18 17 15 29 23 21 31 03 09
  22133673.682   -13452931.645 8 -10468318.51146  22133673.347    22133681.3364
  21069412.045    -6233765.201 9  -4852747.23647  21069411.730    21069417.6704
  22199102.369     7636749.120 8   5944193.38846  22199101.971    22199110.8494
  21055874.731    -1903207.591 9  -1483681.98347  21055874.152    21055881.9144
  23015239.244   -10286011.294 8  -7993610.09246  23015239.051    23015248.9014
  22566729.282     7112448.753 8   5540674.58746  22566728.809    22566736.8394
  20865323.770   -24137441.946 9 -18694030.79947  20865323.327    20865330.7964
  22503198.520   -13475278.532 8 -10192699.40946  22503197.811    22503206.1484
  21256826.652   -19719542.467 9 -15353743.48447  21256826.475    21256834.1534
  23877234.438    -3892062.232 7  -2631050.97245  23877234.255    23877243.3704
 01  7 19 19  2  0.0000000  0 10 14 18 17 15 29 23 21 31 03 09
  22115652.127   -13547635.390 8 -10542113.56146  22115651.753    22115659.7184
  21079698.788    -6179708.113 9  -4810624.86647  21079698.439    21079704.3934
  22213554.001     7712692.487 8   6003369.94246  22213553.596    22213562.4694
  21066661.846    -1846521.204 9  -1439510.82647  21066661.254    21066669.0014
  22995715.029   -10388610.601 8  -8073557.48446  22995714.938    22995724.7984
  22579847.034     7181382.984 8   5594389.52546  22579846.587    22579854.6474
  20862024.937   -24154777.319 9 -18707538.88347  20862024.531    20862031.9854
  22492954.625   -13529110.891 8 -10234646.68146  22492953.822    22492962.1694
  21259126.511   -19707456.742 9 -15344326.06447  21259126.323    21259134.0134
  23869085.881    -3934882.584 7  -2664417.38345  23869085.706    23869094.8324
 01  7 19 19  2 30.0000000  0 10 14 18 17 15 29 23 21 31 03 09
  22097693.456   -13642007.933 8 -10615650.54246  22097693.175    22097701.1024
  21090033.492    -6125399.139 9  -4768306.21047  21090033.134    21090039.0814
  22228059.789     7788920.059 8   6062767.95046  22228059.325    22228068.1984
  21077515.078    -1789487.205 9  -1395068.79847  21077514.480    21077522.2554
  22976230.261   -10491003.042 8  -8153343.68146  22976230.207    22976240.1124
  22592984.287     7250419.160 8   5648183.90546  22592983.783    22592991.8284
  20858776.483   -24171848.424 9 -18720841.04347  20858776.010    20858783.4754
  22482809.971   -13582420.916 8 -10276186.94346  22482809.225    22482817.5654
  21261537.919   -19694784.705 9 -15334451.77247  21261537.774    21261545.4414
  23861026.605    -3977233.266 7  -2697417.82945  23861026.436    23861035.8454
 01  7 19 19  3  0.0000000  0 10 14 18 17 15 29 23 21 31 03 09
  22079798.356   -13736046.908 8 -10688927.59646  22079798.114    22079805.9884
  21100415.777    -6070839.921 9  -4725792.55447  21100415.426    21100421.3814
  22242619.451     7865431.177 8   6122386.89446  22242618.906    22242627.9244
  21088434.350    -1732106.332 9  -1350356.47147  21088433.761    21088441.5224
  22956785.297   -10593186.455 8  -8232967.00646  22956785.209    22956795.1024
  22606140.658     7319556.123 8   5702056.82546  22606140.174    22606148.1614
  20855578.168   -24188655.484 9 -18733937.45547  20855577.734    20855585.2164
  22472764.879   -13635206.732 8 -10317318.72446  22472764.419    22472772.7544
  21264060.761   -19681527.172 9 -15324121.25847  21264060.627    21264068.2704
  23853057.196    -4019112.068 7  -2730050.62045  23853057.043    23853066.5684
 01  7 19 19  3 30.0000000  0 10 14 18 17 15 29 23 21 31 03 09
  22061967.354   -13829749.471 8 -10761942.51046  22061967.088    22061974.9174
  21110845.484    -6016031.481 9  -4683084.70747  21110845.136    21110851.1384
  22257232.931     7942225.393 8   6182226.45146  22257232.478    22257241.4214
  21099419.562    -1674378.818 9  -1305374.04747  21099418.976    21099426.7324
  22937380.476   -10695158.480 8  -8312425.62646  22937380.453    22937390.3354
  22619316.058     7388793.075 8   5756007.64646  22619315.514    22619323.5974
  20852430.080   -24205198.972 9 -18746828.49247  20852429.623    20852437.0834
  22462820.269   -13687465.999 8 -10358040.22546  22462819.813    22462828.1174
  21266694.955   -19667684.488 9 -15313334.77947  21266694.823    21266702.4884
  23845178.256    -4060516.459 7  -2762313.71845  23845178.326    23845187.4214
 01  7 19 19  4  0.0000000  0 10 14 18 17 15 29 23 21 31 03 09
  22044200.470   -13923114.805 8 -10834694.66146  22044200.208    22044207.9664
  21121322.003    -5960976.926 9  -4640185.08247  21121321.683    21121327.6794
  22271900.089     8019300.742 8   6242285.07646  22271899.585    22271908.4544
  21110470.482    -1616306.450 9  -1260122.90447  21110469.856    21110477.6114
  22918016.154   -10796918.177 8  -8391718.78846  22918016.137    22918025.9814
  22632510.030     7458127.547 8   5810034.46546  22632509.509    22632517.5194
  20849331.755   -24221480.576 9 -18759515.45747  20849331.338    20849338.7674
  22452975.850   -13739198.616 8 -10398351.33346  22452975.409    22452983.7324
  21269440.081   -19653258.885 9 -15302094.08047  21269439.943    21269447.6174
  23837389.554    -4101445.965 7  -2794206.75745  23837389.548    23837398.7724
 01  7 19 19  4 30.0000000  0 10 14 18 17 15 29 23 21 31 03 09
  22026498.465   -14016139.516 8 -10907181.38246  22026498.173    22026505.9144
  21131845.431    -5905675.957 9  -4597093.44747  21131845.138    21131851.1214
  22286620.638     8096658.017 8   6302563.34946  22286620.054    22286629.1214
  21121587.179    -1557888.077 9  -1214602.14047  21121586.580    21121594.3364
  22898692.882   -10898462.194 8  -8470843.90246  22898692.875    22898702.6564
  22645722.536     7527559.755 8   5864137.43446  22645722.033    22645730.1224
  20846283.480   -24237499.552 9 -18771997.78147  20846283.038    20846290.4554
  22443232.280   -13790401.670 8 -10438249.80046  22443231.764    22443240.0904
  21272296.336   -19638249.394 9 -15290398.40247  21272296.166    21272303.8544
  23829691.965    -4141896.712 7  -2825726.79445  23829692.047    23829701.0094
 01  7 19 19  5  0.0000000  0 10 14 18 17 15 29 23 21 31 03 09
  22008861.501   -14108822.004 8 -10979401.43646  22008861.192    22008868.9594
  21142415.366    -5850130.945 9  -4553811.64547  21142415.041    21142421.0474
  22301394.564     8174295.672 8   6363060.12646  22301394.106    22301403.1424
  21132769.434    -1499125.119 9  -1168812.87447  21132768.799    21132776.6024
  22879411.005   -10999789.122 8  -8549799.84046  22879410.954    22879420.6634
  22658953.323     7597087.868 8   5918315.13746  22658952.823    22658960.9124
  20843284.927   -24253257.014 9 -18784276.31747  20843284.494    20843291.9134
  22433589.464   -13841074.443 8 -10477735.05246  22433589.039    22433597.2984
  21275263.393   -19622657.481 9 -15278248.87847  21275263.252    21275270.9314
  23822085.804    -4181867.291 7  -2856872.61745  23822085.842    23822094.8054
 01  7 19 19  5 30.0000000  0 10 14 18 17 15 29 23 21 31 03 09
  21991290.574   -14201158.050 8 -11051351.53446  21991290.207    21991297.9714
  21153031.624    -5794341.912 9  -4510339.70247  21153031.351    21153037.3694
  22316222.182     8252214.581 8   6423776.07146  22316221.731    22316230.6934
  21144017.491    -1440016.323 9  -1122754.12347  21144016.872    21144024.6914
  22860171.116   -11100894.862 8  -8628583.43746  22860171.093    22860180.7674
  22672202.497     7666712.428 8   5972568.00346  22672202.041    22672210.0554
  20840336.338   -24268751.762 9 -18796350.15547  20840335.956    20840343.3614
  22424048.259   -13891213.652 8 -10516804.53946  22424047.855    22424056.1484
  21278341.461   -19606482.262 9 -15265644.84147  21278341.321    21278349.0124
  23814571.489    -4221353.916 7  -2887641.34845  23814571.604    23814580.5124
 01  7 19 19  6  0.0000000  0 10 14 18 17 15 29 23 21 31 03 09
  21973785.743   -14293146.539 8 -11123030.82247  21973785.335    21973793.0934
  21163693.932    -5738311.341 9  -4466679.55447  21163693.640    21163699.6644
  22331102.888     8330413.147 8   6484709.87546  22331102.370    22331111.5194
  21155331.036    -1380563.437 9  -1076427.25047  21155330.399    21155338.2674
  22840973.353   -11201778.698 8  -8707194.13046  22840973.453    22840983.0464
  22685469.554     7736431.499 8   6026894.48746  22685469.126    22685477.2304
  20837437.445   -24283985.718 9 -18808220.78047  20837437.032    20837444.4384
  22414608.812   -13940818.667 8 -10555457.78646  22414608.310    22414616.6054
  21281530.113   -19589725.566 9 -15252587.70747  21281530.023    21281537.7224
  23807149.821    -4260355.536 7  -2918032.15245  23807149.873    23807158.9574
 01  7 19 19  6 30.0000000  0 10 14 18 17 15 29 23 21 31 03 09
  21956347.434   -14384785.000 8 -11194437.35147  21956347.067    21956354.8014
  21174402.047    -5682040.139 9  -4422831.89147  21174401.737    21174407.7684
  22346036.833     8408890.941 8   6545861.31046  22346036.400    22346045.4354
  21166710.077    -1320766.434 9  -1029832.23547  21166709.472    21166717.3244
  22821818.469   -11302437.834 8  -8785629.72246  22821818.544    22821828.1974
  22698754.636     7806244.427 8   6081294.13446  22698754.179    22698762.2544
  20834588.140   -24298959.166 9 -18819888.40247  20834587.705    20834595.1214
  22405271.329   -13989887.509 8 -10593693.22646  22405270.814    22405279.1334
  21284829.435   -19572387.826 9 -15239077.80347  21284829.319    21284837.0224
  23799820.917    -4298869.339 7  -2948042.86545  23799820.937    23799830.0954
 01  7 19 19  7  0.0000000  0 10 14 18 17 15 29 23 21 31 03 09
  21938976.183   -14476071.453 8 -11265569.58747  21938975.763    21938983.4794
  21185155.497    -5625530.219 9  -4378798.22147  21185155.212    21185161.2524
  22361023.817     8487647.034 8   6607229.57546  22361023.296    22361032.3434
  21178154.375    -1260626.272 9   -982969.81647  21178153.779    21178161.6284
  22802706.756   -11402870.534 8  -8863888.86846  22802706.834    22802716.4004
  22712057.199     7876149.649 8   6135765.69346  22712056.720    22712064.8124
  20831788.284   -24313672.597 9 -18831353.41847  20831787.834    20831795.2534
  22396036.149   -14038419.146 8 -10631510.07146  22396035.587    22396043.8384
  21288239.081   -19554470.361 9 -15225116.16747  21288238.889    21288246.6174
  23792585.075    -4336893.846 7  -2977672.28245  23792584.877    23792594.1384
